<?xml version='1.0' encoding='UTF-8'?>
<gpx version="1.1" creator="https://www.komoot.de" xmlns="http://www.topografix.com/GPX/1/1" xmlns:xsi="http://www.w3.org/2001/XMLSchema-instance" xsi:schemaLocation="http://www.topografix.com/GPX/1/1 http://www.topografix.com/GPX/1/1/gpx.xsd">
  <metadata>
    <name>DVV Krummesse-Kornbrennerwege der Stecknitz-Region</name>
    <author>
      <link href="https://www.komoot.de">
        <text>komoot</text>
        <type>text/html</type>
      </link>
    </author>
  </metadata>
  <trk>
    <name>DVV Krummesse-Kornbrennerwege der Stecknitz-Region</name>
    <trkseg>
      <trkpt lat="53.781834" lon="10.640998">
        <ele>59.462072</ele>
        <time>2021-06-18T05:40:42.935Z</time>
      </trkpt>
      <trkpt lat="53.782011" lon="10.640999">
        <ele>59.462072</ele>
        <time>2021-06-18T05:40:43.921Z</time>
      </trkpt>
      <trkpt lat="53.782102" lon="10.640966">
        <ele>59.462072</ele>
        <time>2021-06-18T05:41:03.880Z</time>
      </trkpt>
      <trkpt lat="53.782169" lon="10.640851">
        <ele>59.462072</ele>
        <time>2021-06-18T05:41:07.880Z</time>
      </trkpt>
      <trkpt lat="53.782256" lon="10.640773">
        <ele>59.462072</ele>
        <time>2021-06-18T05:41:13.883Z</time>
      </trkpt>
      <trkpt lat="53.782355" lon="10.640751">
        <ele>59.462072</ele>
        <time>2021-06-18T05:41:21.876Z</time>
      </trkpt>
      <trkpt lat="53.782309" lon="10.640620">
        <ele>59.462072</ele>
        <time>2021-06-18T05:41:37.868Z</time>
      </trkpt>
      <trkpt lat="53.782247" lon="10.640510">
        <ele>59.462072</ele>
        <time>2021-06-18T05:41:43.887Z</time>
      </trkpt>
      <trkpt lat="53.782152" lon="10.640435">
        <ele>59.462072</ele>
        <time>2021-06-18T05:41:50.882Z</time>
      </trkpt>
      <trkpt lat="53.782054" lon="10.640413">
        <ele>59.223829</ele>
        <time>2021-06-18T05:41:59.888Z</time>
      </trkpt>
      <trkpt lat="53.781942" lon="10.640405">
        <ele>58.667677</ele>
        <time>2021-06-18T05:42:05.868Z</time>
      </trkpt>
      <trkpt lat="53.781845" lon="10.640425">
        <ele>58.182880</ele>
        <time>2021-06-18T05:42:11.880Z</time>
      </trkpt>
      <trkpt lat="53.781750" lon="10.640411">
        <ele>57.709780</ele>
        <time>2021-06-18T05:42:18.862Z</time>
      </trkpt>
      <trkpt lat="53.781660" lon="10.640353">
        <ele>57.231994</ele>
        <time>2021-06-18T05:42:28.867Z</time>
      </trkpt>
      <trkpt lat="53.781564" lon="10.640321">
        <ele>56.746567</ele>
        <time>2021-06-18T05:42:36.882Z</time>
      </trkpt>
      <trkpt lat="53.781472" lon="10.640307">
        <ele>56.288292</ele>
        <time>2021-06-18T05:42:48.865Z</time>
      </trkpt>
      <trkpt lat="53.781375" lon="10.640291">
        <ele>55.804773</ele>
        <time>2021-06-18T05:42:54.880Z</time>
      </trkpt>
      <trkpt lat="53.781279" lon="10.640288">
        <ele>55.328414</ele>
        <time>2021-06-18T05:42:59.881Z</time>
      </trkpt>
      <trkpt lat="53.781188" lon="10.640267">
        <ele>54.872765</ele>
        <time>2021-06-18T05:43:05.880Z</time>
      </trkpt>
      <trkpt lat="53.781101" lon="10.640308">
        <ele>54.424717</ele>
        <time>2021-06-18T05:43:11.870Z</time>
      </trkpt>
      <trkpt lat="53.781004" lon="10.640304">
        <ele>53.943335</ele>
        <time>2021-06-18T05:43:18.884Z</time>
      </trkpt>
      <trkpt lat="53.780914" lon="10.640330">
        <ele>53.490366</ele>
        <time>2021-06-18T05:43:26.870Z</time>
      </trkpt>
      <trkpt lat="53.780854" lon="10.640200">
        <ele>53.006797</ele>
        <time>2021-06-18T05:43:37.862Z</time>
      </trkpt>
      <trkpt lat="53.780815" lon="10.640058">
        <ele>52.547758</ele>
        <time>2021-06-18T05:43:46.866Z</time>
      </trkpt>
      <trkpt lat="53.780817" lon="10.639893">
        <ele>52.063963</ele>
        <time>2021-06-18T05:43:51.866Z</time>
      </trkpt>
      <trkpt lat="53.780849" lon="10.639746">
        <ele>51.604723</ele>
        <time>2021-06-18T05:43:58.878Z</time>
      </trkpt>
      <trkpt lat="53.780828" lon="10.639576">
        <ele>51.095600</ele>
        <time>2021-06-18T05:44:04.869Z</time>
      </trkpt>
      <trkpt lat="53.780821" lon="10.639416">
        <ele>50.625281</ele>
        <time>2021-06-18T05:44:10.877Z</time>
      </trkpt>
      <trkpt lat="53.780819" lon="10.639251">
        <ele>50.364345</ele>
        <time>2021-06-18T05:44:16.865Z</time>
      </trkpt>
      <trkpt lat="53.780820" lon="10.639086">
        <ele>50.152092</ele>
        <time>2021-06-18T05:44:23.875Z</time>
      </trkpt>
      <trkpt lat="53.780802" lon="10.638928">
        <ele>49.945110</ele>
        <time>2021-06-18T05:44:29.872Z</time>
      </trkpt>
      <trkpt lat="53.780827" lon="10.638776">
        <ele>49.742156</ele>
        <time>2021-06-18T05:44:36.875Z</time>
      </trkpt>
      <trkpt lat="53.780830" lon="10.638613">
        <ele>49.532384</ele>
        <time>2021-06-18T05:44:43.874Z</time>
      </trkpt>
      <trkpt lat="53.780778" lon="10.638457">
        <ele>49.301990</ele>
        <time>2021-06-18T05:44:49.871Z</time>
      </trkpt>
      <trkpt lat="53.780761" lon="10.638303">
        <ele>49.100469</ele>
        <time>2021-06-18T05:45:04.882Z</time>
      </trkpt>
      <trkpt lat="53.780738" lon="10.638137">
        <ele>48.881148</ele>
        <time>2021-06-18T05:45:11.886Z</time>
      </trkpt>
      <trkpt lat="53.780698" lon="10.637986">
        <ele>48.668287</ele>
        <time>2021-06-18T05:45:18.880Z</time>
      </trkpt>
      <trkpt lat="53.780705" lon="10.637802">
        <ele>48.431113</ele>
        <time>2021-06-18T05:45:31.876Z</time>
      </trkpt>
      <trkpt lat="53.780695" lon="10.637651">
        <ele>48.235662</ele>
        <time>2021-06-18T05:45:38.861Z</time>
      </trkpt>
      <trkpt lat="53.780649" lon="10.637498">
        <ele>48.014843</ele>
        <time>2021-06-18T05:45:44.874Z</time>
      </trkpt>
      <trkpt lat="53.780617" lon="10.637180">
        <ele>47.599902</ele>
        <time>2021-06-18T05:46:11.884Z</time>
      </trkpt>
      <trkpt lat="53.780601" lon="10.637021">
        <ele>47.392431</ele>
        <time>2021-06-18T05:46:17.848Z</time>
      </trkpt>
      <trkpt lat="53.780598" lon="10.636865">
        <ele>47.191658</ele>
        <time>2021-06-18T05:46:24.869Z</time>
      </trkpt>
      <trkpt lat="53.780571" lon="10.636697">
        <ele>46.967704</ele>
        <time>2021-06-18T05:46:30.889Z</time>
      </trkpt>
      <trkpt lat="53.780549" lon="10.636520">
        <ele>46.735041</ele>
        <time>2021-06-18T05:46:37.868Z</time>
      </trkpt>
      <trkpt lat="53.780538" lon="10.636347">
        <ele>46.600474</ele>
        <time>2021-06-18T05:46:44.880Z</time>
      </trkpt>
      <trkpt lat="53.780527" lon="10.636186">
        <ele>46.558458</ele>
        <time>2021-06-18T05:46:50.883Z</time>
      </trkpt>
      <trkpt lat="53.780495" lon="10.636021">
        <ele>46.513438</ele>
        <time>2021-06-18T05:46:58.880Z</time>
      </trkpt>
      <trkpt lat="53.780430" lon="10.635908">
        <ele>46.472555</ele>
        <time>2021-06-18T05:47:05.864Z</time>
      </trkpt>
      <trkpt lat="53.780352" lon="10.635835">
        <ele>46.433450</ele>
        <time>2021-06-18T05:47:12.878Z</time>
      </trkpt>
      <trkpt lat="53.780259" lon="10.635807">
        <ele>46.392007</ele>
        <time>2021-06-18T05:47:19.872Z</time>
      </trkpt>
      <trkpt lat="53.780164" lon="10.635775">
        <ele>46.349509</ele>
        <time>2021-06-18T05:47:27.871Z</time>
      </trkpt>
      <trkpt lat="53.780082" lon="10.635689">
        <ele>46.307185</ele>
        <time>2021-06-18T05:47:34.867Z</time>
      </trkpt>
      <trkpt lat="53.779992" lon="10.635644">
        <ele>46.266011</ele>
        <time>2021-06-18T05:47:40.866Z</time>
      </trkpt>
      <trkpt lat="53.779905" lon="10.635605">
        <ele>46.226525</ele>
        <time>2021-06-18T05:47:46.870Z</time>
      </trkpt>
      <trkpt lat="53.779810" lon="10.635565">
        <ele>46.183574</ele>
        <time>2021-06-18T05:47:52.877Z</time>
      </trkpt>
      <trkpt lat="53.779713" lon="10.635510">
        <ele>46.138692</ele>
        <time>2021-06-18T05:48:00.875Z</time>
      </trkpt>
      <trkpt lat="53.779629" lon="10.635406">
        <ele>46.093028</ele>
        <time>2021-06-18T05:48:07.869Z</time>
      </trkpt>
      <trkpt lat="53.779549" lon="10.635303">
        <ele>46.048927</ele>
        <time>2021-06-18T05:48:13.876Z</time>
      </trkpt>
      <trkpt lat="53.779474" lon="10.635181">
        <ele>46.003286</ele>
        <time>2021-06-18T05:48:19.868Z</time>
      </trkpt>
      <trkpt lat="53.779416" lon="10.635064">
        <ele>45.963694</ele>
        <time>2021-06-18T05:48:25.876Z</time>
      </trkpt>
      <trkpt lat="53.779368" lon="10.634933">
        <ele>45.923733</ele>
        <time>2021-06-18T05:48:32.867Z</time>
      </trkpt>
      <trkpt lat="53.779336" lon="10.634770">
        <ele>45.879204</ele>
        <time>2021-06-18T05:48:39.870Z</time>
      </trkpt>
      <trkpt lat="53.779310" lon="10.634623">
        <ele>45.839424</ele>
        <time>2021-06-18T05:48:45.875Z</time>
      </trkpt>
      <trkpt lat="53.779282" lon="10.634478">
        <ele>45.985576</ele>
        <time>2021-06-18T05:48:52.867Z</time>
      </trkpt>
      <trkpt lat="53.779245" lon="10.634330">
        <ele>46.171494</ele>
        <time>2021-06-18T05:48:59.879Z</time>
      </trkpt>
      <trkpt lat="53.779216" lon="10.634177">
        <ele>46.357387</ele>
        <time>2021-06-18T05:49:06.876Z</time>
      </trkpt>
      <trkpt lat="53.779158" lon="10.634041">
        <ele>46.551427</ele>
        <time>2021-06-18T05:49:12.878Z</time>
      </trkpt>
      <trkpt lat="53.779095" lon="10.633923">
        <ele>46.735415</ele>
        <time>2021-06-18T05:49:18.877Z</time>
      </trkpt>
      <trkpt lat="53.779022" lon="10.633801">
        <ele>46.936288</ele>
        <time>2021-06-18T05:49:26.878Z</time>
      </trkpt>
      <trkpt lat="53.778944" lon="10.633685">
        <ele>47.139593</ele>
        <time>2021-06-18T05:49:33.875Z</time>
      </trkpt>
      <trkpt lat="53.778889" lon="10.633550">
        <ele>47.329302</ele>
        <time>2021-06-18T05:49:41.876Z</time>
      </trkpt>
      <trkpt lat="53.778844" lon="10.633415">
        <ele>47.508625</ele>
        <time>2021-06-18T05:49:48.873Z</time>
      </trkpt>
      <trkpt lat="53.778790" lon="10.633261">
        <ele>47.715800</ele>
        <time>2021-06-18T05:49:54.874Z</time>
      </trkpt>
      <trkpt lat="53.778770" lon="10.633106">
        <ele>47.899351</ele>
        <time>2021-06-18T05:49:59.881Z</time>
      </trkpt>
      <trkpt lat="53.778774" lon="10.632942">
        <ele>48.089249</ele>
        <time>2021-06-18T05:50:07.874Z</time>
      </trkpt>
      <trkpt lat="53.778767" lon="10.632786">
        <ele>48.270250</ele>
        <time>2021-06-18T05:50:13.883Z</time>
      </trkpt>
      <trkpt lat="53.778766" lon="10.632633">
        <ele>48.447272</ele>
        <time>2021-06-18T05:50:20.885Z</time>
      </trkpt>
      <trkpt lat="53.778817" lon="10.632502">
        <ele>48.628767</ele>
        <time>2021-06-18T05:50:27.884Z</time>
      </trkpt>
      <trkpt lat="53.778907" lon="10.632441">
        <ele>48.818585</ele>
        <time>2021-06-18T05:50:33.887Z</time>
      </trkpt>
      <trkpt lat="53.779005" lon="10.632434">
        <ele>49.010630</ele>
        <time>2021-06-18T05:50:38.880Z</time>
      </trkpt>
      <trkpt lat="53.779099" lon="10.632420">
        <ele>49.195384</ele>
        <time>2021-06-18T05:50:43.885Z</time>
      </trkpt>
      <trkpt lat="53.779199" lon="10.632408">
        <ele>49.371576</ele>
        <time>2021-06-18T05:50:49.867Z</time>
      </trkpt>
      <trkpt lat="53.779287" lon="10.632379">
        <ele>49.449778</ele>
        <time>2021-06-18T05:50:55.884Z</time>
      </trkpt>
      <trkpt lat="53.779384" lon="10.632358">
        <ele>49.535077</ele>
        <time>2021-06-18T05:51:03.879Z</time>
      </trkpt>
      <trkpt lat="53.779485" lon="10.632340">
        <ele>49.623663</ele>
        <time>2021-06-18T05:51:12.873Z</time>
      </trkpt>
      <trkpt lat="53.779577" lon="10.632307">
        <ele>49.705694</ele>
        <time>2021-06-18T05:51:18.867Z</time>
      </trkpt>
      <trkpt lat="53.779678" lon="10.632286">
        <ele>49.794455</ele>
        <time>2021-06-18T05:51:24.881Z</time>
      </trkpt>
      <trkpt lat="53.779776" lon="10.632250">
        <ele>49.881928</ele>
        <time>2021-06-18T05:51:32.887Z</time>
      </trkpt>
      <trkpt lat="53.779868" lon="10.632229">
        <ele>49.962903</ele>
        <time>2021-06-18T05:51:37.878Z</time>
      </trkpt>
      <trkpt lat="53.779958" lon="10.632201">
        <ele>50.042722</ele>
        <time>2021-06-18T05:51:44.877Z</time>
      </trkpt>
      <trkpt lat="53.780050" lon="10.632159">
        <ele>50.125839</ele>
        <time>2021-06-18T05:51:51.867Z</time>
      </trkpt>
      <trkpt lat="53.780151" lon="10.632127">
        <ele>50.215468</ele>
        <time>2021-06-18T05:51:57.882Z</time>
      </trkpt>
      <trkpt lat="53.780257" lon="10.632089">
        <ele>50.309980</ele>
        <time>2021-06-18T05:52:03.864Z</time>
      </trkpt>
      <trkpt lat="53.780347" lon="10.632062">
        <ele>50.389708</ele>
        <time>2021-06-18T05:52:10.883Z</time>
      </trkpt>
      <trkpt lat="53.780447" lon="10.632050">
        <ele>50.477153</ele>
        <time>2021-06-18T05:52:18.860Z</time>
      </trkpt>
      <trkpt lat="53.780545" lon="10.632014">
        <ele>50.564626</ele>
        <time>2021-06-18T05:52:26.872Z</time>
      </trkpt>
      <trkpt lat="53.780640" lon="10.631955">
        <ele>50.652894</ele>
        <time>2021-06-18T05:52:33.878Z</time>
      </trkpt>
      <trkpt lat="53.780728" lon="10.631889">
        <ele>50.736853</ele>
        <time>2021-06-18T05:52:39.873Z</time>
      </trkpt>
      <trkpt lat="53.780825" lon="10.631818">
        <ele>50.829037</ele>
        <time>2021-06-18T05:52:45.876Z</time>
      </trkpt>
      <trkpt lat="53.780917" lon="10.631759">
        <ele>50.914854</ele>
        <time>2021-06-18T05:52:51.864Z</time>
      </trkpt>
      <trkpt lat="53.781018" lon="10.631720">
        <ele>50.911205</ele>
        <time>2021-06-18T05:52:58.876Z</time>
      </trkpt>
      <trkpt lat="53.781103" lon="10.631788">
        <ele>50.897899</ele>
        <time>2021-06-18T05:53:04.880Z</time>
      </trkpt>
      <trkpt lat="53.781160" lon="10.631909">
        <ele>50.884958</ele>
        <time>2021-06-18T05:53:10.883Z</time>
      </trkpt>
      <trkpt lat="53.781213" lon="10.632042">
        <ele>50.871542</ele>
        <time>2021-06-18T05:53:17.866Z</time>
      </trkpt>
      <trkpt lat="53.781256" lon="10.632186">
        <ele>50.858050</ele>
        <time>2021-06-18T05:53:23.875Z</time>
      </trkpt>
      <trkpt lat="53.781317" lon="10.632323">
        <ele>50.843704</ele>
        <time>2021-06-18T05:53:30.880Z</time>
      </trkpt>
      <trkpt lat="53.781385" lon="10.632438">
        <ele>50.830099</ele>
        <time>2021-06-18T05:53:36.876Z</time>
      </trkpt>
      <trkpt lat="53.781450" lon="10.632544">
        <ele>50.817323</ele>
        <time>2021-06-18T05:53:42.867Z</time>
      </trkpt>
      <trkpt lat="53.781514" lon="10.632663">
        <ele>50.803867</ele>
        <time>2021-06-18T05:53:48.870Z</time>
      </trkpt>
      <trkpt lat="53.781574" lon="10.632784">
        <ele>50.790657</ele>
        <time>2021-06-18T05:53:54.873Z</time>
      </trkpt>
      <trkpt lat="53.781642" lon="10.632907">
        <ele>50.776571</ele>
        <time>2021-06-18T05:54:00.881Z</time>
      </trkpt>
      <trkpt lat="53.781689" lon="10.633062">
        <ele>50.762001</ele>
        <time>2021-06-18T05:54:07.883Z</time>
      </trkpt>
      <trkpt lat="53.781721" lon="10.633213">
        <ele>50.748586</ele>
        <time>2021-06-18T05:54:14.877Z</time>
      </trkpt>
      <trkpt lat="53.781771" lon="10.633363">
        <ele>50.734184</ele>
        <time>2021-06-18T05:54:22.890Z</time>
      </trkpt>
      <trkpt lat="53.781833" lon="10.633484">
        <ele>50.720790</ele>
        <time>2021-06-18T05:54:28.885Z</time>
      </trkpt>
      <trkpt lat="53.781914" lon="10.633584">
        <ele>50.706600</ele>
        <time>2021-06-18T05:54:34.870Z</time>
      </trkpt>
      <trkpt lat="53.781978" lon="10.633727">
        <ele>50.691599</ele>
        <time>2021-06-18T05:54:41.868Z</time>
      </trkpt>
      <trkpt lat="53.782037" lon="10.633867">
        <ele>50.677218</ele>
        <time>2021-06-18T05:54:48.885Z</time>
      </trkpt>
      <trkpt lat="53.782093" lon="10.633989">
        <ele>50.702958</ele>
        <time>2021-06-18T05:54:54.877Z</time>
      </trkpt>
      <trkpt lat="53.782163" lon="10.634104">
        <ele>50.786795</ele>
        <time>2021-06-18T05:55:00.874Z</time>
      </trkpt>
      <trkpt lat="53.782216" lon="10.634248">
        <ele>50.872940</ele>
        <time>2021-06-18T05:55:07.881Z</time>
      </trkpt>
      <trkpt lat="53.782263" lon="10.634383">
        <ele>50.952504</ele>
        <time>2021-06-18T05:55:14.871Z</time>
      </trkpt>
      <trkpt lat="53.782324" lon="10.634524">
        <ele>51.041240</ele>
        <time>2021-06-18T05:55:21.878Z</time>
      </trkpt>
      <trkpt lat="53.782410" lon="10.634594">
        <ele>51.123250</ele>
        <time>2021-06-18T05:55:28.869Z</time>
      </trkpt>
      <trkpt lat="53.782498" lon="10.634535">
        <ele>51.204594</ele>
        <time>2021-06-18T05:55:34.882Z</time>
      </trkpt>
      <trkpt lat="53.782590" lon="10.634486">
        <ele>51.287479</ele>
        <time>2021-06-18T05:55:40.879Z</time>
      </trkpt>
      <trkpt lat="53.782692" lon="10.634447">
        <ele>51.377346</ele>
        <time>2021-06-18T05:55:46.874Z</time>
      </trkpt>
      <trkpt lat="53.782797" lon="10.634414">
        <ele>51.469124</ele>
        <time>2021-06-18T05:55:53.868Z</time>
      </trkpt>
      <trkpt lat="53.782886" lon="10.634387">
        <ele>51.546828</ele>
        <time>2021-06-18T05:55:58.862Z</time>
      </trkpt>
      <trkpt lat="53.782975" lon="10.634340">
        <ele>51.626950</ele>
        <time>2021-06-18T05:56:04.880Z</time>
      </trkpt>
      <trkpt lat="53.783065" lon="10.634298">
        <ele>51.707180</ele>
        <time>2021-06-18T05:56:10.878Z</time>
      </trkpt>
      <trkpt lat="53.783159" lon="10.634240">
        <ele>51.793163</ele>
        <time>2021-06-18T05:56:16.886Z</time>
      </trkpt>
      <trkpt lat="53.783249" lon="10.634196">
        <ele>51.873670</ele>
        <time>2021-06-18T05:56:22.870Z</time>
      </trkpt>
      <trkpt lat="53.783346" lon="10.634150">
        <ele>51.960241</ele>
        <time>2021-06-18T05:56:29.874Z</time>
      </trkpt>
      <trkpt lat="53.783440" lon="10.634122">
        <ele>52.042264</ele>
        <time>2021-06-18T05:56:36.868Z</time>
      </trkpt>
      <trkpt lat="53.783531" lon="10.634087">
        <ele>52.122462</ele>
        <time>2021-06-18T05:56:42.874Z</time>
      </trkpt>
      <trkpt lat="53.783622" lon="10.634012">
        <ele>52.209445</ele>
        <time>2021-06-18T05:56:48.877Z</time>
      </trkpt>
      <trkpt lat="53.783722" lon="10.633973">
        <ele>52.224448</ele>
        <time>2021-06-18T05:56:54.874Z</time>
      </trkpt>
      <trkpt lat="53.783812" lon="10.633962">
        <ele>52.232903</ele>
        <time>2021-06-18T05:57:00.876Z</time>
      </trkpt>
      <trkpt lat="53.783894" lon="10.633901">
        <ele>52.241296</ele>
        <time>2021-06-18T05:57:06.881Z</time>
      </trkpt>
      <trkpt lat="53.783995" lon="10.633878">
        <ele>52.250846</ele>
        <time>2021-06-18T05:57:13.868Z</time>
      </trkpt>
      <trkpt lat="53.784085" lon="10.633824">
        <ele>52.259794</ele>
        <time>2021-06-18T05:57:19.877Z</time>
      </trkpt>
      <trkpt lat="53.784175" lon="10.633800">
        <ele>52.268331</ele>
        <time>2021-06-18T05:57:29.860Z</time>
      </trkpt>
      <trkpt lat="53.784277" lon="10.633779">
        <ele>52.277960</ele>
        <time>2021-06-18T05:57:36.883Z</time>
      </trkpt>
      <trkpt lat="53.784370" lon="10.633716">
        <ele>52.287346</ele>
        <time>2021-06-18T05:57:42.866Z</time>
      </trkpt>
      <trkpt lat="53.784452" lon="10.633652">
        <ele>52.295808</ele>
        <time>2021-06-18T05:57:50.879Z</time>
      </trkpt>
      <trkpt lat="53.784547" lon="10.633619">
        <ele>52.304895</ele>
        <time>2021-06-18T05:57:55.874Z</time>
      </trkpt>
      <trkpt lat="53.784652" lon="10.633577">
        <ele>52.315005</ele>
        <time>2021-06-18T05:58:01.865Z</time>
      </trkpt>
      <trkpt lat="53.784744" lon="10.633532">
        <ele>52.323979</ele>
        <time>2021-06-18T05:58:06.879Z</time>
      </trkpt>
      <trkpt lat="53.784841" lon="10.633504">
        <ele>52.333200</ele>
        <time>2021-06-18T05:58:13.881Z</time>
      </trkpt>
      <trkpt lat="53.784937" lon="10.633459">
        <ele>52.342534</ele>
        <time>2021-06-18T05:58:21.873Z</time>
      </trkpt>
      <trkpt lat="53.785035" lon="10.633406">
        <ele>52.352174</ele>
        <time>2021-06-18T05:58:28.866Z</time>
      </trkpt>
      <trkpt lat="53.785133" lon="10.633338">
        <ele>52.362099</ele>
        <time>2021-06-18T05:58:34.872Z</time>
      </trkpt>
      <trkpt lat="53.785234" lon="10.633296">
        <ele>52.371845</ele>
        <time>2021-06-18T05:58:40.866Z</time>
      </trkpt>
      <trkpt lat="53.785330" lon="10.633263">
        <ele>52.381024</ele>
        <time>2021-06-18T05:58:46.872Z</time>
      </trkpt>
      <trkpt lat="53.785428" lon="10.633236">
        <ele>52.403160</ele>
        <time>2021-06-18T05:58:52.873Z</time>
      </trkpt>
      <trkpt lat="53.785517" lon="10.633177">
        <ele>52.430375</ele>
        <time>2021-06-18T05:59:00.879Z</time>
      </trkpt>
      <trkpt lat="53.785603" lon="10.633126">
        <ele>52.456320</ele>
        <time>2021-06-18T05:59:07.883Z</time>
      </trkpt>
      <trkpt lat="53.785704" lon="10.633098">
        <ele>52.485460</ele>
        <time>2021-06-18T05:59:14.862Z</time>
      </trkpt>
      <trkpt lat="53.785792" lon="10.633058">
        <ele>52.511403</ele>
        <time>2021-06-18T05:59:21.885Z</time>
      </trkpt>
      <trkpt lat="53.785885" lon="10.633007">
        <ele>52.539237</ele>
        <time>2021-06-18T05:59:26.882Z</time>
      </trkpt>
      <trkpt lat="53.785977" lon="10.632957">
        <ele>52.566749</ele>
        <time>2021-06-18T05:59:31.881Z</time>
      </trkpt>
      <trkpt lat="53.786078" lon="10.632921">
        <ele>52.596136</ele>
        <time>2021-06-18T05:59:37.887Z</time>
      </trkpt>
      <trkpt lat="53.786167" lon="10.632865">
        <ele>52.623171</ele>
        <time>2021-06-18T05:59:43.874Z</time>
      </trkpt>
      <trkpt lat="53.786265" lon="10.632814">
        <ele>52.652362</ele>
        <time>2021-06-18T05:59:50.873Z</time>
      </trkpt>
      <trkpt lat="53.786355" lon="10.632772">
        <ele>52.678943</ele>
        <time>2021-06-18T05:59:56.870Z</time>
      </trkpt>
      <trkpt lat="53.786458" lon="10.632748">
        <ele>52.708546</ele>
        <time>2021-06-18T06:00:04.867Z</time>
      </trkpt>
      <trkpt lat="53.786560" lon="10.632734">
        <ele>52.737683</ele>
        <time>2021-06-18T06:00:11.869Z</time>
      </trkpt>
      <trkpt lat="53.786657" lon="10.632675">
        <ele>52.767030</ele>
        <time>2021-06-18T06:00:17.871Z</time>
      </trkpt>
      <trkpt lat="53.786746" lon="10.632620">
        <ele>52.794006</ele>
        <time>2021-06-18T06:00:22.876Z</time>
      </trkpt>
      <trkpt lat="53.786836" lon="10.632584">
        <ele>52.820337</ele>
        <time>2021-06-18T06:00:28.887Z</time>
      </trkpt>
      <trkpt lat="53.786927" lon="10.632550">
        <ele>52.846870</ele>
        <time>2021-06-18T06:00:35.866Z</time>
      </trkpt>
      <trkpt lat="53.787026" lon="10.632496">
        <ele>52.876485</ele>
        <time>2021-06-18T06:00:42.865Z</time>
      </trkpt>
      <trkpt lat="53.787117" lon="10.632446">
        <ele>52.821696</ele>
        <time>2021-06-18T06:00:48.872Z</time>
      </trkpt>
      <trkpt lat="53.787209" lon="10.632418">
        <ele>52.560341</ele>
        <time>2021-06-18T06:00:54.849Z</time>
      </trkpt>
      <trkpt lat="53.787302" lon="10.632379">
        <ele>52.292454</ele>
        <time>2021-06-18T06:01:01.866Z</time>
      </trkpt>
      <trkpt lat="53.787395" lon="10.632328">
        <ele>52.019122</ele>
        <time>2021-06-18T06:01:11.897Z</time>
      </trkpt>
      <trkpt lat="53.787506" lon="10.632295">
        <ele>51.704018</ele>
        <time>2021-06-18T06:01:20.881Z</time>
      </trkpt>
      <trkpt lat="53.787599" lon="10.632259">
        <ele>51.437280</ele>
        <time>2021-06-18T06:01:26.869Z</time>
      </trkpt>
      <trkpt lat="53.787687" lon="10.632199">
        <ele>51.172023</ele>
        <time>2021-06-18T06:01:32.878Z</time>
      </trkpt>
      <trkpt lat="53.787776" lon="10.632166">
        <ele>50.917281</ele>
        <time>2021-06-18T06:01:37.868Z</time>
      </trkpt>
      <trkpt lat="53.787862" lon="10.632120">
        <ele>50.665108</ele>
        <time>2021-06-18T06:01:43.873Z</time>
      </trkpt>
      <trkpt lat="53.787949" lon="10.632079">
        <ele>50.412606</ele>
        <time>2021-06-18T06:01:49.870Z</time>
      </trkpt>
      <trkpt lat="53.788044" lon="10.632031">
        <ele>50.135408</ele>
        <time>2021-06-18T06:01:56.880Z</time>
      </trkpt>
      <trkpt lat="53.788142" lon="10.631986">
        <ele>49.851499</ele>
        <time>2021-06-18T06:02:02.865Z</time>
      </trkpt>
      <trkpt lat="53.788236" lon="10.631930">
        <ele>49.572875</ele>
        <time>2021-06-18T06:02:09.871Z</time>
      </trkpt>
      <trkpt lat="53.788332" lon="10.631875">
        <ele>49.289504</ele>
        <time>2021-06-18T06:02:16.879Z</time>
      </trkpt>
      <trkpt lat="53.788421" lon="10.631833">
        <ele>49.031172</ele>
        <time>2021-06-18T06:02:22.862Z</time>
      </trkpt>
      <trkpt lat="53.788530" lon="10.631788">
        <ele>48.717478</ele>
        <time>2021-06-18T06:02:29.863Z</time>
      </trkpt>
      <trkpt lat="53.788622" lon="10.631741">
        <ele>48.448788</ele>
        <time>2021-06-18T06:02:35.872Z</time>
      </trkpt>
      <trkpt lat="53.788717" lon="10.631716">
        <ele>48.179980</ele>
        <time>2021-06-18T06:02:41.874Z</time>
      </trkpt>
      <trkpt lat="53.788810" lon="10.631688">
        <ele>47.915873</ele>
        <time>2021-06-18T06:02:47.871Z</time>
      </trkpt>
      <trkpt lat="53.788905" lon="10.631621">
        <ele>47.891952</ele>
        <time>2021-06-18T06:02:56.864Z</time>
      </trkpt>
      <trkpt lat="53.789002" lon="10.631568">
        <ele>47.921481</ele>
        <time>2021-06-18T06:03:03.873Z</time>
      </trkpt>
      <trkpt lat="53.789094" lon="10.631534">
        <ele>47.948761</ele>
        <time>2021-06-18T06:03:09.873Z</time>
      </trkpt>
      <trkpt lat="53.789188" lon="10.631487">
        <ele>47.977156</ele>
        <time>2021-06-18T06:03:13.867Z</time>
      </trkpt>
      <trkpt lat="53.789286" lon="10.631465">
        <ele>48.005796</ele>
        <time>2021-06-18T06:03:19.862Z</time>
      </trkpt>
      <trkpt lat="53.789371" lon="10.631393">
        <ele>48.033332</ele>
        <time>2021-06-18T06:03:28.881Z</time>
      </trkpt>
      <trkpt lat="53.789467" lon="10.631374">
        <ele>48.061333</ele>
        <time>2021-06-18T06:03:35.879Z</time>
      </trkpt>
      <trkpt lat="53.789560" lon="10.631356">
        <ele>48.088451</ele>
        <time>2021-06-18T06:03:41.884Z</time>
      </trkpt>
      <trkpt lat="53.789711" lon="10.631235">
        <ele>48.136850</ele>
        <time>2021-06-18T06:04:37.869Z</time>
      </trkpt>
      <trkpt lat="53.789802" lon="10.631202">
        <ele>48.163811</ele>
        <time>2021-06-18T06:04:43.892Z</time>
      </trkpt>
      <trkpt lat="53.789894" lon="10.631137">
        <ele>48.192692</ele>
        <time>2021-06-18T06:04:50.873Z</time>
      </trkpt>
      <trkpt lat="53.789999" lon="10.631107">
        <ele>48.223542</ele>
        <time>2021-06-18T06:04:57.868Z</time>
      </trkpt>
      <trkpt lat="53.790096" lon="10.631054">
        <ele>48.253070</ele>
        <time>2021-06-18T06:05:03.858Z</time>
      </trkpt>
      <trkpt lat="53.790191" lon="10.631013">
        <ele>48.281473</ele>
        <time>2021-06-18T06:05:11.872Z</time>
      </trkpt>
      <trkpt lat="53.790289" lon="10.630966">
        <ele>48.310981</ele>
        <time>2021-06-18T06:05:14.874Z</time>
      </trkpt>
      <trkpt lat="53.790389" lon="10.630921">
        <ele>48.340958</ele>
        <time>2021-06-18T06:05:19.874Z</time>
      </trkpt>
      <trkpt lat="53.790495" lon="10.630909">
        <ele>48.371735</ele>
        <time>2021-06-18T06:05:26.873Z</time>
      </trkpt>
      <trkpt lat="53.790598" lon="10.630884">
        <ele>48.458941</ele>
        <time>2021-06-18T06:05:33.867Z</time>
      </trkpt>
      <trkpt lat="53.790691" lon="10.630942">
        <ele>48.607910</ele>
        <time>2021-06-18T06:05:41.887Z</time>
      </trkpt>
      <trkpt lat="53.790702" lon="10.631111">
        <ele>48.758876</ele>
        <time>2021-06-18T06:05:51.867Z</time>
      </trkpt>
      <trkpt lat="53.790755" lon="10.631239">
        <ele>48.897668</ele>
        <time>2021-06-18T06:05:58.873Z</time>
      </trkpt>
      <trkpt lat="53.790774" lon="10.631413">
        <ele>49.054782</ele>
        <time>2021-06-18T06:06:06.872Z</time>
      </trkpt>
      <trkpt lat="53.790807" lon="10.631575">
        <ele>49.206935</ele>
        <time>2021-06-18T06:06:13.879Z</time>
      </trkpt>
      <trkpt lat="53.790848" lon="10.631727">
        <ele>49.355302</ele>
        <time>2021-06-18T06:06:21.871Z</time>
      </trkpt>
      <trkpt lat="53.790884" lon="10.631870">
        <ele>49.493322</ele>
        <time>2021-06-18T06:06:28.873Z</time>
      </trkpt>
      <trkpt lat="53.790909" lon="10.632036">
        <ele>49.645430</ele>
        <time>2021-06-18T06:06:35.866Z</time>
      </trkpt>
      <trkpt lat="53.790952" lon="10.632194">
        <ele>49.799891</ele>
        <time>2021-06-18T06:06:41.892Z</time>
      </trkpt>
      <trkpt lat="53.790984" lon="10.632345">
        <ele>49.942332</ele>
        <time>2021-06-18T06:06:47.881Z</time>
      </trkpt>
      <trkpt lat="53.791011" lon="10.632502">
        <ele>50.087521</ele>
        <time>2021-06-18T06:06:53.877Z</time>
      </trkpt>
      <trkpt lat="53.791003" lon="10.632672">
        <ele>50.238943</ele>
        <time>2021-06-18T06:07:00.879Z</time>
      </trkpt>
      <trkpt lat="53.791037" lon="10.632818">
        <ele>50.378287</ele>
        <time>2021-06-18T06:07:07.878Z</time>
      </trkpt>
      <trkpt lat="53.791089" lon="10.632950">
        <ele>50.519161</ele>
        <time>2021-06-18T06:07:14.869Z</time>
      </trkpt>
      <trkpt lat="53.791181" lon="10.633018">
        <ele>50.670050</ele>
        <time>2021-06-18T06:07:29.883Z</time>
      </trkpt>
      <trkpt lat="53.791085" lon="10.633142">
        <ele>50.851551</ele>
        <time>2021-06-18T06:07:39.872Z</time>
      </trkpt>
      <trkpt lat="53.791037" lon="10.633318">
        <ele>51.023673</ele>
        <time>2021-06-18T06:07:42.869Z</time>
      </trkpt>
      <trkpt lat="53.791017" lon="10.633484">
        <ele>50.835216</ele>
        <time>2021-06-18T06:07:47.870Z</time>
      </trkpt>
      <trkpt lat="53.791026" lon="10.633645">
        <ele>50.388056</ele>
        <time>2021-06-18T06:07:52.873Z</time>
      </trkpt>
      <trkpt lat="53.791032" lon="10.633824">
        <ele>49.892317</ele>
        <time>2021-06-18T06:07:57.880Z</time>
      </trkpt>
      <trkpt lat="53.791044" lon="10.633978">
        <ele>49.462813</ele>
        <time>2021-06-18T06:08:03.891Z</time>
      </trkpt>
      <trkpt lat="53.791056" lon="10.634145">
        <ele>48.997648</ele>
        <time>2021-06-18T06:08:10.876Z</time>
      </trkpt>
      <trkpt lat="53.791084" lon="10.634301">
        <ele>48.546831</ele>
        <time>2021-06-18T06:08:17.875Z</time>
      </trkpt>
      <trkpt lat="53.791095" lon="10.634482">
        <ele>48.043717</ele>
        <time>2021-06-18T06:08:23.865Z</time>
      </trkpt>
      <trkpt lat="53.791058" lon="10.634622">
        <ele>47.619638</ele>
        <time>2021-06-18T06:08:31.882Z</time>
      </trkpt>
      <trkpt lat="53.791032" lon="10.634779">
        <ele>47.168791</ele>
        <time>2021-06-18T06:08:37.865Z</time>
      </trkpt>
      <trkpt lat="53.791050" lon="10.634928">
        <ele>46.748273</ele>
        <time>2021-06-18T06:08:43.872Z</time>
      </trkpt>
      <trkpt lat="53.791149" lon="10.634921">
        <ele>46.284479</ele>
        <time>2021-06-18T06:08:50.877Z</time>
      </trkpt>
      <trkpt lat="53.791210" lon="10.634794">
        <ele>45.831892</ele>
        <time>2021-06-18T06:08:55.869Z</time>
      </trkpt>
      <trkpt lat="53.791268" lon="10.634670">
        <ele>45.394562</ele>
        <time>2021-06-18T06:09:00.882Z</time>
      </trkpt>
      <trkpt lat="53.791350" lon="10.634558">
        <ele>44.901390</ele>
        <time>2021-06-18T06:09:08.856Z</time>
      </trkpt>
      <trkpt lat="53.791435" lon="10.634473">
        <ele>44.439297</ele>
        <time>2021-06-18T06:09:14.874Z</time>
      </trkpt>
      <trkpt lat="53.791515" lon="10.634358">
        <ele>43.948047</ele>
        <time>2021-06-18T06:09:20.890Z</time>
      </trkpt>
      <trkpt lat="53.791590" lon="10.634249">
        <ele>43.485369</ele>
        <time>2021-06-18T06:09:26.858Z</time>
      </trkpt>
      <trkpt lat="53.791671" lon="10.634100">
        <ele>42.925479</ele>
        <time>2021-06-18T06:09:36.865Z</time>
      </trkpt>
      <trkpt lat="53.791741" lon="10.633962">
        <ele>42.627698</ele>
        <time>2021-06-18T06:09:41.875Z</time>
      </trkpt>
      <trkpt lat="53.791818" lon="10.633838">
        <ele>42.538023</ele>
        <time>2021-06-18T06:09:47.881Z</time>
      </trkpt>
      <trkpt lat="53.791894" lon="10.633721">
        <ele>42.451342</ele>
        <time>2021-06-18T06:09:53.865Z</time>
      </trkpt>
      <trkpt lat="53.791972" lon="10.633618">
        <ele>42.367869</ele>
        <time>2021-06-18T06:09:59.878Z</time>
      </trkpt>
      <trkpt lat="53.792038" lon="10.633492">
        <ele>42.283929</ele>
        <time>2021-06-18T06:10:06.868Z</time>
      </trkpt>
      <trkpt lat="53.792114" lon="10.633383">
        <ele>42.199880</ele>
        <time>2021-06-18T06:10:12.879Z</time>
      </trkpt>
      <trkpt lat="53.792187" lon="10.633273">
        <ele>42.117415</ele>
        <time>2021-06-18T06:10:19.873Z</time>
      </trkpt>
      <trkpt lat="53.792257" lon="10.633170">
        <ele>42.039155</ele>
        <time>2021-06-18T06:10:25.888Z</time>
      </trkpt>
      <trkpt lat="53.792320" lon="10.633044">
        <ele>41.956873</ele>
        <time>2021-06-18T06:10:31.872Z</time>
      </trkpt>
      <trkpt lat="53.792394" lon="10.632942">
        <ele>41.876351</ele>
        <time>2021-06-18T06:10:37.866Z</time>
      </trkpt>
      <trkpt lat="53.792463" lon="10.632838">
        <ele>41.798396</ele>
        <time>2021-06-18T06:10:43.869Z</time>
      </trkpt>
      <trkpt lat="53.792537" lon="10.632725">
        <ele>41.714305</ele>
        <time>2021-06-18T06:10:50.882Z</time>
      </trkpt>
      <trkpt lat="53.792607" lon="10.632630">
        <ele>41.638601</ele>
        <time>2021-06-18T06:10:57.878Z</time>
      </trkpt>
      <trkpt lat="53.792684" lon="10.632522">
        <ele>41.554225</ele>
        <time>2021-06-18T06:11:05.879Z</time>
      </trkpt>
      <trkpt lat="53.792758" lon="10.632426">
        <ele>41.475558</ele>
        <time>2021-06-18T06:11:11.874Z</time>
      </trkpt>
      <trkpt lat="53.792835" lon="10.632335">
        <ele>41.396319</ele>
        <time>2021-06-18T06:11:16.883Z</time>
      </trkpt>
      <trkpt lat="53.792919" lon="10.632243">
        <ele>41.311899</ele>
        <time>2021-06-18T06:11:22.878Z</time>
      </trkpt>
      <trkpt lat="53.792992" lon="10.632146">
        <ele>41.233593</ele>
        <time>2021-06-18T06:11:29.874Z</time>
      </trkpt>
      <trkpt lat="53.793073" lon="10.632042">
        <ele>41.152151</ele>
        <time>2021-06-18T06:11:36.872Z</time>
      </trkpt>
      <trkpt lat="53.793153" lon="10.631932">
        <ele>41.116836</ele>
        <time>2021-06-18T06:11:42.880Z</time>
      </trkpt>
      <trkpt lat="53.793230" lon="10.631839">
        <ele>41.084426</ele>
        <time>2021-06-18T06:11:48.874Z</time>
      </trkpt>
      <trkpt lat="53.793313" lon="10.631768">
        <ele>41.052561</ele>
        <time>2021-06-18T06:11:54.879Z</time>
      </trkpt>
      <trkpt lat="53.793397" lon="10.631687">
        <ele>41.019437</ele>
        <time>2021-06-18T06:12:01.875Z</time>
      </trkpt>
      <trkpt lat="53.793477" lon="10.631612">
        <ele>40.988103</ele>
        <time>2021-06-18T06:12:07.869Z</time>
      </trkpt>
      <trkpt lat="53.793558" lon="10.631526">
        <ele>40.955341</ele>
        <time>2021-06-18T06:12:13.878Z</time>
      </trkpt>
      <trkpt lat="53.793645" lon="10.631451">
        <ele>40.921888</ele>
        <time>2021-06-18T06:12:20.870Z</time>
      </trkpt>
      <trkpt lat="53.793723" lon="10.631370">
        <ele>40.890534</ele>
        <time>2021-06-18T06:12:26.879Z</time>
      </trkpt>
      <trkpt lat="53.793815" lon="10.631305">
        <ele>40.856375</ele>
        <time>2021-06-18T06:12:33.885Z</time>
      </trkpt>
      <trkpt lat="53.793900" lon="10.631234">
        <ele>40.823898</ele>
        <time>2021-06-18T06:12:40.868Z</time>
      </trkpt>
      <trkpt lat="53.793982" lon="10.631164">
        <ele>40.792430</ele>
        <time>2021-06-18T06:12:46.871Z</time>
      </trkpt>
      <trkpt lat="53.794072" lon="10.631111">
        <ele>40.759780</ele>
        <time>2021-06-18T06:12:52.877Z</time>
      </trkpt>
      <trkpt lat="53.794159" lon="10.631038">
        <ele>40.726508</ele>
        <time>2021-06-18T06:12:59.866Z</time>
      </trkpt>
      <trkpt lat="53.794243" lon="10.630975">
        <ele>40.695028</ele>
        <time>2021-06-18T06:13:06.880Z</time>
      </trkpt>
      <trkpt lat="53.794333" lon="10.630913">
        <ele>40.661734</ele>
        <time>2021-06-18T06:13:12.872Z</time>
      </trkpt>
      <trkpt lat="53.794423" lon="10.630849">
        <ele>40.628286</ele>
        <time>2021-06-18T06:13:18.867Z</time>
      </trkpt>
      <trkpt lat="53.794514" lon="10.630803">
        <ele>40.595744</ele>
        <time>2021-06-18T06:13:25.867Z</time>
      </trkpt>
      <trkpt lat="53.794610" lon="10.630770">
        <ele>40.562179</ele>
        <time>2021-06-18T06:13:32.873Z</time>
      </trkpt>
      <trkpt lat="53.794699" lon="10.630702">
        <ele>40.574068</ele>
        <time>2021-06-18T06:13:38.876Z</time>
      </trkpt>
      <trkpt lat="53.794789" lon="10.630662">
        <ele>40.685427</ele>
        <time>2021-06-18T06:13:44.877Z</time>
      </trkpt>
      <trkpt lat="53.794881" lon="10.630603">
        <ele>40.803166</ele>
        <time>2021-06-18T06:13:50.879Z</time>
      </trkpt>
      <trkpt lat="53.794974" lon="10.630541">
        <ele>40.922784</ele>
        <time>2021-06-18T06:13:57.883Z</time>
      </trkpt>
      <trkpt lat="53.795070" lon="10.630498">
        <ele>41.041628</ele>
        <time>2021-06-18T06:14:04.874Z</time>
      </trkpt>
      <trkpt lat="53.795174" lon="10.630467">
        <ele>41.168007</ele>
        <time>2021-06-18T06:14:10.878Z</time>
      </trkpt>
      <trkpt lat="53.795267" lon="10.630446">
        <ele>41.280293</ele>
        <time>2021-06-18T06:14:16.875Z</time>
      </trkpt>
      <trkpt lat="53.795359" lon="10.630409">
        <ele>41.393460</ele>
        <time>2021-06-18T06:14:22.877Z</time>
      </trkpt>
      <trkpt lat="53.795449" lon="10.630368">
        <ele>41.505001</ele>
        <time>2021-06-18T06:14:28.883Z</time>
      </trkpt>
      <trkpt lat="53.795550" lon="10.630343">
        <ele>41.627161</ele>
        <time>2021-06-18T06:14:35.878Z</time>
      </trkpt>
      <trkpt lat="53.795655" lon="10.630320">
        <ele>41.753870</ele>
        <time>2021-06-18T06:14:42.882Z</time>
      </trkpt>
      <trkpt lat="53.795754" lon="10.630287">
        <ele>41.874625</ele>
        <time>2021-06-18T06:14:48.884Z</time>
      </trkpt>
      <trkpt lat="53.795850" lon="10.630276">
        <ele>41.989778</ele>
        <time>2021-06-18T06:14:55.873Z</time>
      </trkpt>
      <trkpt lat="53.795967" lon="10.630264">
        <ele>42.130058</ele>
        <time>2021-06-18T06:15:35.899Z</time>
      </trkpt>
      <trkpt lat="53.796062" lon="10.630241">
        <ele>42.244908</ele>
        <time>2021-06-18T06:15:41.893Z</time>
      </trkpt>
      <trkpt lat="53.796156" lon="10.630238">
        <ele>42.357425</ele>
        <time>2021-06-18T06:15:47.887Z</time>
      </trkpt>
      <trkpt lat="53.796251" lon="10.630223">
        <ele>42.471612</ele>
        <time>2021-06-18T06:15:55.873Z</time>
      </trkpt>
      <trkpt lat="53.796353" lon="10.630199">
        <ele>42.594856</ele>
        <time>2021-06-18T06:16:02.874Z</time>
      </trkpt>
      <trkpt lat="53.796461" lon="10.630201">
        <ele>42.661832</ele>
        <time>2021-06-18T06:16:09.890Z</time>
      </trkpt>
      <trkpt lat="53.796561" lon="10.630210">
        <ele>42.553608</ele>
        <time>2021-06-18T06:16:15.863Z</time>
      </trkpt>
      <trkpt lat="53.796651" lon="10.630206">
        <ele>42.456311</ele>
        <time>2021-06-18T06:16:21.871Z</time>
      </trkpt>
      <trkpt lat="53.796745" lon="10.630210">
        <ele>42.354692</ele>
        <time>2021-06-18T06:16:27.869Z</time>
      </trkpt>
      <trkpt lat="53.796848" lon="10.630225">
        <ele>42.242968</ele>
        <time>2021-06-18T06:16:34.880Z</time>
      </trkpt>
      <trkpt lat="53.796949" lon="10.630226">
        <ele>42.133814</ele>
        <time>2021-06-18T06:16:40.874Z</time>
      </trkpt>
      <trkpt lat="53.797043" lon="10.630231">
        <ele>42.032178</ele>
        <time>2021-06-18T06:16:46.870Z</time>
      </trkpt>
      <trkpt lat="53.797143" lon="10.630254">
        <ele>41.923114</ele>
        <time>2021-06-18T06:16:53.867Z</time>
      </trkpt>
      <trkpt lat="53.797234" lon="10.630266">
        <ele>41.824471</ele>
        <time>2021-06-18T06:16:59.869Z</time>
      </trkpt>
      <trkpt lat="53.797331" lon="10.630278">
        <ele>41.719363</ele>
        <time>2021-06-18T06:17:05.863Z</time>
      </trkpt>
      <trkpt lat="53.797438" lon="10.630270">
        <ele>41.603614</ele>
        <time>2021-06-18T06:17:12.871Z</time>
      </trkpt>
      <trkpt lat="53.797536" lon="10.630264">
        <ele>41.497636</ele>
        <time>2021-06-18T06:17:18.873Z</time>
      </trkpt>
      <trkpt lat="53.797636" lon="10.630269">
        <ele>41.389517</ele>
        <time>2021-06-18T06:17:24.876Z</time>
      </trkpt>
      <trkpt lat="53.797732" lon="10.630305">
        <ele>41.283255</ele>
        <time>2021-06-18T06:17:32.884Z</time>
      </trkpt>
      <trkpt lat="53.797832" lon="10.630334">
        <ele>41.173610</ele>
        <time>2021-06-18T06:17:39.869Z</time>
      </trkpt>
      <trkpt lat="53.797935" lon="10.630348">
        <ele>41.061939</ele>
        <time>2021-06-18T06:17:46.875Z</time>
      </trkpt>
      <trkpt lat="53.798031" lon="10.630345">
        <ele>40.958173</ele>
        <time>2021-06-18T06:17:52.866Z</time>
      </trkpt>
      <trkpt lat="53.798134" lon="10.630353">
        <ele>40.846743</ele>
        <time>2021-06-18T06:17:59.882Z</time>
      </trkpt>
      <trkpt lat="53.798240" lon="10.630360">
        <ele>40.749838</ele>
        <time>2021-06-18T06:18:06.881Z</time>
      </trkpt>
      <trkpt lat="53.798332" lon="10.630367">
        <ele>40.764395</ele>
        <time>2021-06-18T06:18:11.890Z</time>
      </trkpt>
      <trkpt lat="53.798427" lon="10.630360">
        <ele>40.779425</ele>
        <time>2021-06-18T06:18:16.878Z</time>
      </trkpt>
      <trkpt lat="53.798525" lon="10.630393">
        <ele>40.795219</ele>
        <time>2021-06-18T06:18:23.866Z</time>
      </trkpt>
      <trkpt lat="53.798617" lon="10.630412">
        <ele>40.809869</ele>
        <time>2021-06-18T06:18:29.875Z</time>
      </trkpt>
      <trkpt lat="53.798716" lon="10.630429">
        <ele>40.825598</ele>
        <time>2021-06-18T06:18:35.868Z</time>
      </trkpt>
      <trkpt lat="53.798812" lon="10.630406">
        <ele>40.840923</ele>
        <time>2021-06-18T06:18:41.886Z</time>
      </trkpt>
      <trkpt lat="53.798908" lon="10.630405">
        <ele>40.856098</ele>
        <time>2021-06-18T06:18:47.883Z</time>
      </trkpt>
      <trkpt lat="53.798999" lon="10.630419">
        <ele>40.870541</ele>
        <time>2021-06-18T06:18:53.888Z</time>
      </trkpt>
      <trkpt lat="53.799101" lon="10.630430">
        <ele>40.886696</ele>
        <time>2021-06-18T06:19:00.868Z</time>
      </trkpt>
      <trkpt lat="53.799199" lon="10.630431">
        <ele>40.902187</ele>
        <time>2021-06-18T06:19:06.866Z</time>
      </trkpt>
      <trkpt lat="53.799299" lon="10.630424">
        <ele>40.918007</ele>
        <time>2021-06-18T06:19:12.870Z</time>
      </trkpt>
      <trkpt lat="53.799396" lon="10.630406">
        <ele>40.933431</ele>
        <time>2021-06-18T06:19:19.868Z</time>
      </trkpt>
      <trkpt lat="53.799497" lon="10.630408">
        <ele>40.949396</ele>
        <time>2021-06-18T06:19:26.867Z</time>
      </trkpt>
      <trkpt lat="53.799593" lon="10.630395">
        <ele>40.964619</ele>
        <time>2021-06-18T06:19:32.868Z</time>
      </trkpt>
      <trkpt lat="53.799690" lon="10.630386">
        <ele>40.979974</ele>
        <time>2021-06-18T06:19:38.886Z</time>
      </trkpt>
      <trkpt lat="53.799795" lon="10.630348">
        <ele>40.996946</ele>
        <time>2021-06-18T06:19:45.873Z</time>
      </trkpt>
      <trkpt lat="53.799894" lon="10.630335">
        <ele>41.012642</ele>
        <time>2021-06-18T06:19:52.879Z</time>
      </trkpt>
      <trkpt lat="53.799981" lon="10.630301">
        <ele>41.026755</ele>
        <time>2021-06-18T06:19:58.878Z</time>
      </trkpt>
      <trkpt lat="53.800085" lon="10.630286">
        <ele>41.019699</ele>
        <time>2021-06-18T06:20:04.877Z</time>
      </trkpt>
      <trkpt lat="53.800184" lon="10.630282">
        <ele>41.002940</ele>
        <time>2021-06-18T06:20:10.867Z</time>
      </trkpt>
      <trkpt lat="53.800273" lon="10.630235">
        <ele>40.987163</ele>
        <time>2021-06-18T06:20:17.871Z</time>
      </trkpt>
      <trkpt lat="53.800364" lon="10.630184">
        <ele>40.970942</ele>
        <time>2021-06-18T06:20:23.877Z</time>
      </trkpt>
      <trkpt lat="53.800454" lon="10.630159">
        <ele>40.955508</ele>
        <time>2021-06-18T06:20:28.879Z</time>
      </trkpt>
      <trkpt lat="53.800546" lon="10.630122">
        <ele>40.939505</ele>
        <time>2021-06-18T06:20:34.867Z</time>
      </trkpt>
      <trkpt lat="53.800634" lon="10.630063">
        <ele>40.923488</ele>
        <time>2021-06-18T06:20:41.886Z</time>
      </trkpt>
      <trkpt lat="53.800724" lon="10.630030">
        <ele>40.907905</ele>
        <time>2021-06-18T06:20:46.877Z</time>
      </trkpt>
      <trkpt lat="53.800819" lon="10.630008">
        <ele>40.891678</ele>
        <time>2021-06-18T06:20:52.862Z</time>
      </trkpt>
      <trkpt lat="53.800910" lon="10.629985">
        <ele>40.876108</ele>
        <time>2021-06-18T06:20:59.884Z</time>
      </trkpt>
      <trkpt lat="53.800996" lon="10.629922">
        <ele>40.860251</ele>
        <time>2021-06-18T06:21:06.870Z</time>
      </trkpt>
      <trkpt lat="53.801089" lon="10.629846">
        <ele>40.842775</ele>
        <time>2021-06-18T06:21:13.884Z</time>
      </trkpt>
      <trkpt lat="53.801188" lon="10.629789">
        <ele>40.825080</ele>
        <time>2021-06-18T06:21:19.865Z</time>
      </trkpt>
      <trkpt lat="53.801282" lon="10.629725">
        <ele>40.807934</ele>
        <time>2021-06-18T06:21:26.869Z</time>
      </trkpt>
      <trkpt lat="53.801370" lon="10.629668">
        <ele>40.791990</ele>
        <time>2021-06-18T06:21:32.871Z</time>
      </trkpt>
      <trkpt lat="53.801469" lon="10.629598">
        <ele>40.773834</ele>
        <time>2021-06-18T06:21:38.875Z</time>
      </trkpt>
      <trkpt lat="53.801556" lon="10.629502">
        <ele>40.756261</ele>
        <time>2021-06-18T06:21:45.877Z</time>
      </trkpt>
      <trkpt lat="53.801643" lon="10.629442">
        <ele>40.740363</ele>
        <time>2021-06-18T06:21:51.877Z</time>
      </trkpt>
      <trkpt lat="53.801730" lon="10.629389">
        <ele>40.727880</ele>
        <time>2021-06-18T06:21:57.867Z</time>
      </trkpt>
      <trkpt lat="53.801816" lon="10.629330">
        <ele>40.730054</ele>
        <time>2021-06-18T06:22:03.873Z</time>
      </trkpt>
      <trkpt lat="53.801898" lon="10.629263">
        <ele>40.732188</ele>
        <time>2021-06-18T06:22:10.878Z</time>
      </trkpt>
      <trkpt lat="53.801995" lon="10.629192">
        <ele>40.734663</ele>
        <time>2021-06-18T06:22:32.867Z</time>
      </trkpt>
      <trkpt lat="53.802084" lon="10.629138">
        <ele>40.736878</ele>
        <time>2021-06-18T06:22:37.882Z</time>
      </trkpt>
      <trkpt lat="53.802169" lon="10.629072">
        <ele>40.739069</ele>
        <time>2021-06-18T06:22:43.874Z</time>
      </trkpt>
      <trkpt lat="53.802248" lon="10.628973">
        <ele>40.741372</ele>
        <time>2021-06-18T06:22:51.874Z</time>
      </trkpt>
      <trkpt lat="53.802318" lon="10.628865">
        <ele>40.743591</ele>
        <time>2021-06-18T06:22:56.870Z</time>
      </trkpt>
      <trkpt lat="53.802396" lon="10.628781">
        <ele>40.745756</ele>
        <time>2021-06-18T06:23:01.874Z</time>
      </trkpt>
      <trkpt lat="53.802470" lon="10.628682">
        <ele>40.747966</ele>
        <time>2021-06-18T06:23:07.869Z</time>
      </trkpt>
      <trkpt lat="53.802553" lon="10.628592">
        <ele>40.750275</ele>
        <time>2021-06-18T06:23:14.868Z</time>
      </trkpt>
      <trkpt lat="53.802631" lon="10.628505">
        <ele>40.752463</ele>
        <time>2021-06-18T06:23:20.880Z</time>
      </trkpt>
      <trkpt lat="53.802708" lon="10.628424">
        <ele>40.754587</ele>
        <time>2021-06-18T06:23:26.878Z</time>
      </trkpt>
      <trkpt lat="53.802781" lon="10.628314">
        <ele>40.756876</ele>
        <time>2021-06-18T06:23:32.870Z</time>
      </trkpt>
      <trkpt lat="53.802856" lon="10.628229">
        <ele>40.758991</ele>
        <time>2021-06-18T06:23:38.861Z</time>
      </trkpt>
      <trkpt lat="53.802935" lon="10.628111">
        <ele>40.761459</ele>
        <time>2021-06-18T06:23:45.869Z</time>
      </trkpt>
      <trkpt lat="53.803015" lon="10.628019">
        <ele>40.763725</ele>
        <time>2021-06-18T06:23:52.871Z</time>
      </trkpt>
      <trkpt lat="53.803099" lon="10.627918">
        <ele>40.766138</ele>
        <time>2021-06-18T06:23:58.871Z</time>
      </trkpt>
      <trkpt lat="53.803187" lon="10.627824">
        <ele>40.768576</ele>
        <time>2021-06-18T06:24:04.868Z</time>
      </trkpt>
      <trkpt lat="53.803270" lon="10.627753">
        <ele>40.799477</ele>
        <time>2021-06-18T06:24:11.870Z</time>
      </trkpt>
      <trkpt lat="53.803350" lon="10.627661">
        <ele>40.859896</ele>
        <time>2021-06-18T06:24:18.873Z</time>
      </trkpt>
      <trkpt lat="53.803424" lon="10.627537">
        <ele>40.924941</ele>
        <time>2021-06-18T06:24:25.872Z</time>
      </trkpt>
      <trkpt lat="53.803510" lon="10.627467">
        <ele>40.984557</ele>
        <time>2021-06-18T06:24:31.870Z</time>
      </trkpt>
      <trkpt lat="53.803590" lon="10.627367">
        <ele>41.046682</ele>
        <time>2021-06-18T06:24:37.874Z</time>
      </trkpt>
      <trkpt lat="53.803669" lon="10.627255">
        <ele>41.111055</ele>
        <time>2021-06-18T06:24:43.875Z</time>
      </trkpt>
      <trkpt lat="53.803741" lon="10.627158">
        <ele>41.168539</ele>
        <time>2021-06-18T06:24:50.872Z</time>
      </trkpt>
      <trkpt lat="53.803813" lon="10.627056">
        <ele>41.227190</ele>
        <time>2021-06-18T06:24:56.872Z</time>
      </trkpt>
      <trkpt lat="53.803889" lon="10.626965">
        <ele>41.285345</ele>
        <time>2021-06-18T06:25:02.877Z</time>
      </trkpt>
      <trkpt lat="53.803974" lon="10.626859">
        <ele>41.351298</ele>
        <time>2021-06-18T06:25:09.862Z</time>
      </trkpt>
      <trkpt lat="53.804061" lon="10.626762">
        <ele>41.416378</ele>
        <time>2021-06-18T06:25:16.873Z</time>
      </trkpt>
      <trkpt lat="53.804139" lon="10.626671">
        <ele>41.475557</ele>
        <time>2021-06-18T06:25:22.869Z</time>
      </trkpt>
      <trkpt lat="53.804222" lon="10.626590">
        <ele>41.535409</ele>
        <time>2021-06-18T06:25:28.879Z</time>
      </trkpt>
      <trkpt lat="53.804304" lon="10.626500">
        <ele>41.596461</ele>
        <time>2021-06-18T06:25:35.859Z</time>
      </trkpt>
      <trkpt lat="53.804376" lon="10.626395">
        <ele>41.655828</ele>
        <time>2021-06-18T06:25:42.864Z</time>
      </trkpt>
      <trkpt lat="53.804458" lon="10.626288">
        <ele>41.720506</ele>
        <time>2021-06-18T06:25:50.862Z</time>
      </trkpt>
      <trkpt lat="53.804534" lon="10.626167">
        <ele>41.785681</ele>
        <time>2021-06-18T06:25:56.866Z</time>
      </trkpt>
      <trkpt lat="53.804607" lon="10.626066">
        <ele>41.844577</ele>
        <time>2021-06-18T06:26:02.877Z</time>
      </trkpt>
      <trkpt lat="53.804691" lon="10.625980">
        <ele>41.918215</ele>
        <time>2021-06-18T06:26:15.856Z</time>
      </trkpt>
      <trkpt lat="53.804771" lon="10.625886">
        <ele>42.038880</ele>
        <time>2021-06-18T06:26:22.869Z</time>
      </trkpt>
      <trkpt lat="53.804847" lon="10.625777">
        <ele>42.162300</ele>
        <time>2021-06-18T06:26:29.893Z</time>
      </trkpt>
      <trkpt lat="53.804930" lon="10.625676">
        <ele>42.288956</ele>
        <time>2021-06-18T06:26:36.875Z</time>
      </trkpt>
      <trkpt lat="53.805018" lon="10.625630">
        <ele>42.403084</ele>
        <time>2021-06-18T06:26:42.872Z</time>
      </trkpt>
      <trkpt lat="53.805108" lon="10.625594">
        <ele>42.517681</ele>
        <time>2021-06-18T06:26:51.890Z</time>
      </trkpt>
      <trkpt lat="53.805189" lon="10.625496">
        <ele>42.641044</ele>
        <time>2021-06-18T06:27:00.905Z</time>
      </trkpt>
      <trkpt lat="53.805088" lon="10.625462">
        <ele>42.768653</ele>
        <time>2021-06-18T06:27:15.884Z</time>
      </trkpt>
      <trkpt lat="53.805022" lon="10.625331">
        <ele>42.894666</ele>
        <time>2021-06-18T06:27:43.870Z</time>
      </trkpt>
      <trkpt lat="53.804992" lon="10.625171">
        <ele>43.017513</ele>
        <time>2021-06-18T06:27:49.869Z</time>
      </trkpt>
      <trkpt lat="53.804952" lon="10.625033">
        <ele>43.130010</ele>
        <time>2021-06-18T06:27:57.871Z</time>
      </trkpt>
      <trkpt lat="53.804903" lon="10.624787">
        <ele>43.319997</ele>
        <time>2021-06-18T06:29:12.858Z</time>
      </trkpt>
      <trkpt lat="53.804865" lon="10.624643">
        <ele>43.435418</ele>
        <time>2021-06-18T06:29:19.871Z</time>
      </trkpt>
      <trkpt lat="53.804811" lon="10.624497">
        <ele>43.561486</ele>
        <time>2021-06-18T06:29:24.880Z</time>
      </trkpt>
      <trkpt lat="53.804757" lon="10.624370">
        <ele>43.676009</ele>
        <time>2021-06-18T06:29:30.882Z</time>
      </trkpt>
      <trkpt lat="53.804683" lon="10.624250">
        <ele>43.802977</ele>
        <time>2021-06-18T06:29:37.872Z</time>
      </trkpt>
      <trkpt lat="53.804618" lon="10.624138">
        <ele>43.917893</ele>
        <time>2021-06-18T06:29:43.860Z</time>
      </trkpt>
      <trkpt lat="53.804532" lon="10.624039">
        <ele>44.046758</ele>
        <time>2021-06-18T06:29:50.867Z</time>
      </trkpt>
      <trkpt lat="53.804447" lon="10.623945">
        <ele>44.305647</ele>
        <time>2021-06-18T06:29:57.870Z</time>
      </trkpt>
      <trkpt lat="53.804358" lon="10.623870">
        <ele>44.754863</ele>
        <time>2021-06-18T06:30:04.870Z</time>
      </trkpt>
      <trkpt lat="53.804271" lon="10.623792">
        <ele>45.199695</ele>
        <time>2021-06-18T06:30:10.884Z</time>
      </trkpt>
      <trkpt lat="53.804190" lon="10.623711">
        <ele>45.624772</ele>
        <time>2021-06-18T06:30:17.878Z</time>
      </trkpt>
      <trkpt lat="53.804101" lon="10.623658">
        <ele>46.051085</ele>
        <time>2021-06-18T06:30:24.880Z</time>
      </trkpt>
      <trkpt lat="53.804013" lon="10.623610">
        <ele>46.468855</ele>
        <time>2021-06-18T06:30:30.876Z</time>
      </trkpt>
      <trkpt lat="53.803918" lon="10.623538">
        <ele>46.939172</ele>
        <time>2021-06-18T06:30:36.878Z</time>
      </trkpt>
      <trkpt lat="53.803828" lon="10.623484">
        <ele>47.370634</ele>
        <time>2021-06-18T06:30:41.873Z</time>
      </trkpt>
      <trkpt lat="53.803745" lon="10.623415">
        <ele>47.788450</ele>
        <time>2021-06-18T06:30:49.865Z</time>
      </trkpt>
      <trkpt lat="53.803650" lon="10.623344">
        <ele>48.257683</ele>
        <time>2021-06-18T06:30:57.866Z</time>
      </trkpt>
      <trkpt lat="53.803557" lon="10.623277">
        <ele>48.714380</ele>
        <time>2021-06-18T06:31:03.878Z</time>
      </trkpt>
      <trkpt lat="53.803474" lon="10.623202">
        <ele>49.139496</ele>
        <time>2021-06-18T06:31:10.888Z</time>
      </trkpt>
      <trkpt lat="53.803375" lon="10.623142">
        <ele>49.614642</ele>
        <time>2021-06-18T06:31:17.869Z</time>
      </trkpt>
      <trkpt lat="53.803286" lon="10.623108">
        <ele>50.026918</ele>
        <time>2021-06-18T06:31:23.893Z</time>
      </trkpt>
      <trkpt lat="53.803202" lon="10.623052">
        <ele>50.434851</ele>
        <time>2021-06-18T06:31:29.871Z</time>
      </trkpt>
      <trkpt lat="53.803109" lon="10.622997">
        <ele>50.879988</ele>
        <time>2021-06-18T06:31:35.884Z</time>
      </trkpt>
      <trkpt lat="53.803025" lon="10.622913">
        <ele>51.320811</ele>
        <time>2021-06-18T06:31:42.884Z</time>
      </trkpt>
      <trkpt lat="53.802932" lon="10.622817">
        <ele>51.812986</ele>
        <time>2021-06-18T06:31:56.865Z</time>
      </trkpt>
      <trkpt lat="53.802844" lon="10.622792">
        <ele>52.216193</ele>
        <time>2021-06-18T06:32:02.862Z</time>
      </trkpt>
      <trkpt lat="53.802758" lon="10.622703">
        <ele>52.312116</ele>
        <time>2021-06-18T06:32:11.862Z</time>
      </trkpt>
      <trkpt lat="53.802655" lon="10.622666">
        <ele>52.382321</ele>
        <time>2021-06-18T06:32:16.864Z</time>
      </trkpt>
      <trkpt lat="53.802563" lon="10.622606">
        <ele>52.448057</ele>
        <time>2021-06-18T06:32:22.865Z</time>
      </trkpt>
      <trkpt lat="53.802465" lon="10.622562">
        <ele>52.515659</ele>
        <time>2021-06-18T06:32:29.863Z</time>
      </trkpt>
      <trkpt lat="53.802380" lon="10.622508">
        <ele>52.576192</ele>
        <time>2021-06-18T06:32:34.860Z</time>
      </trkpt>
      <trkpt lat="53.802282" lon="10.622457">
        <ele>52.644552</ele>
        <time>2021-06-18T06:32:40.883Z</time>
      </trkpt>
      <trkpt lat="53.802187" lon="10.622412">
        <ele>52.710327</ele>
        <time>2021-06-18T06:32:47.866Z</time>
      </trkpt>
      <trkpt lat="53.802099" lon="10.622368">
        <ele>52.771508</ele>
        <time>2021-06-18T06:32:52.863Z</time>
      </trkpt>
      <trkpt lat="53.802005" lon="10.622323">
        <ele>52.836641</ele>
        <time>2021-06-18T06:32:59.877Z</time>
      </trkpt>
      <trkpt lat="53.801904" lon="10.622301">
        <ele>52.904540</ele>
        <time>2021-06-18T06:33:06.868Z</time>
      </trkpt>
      <trkpt lat="53.801804" lon="10.622253">
        <ele>52.973844</ele>
        <time>2021-06-18T06:33:12.874Z</time>
      </trkpt>
      <trkpt lat="53.801716" lon="10.622211">
        <ele>53.034806</ele>
        <time>2021-06-18T06:33:18.870Z</time>
      </trkpt>
      <trkpt lat="53.801628" lon="10.622157">
        <ele>53.097217</ele>
        <time>2021-06-18T06:33:24.866Z</time>
      </trkpt>
      <trkpt lat="53.801540" lon="10.622121">
        <ele>53.157581</ele>
        <time>2021-06-18T06:33:30.871Z</time>
      </trkpt>
      <trkpt lat="53.801446" lon="10.622078">
        <ele>53.222504</ele>
        <time>2021-06-18T06:33:38.880Z</time>
      </trkpt>
      <trkpt lat="53.801350" lon="10.622077">
        <ele>53.286516</ele>
        <time>2021-06-18T06:33:45.866Z</time>
      </trkpt>
      <trkpt lat="53.801249" lon="10.622042">
        <ele>53.355255</ele>
        <time>2021-06-18T06:33:51.880Z</time>
      </trkpt>
      <trkpt lat="53.801154" lon="10.622009">
        <ele>53.419918</ele>
        <time>2021-06-18T06:33:58.895Z</time>
      </trkpt>
      <trkpt lat="53.801065" lon="10.622032">
        <ele>53.474073</ele>
        <time>2021-06-18T06:34:05.879Z</time>
      </trkpt>
      <trkpt lat="53.800964" lon="10.622099">
        <ele>53.532595</ele>
        <time>2021-06-18T06:34:13.878Z</time>
      </trkpt>
      <trkpt lat="53.800869" lon="10.622148">
        <ele>53.586174</ele>
        <time>2021-06-18T06:34:18.875Z</time>
      </trkpt>
      <trkpt lat="53.800772" lon="10.622196">
        <ele>53.640695</ele>
        <time>2021-06-18T06:34:24.862Z</time>
      </trkpt>
      <trkpt lat="53.800684" lon="10.622261">
        <ele>53.692492</ele>
        <time>2021-06-18T06:34:30.874Z</time>
      </trkpt>
      <trkpt lat="53.800593" lon="10.622337">
        <ele>53.747235</ele>
        <time>2021-06-18T06:34:37.878Z</time>
      </trkpt>
      <trkpt lat="53.800502" lon="10.622403">
        <ele>53.800644</ele>
        <time>2021-06-18T06:34:44.876Z</time>
      </trkpt>
      <trkpt lat="53.800406" lon="10.622491">
        <ele>53.859540</ele>
        <time>2021-06-18T06:34:50.882Z</time>
      </trkpt>
      <trkpt lat="53.800315" lon="10.622568">
        <ele>53.914424</ele>
        <time>2021-06-18T06:34:56.868Z</time>
      </trkpt>
      <trkpt lat="53.800232" lon="10.622636">
        <ele>53.964170</ele>
        <time>2021-06-18T06:35:02.864Z</time>
      </trkpt>
      <trkpt lat="53.800150" lon="10.622724">
        <ele>54.016547</ele>
        <time>2021-06-18T06:35:08.869Z</time>
      </trkpt>
      <trkpt lat="53.800070" lon="10.622830">
        <ele>54.071352</ele>
        <time>2021-06-18T06:35:15.877Z</time>
      </trkpt>
      <trkpt lat="53.799997" lon="10.622924">
        <ele>54.120831</ele>
        <time>2021-06-18T06:35:21.866Z</time>
      </trkpt>
      <trkpt lat="53.799915" lon="10.623027">
        <ele>54.175915</ele>
        <time>2021-06-18T06:35:28.869Z</time>
      </trkpt>
      <trkpt lat="53.799836" lon="10.623133">
        <ele>54.230297</ele>
        <time>2021-06-18T06:35:35.880Z</time>
      </trkpt>
      <trkpt lat="53.799771" lon="10.623256">
        <ele>54.282888</ele>
        <time>2021-06-18T06:35:41.884Z</time>
      </trkpt>
      <trkpt lat="53.799695" lon="10.623352">
        <ele>54.334043</ele>
        <time>2021-06-18T06:35:47.873Z</time>
      </trkpt>
      <trkpt lat="53.799615" lon="10.623433">
        <ele>54.384332</ele>
        <time>2021-06-18T06:35:53.869Z</time>
      </trkpt>
      <trkpt lat="53.799536" lon="10.623527">
        <ele>54.370682</ele>
        <time>2021-06-18T06:36:00.876Z</time>
      </trkpt>
      <trkpt lat="53.799486" lon="10.623653">
        <ele>54.230653</ele>
        <time>2021-06-18T06:36:05.881Z</time>
      </trkpt>
      <trkpt lat="53.799415" lon="10.623756">
        <ele>54.084622</ele>
        <time>2021-06-18T06:36:11.872Z</time>
      </trkpt>
      <trkpt lat="53.799335" lon="10.623863">
        <ele>53.925390</ele>
        <time>2021-06-18T06:36:18.876Z</time>
      </trkpt>
      <trkpt lat="53.799259" lon="10.623960">
        <ele>53.776739</ele>
        <time>2021-06-18T06:36:24.877Z</time>
      </trkpt>
      <trkpt lat="53.799185" lon="10.624059">
        <ele>53.629435</ele>
        <time>2021-06-18T06:36:30.867Z</time>
      </trkpt>
      <trkpt lat="53.799105" lon="10.624150">
        <ele>53.478905</ele>
        <time>2021-06-18T06:36:36.876Z</time>
      </trkpt>
      <trkpt lat="53.799027" lon="10.624229">
        <ele>53.336945</ele>
        <time>2021-06-18T06:36:42.867Z</time>
      </trkpt>
      <trkpt lat="53.798954" lon="10.624338">
        <ele>53.184925</ele>
        <time>2021-06-18T06:36:48.872Z</time>
      </trkpt>
      <trkpt lat="53.798879" lon="10.624463">
        <ele>53.020553</ele>
        <time>2021-06-18T06:36:54.871Z</time>
      </trkpt>
      <trkpt lat="53.798793" lon="10.624549">
        <ele>52.864553</ele>
        <time>2021-06-18T06:37:02.878Z</time>
      </trkpt>
      <trkpt lat="53.798718" lon="10.624683">
        <ele>52.694253</ele>
        <time>2021-06-18T06:37:08.870Z</time>
      </trkpt>
      <trkpt lat="53.798645" lon="10.624792">
        <ele>52.542233</ele>
        <time>2021-06-18T06:37:14.867Z</time>
      </trkpt>
      <trkpt lat="53.798569" lon="10.624878">
        <ele>52.399460</ele>
        <time>2021-06-18T06:37:20.878Z</time>
      </trkpt>
      <trkpt lat="53.798480" lon="10.624962">
        <ele>52.240314</ele>
        <time>2021-06-18T06:37:27.868Z</time>
      </trkpt>
      <trkpt lat="53.798403" lon="10.625053">
        <ele>52.093649</ele>
        <time>2021-06-18T06:37:33.867Z</time>
      </trkpt>
      <trkpt lat="53.798328" lon="10.625168">
        <ele>51.935610</ele>
        <time>2021-06-18T06:37:40.882Z</time>
      </trkpt>
      <trkpt lat="53.798259" lon="10.625290">
        <ele>51.779789</ele>
        <time>2021-06-18T06:37:48.882Z</time>
      </trkpt>
      <trkpt lat="53.798193" lon="10.625414">
        <ele>51.625804</ele>
        <time>2021-06-18T06:37:55.877Z</time>
      </trkpt>
      <trkpt lat="53.798124" lon="10.625539">
        <ele>51.377366</ele>
        <time>2021-06-18T06:38:01.873Z</time>
      </trkpt>
      <trkpt lat="53.798056" lon="10.625650">
        <ele>51.135911</ele>
        <time>2021-06-18T06:38:06.869Z</time>
      </trkpt>
      <trkpt lat="53.797996" lon="10.625770">
        <ele>50.898532</ele>
        <time>2021-06-18T06:38:12.874Z</time>
      </trkpt>
      <trkpt lat="53.797921" lon="10.625885">
        <ele>50.639876</ele>
        <time>2021-06-18T06:38:19.876Z</time>
      </trkpt>
      <trkpt lat="53.797857" lon="10.626012">
        <ele>50.387822</ele>
        <time>2021-06-18T06:38:24.868Z</time>
      </trkpt>
      <trkpt lat="53.797798" lon="10.626136">
        <ele>50.147413</ele>
        <time>2021-06-18T06:38:30.869Z</time>
      </trkpt>
      <trkpt lat="53.797743" lon="10.626276">
        <ele>49.893552</ele>
        <time>2021-06-18T06:38:36.876Z</time>
      </trkpt>
      <trkpt lat="53.797673" lon="10.626387">
        <ele>49.648389</ele>
        <time>2021-06-18T06:38:42.871Z</time>
      </trkpt>
      <trkpt lat="53.797606" lon="10.626499">
        <ele>49.407707</ele>
        <time>2021-06-18T06:38:47.875Z</time>
      </trkpt>
      <trkpt lat="53.797531" lon="10.626620">
        <ele>49.142884</ele>
        <time>2021-06-18T06:38:54.878Z</time>
      </trkpt>
      <trkpt lat="53.797459" lon="10.626719">
        <ele>48.905784</ele>
        <time>2021-06-18T06:39:00.883Z</time>
      </trkpt>
      <trkpt lat="53.797373" lon="10.626799">
        <ele>48.654950</ele>
        <time>2021-06-18T06:39:08.876Z</time>
      </trkpt>
      <trkpt lat="53.797295" lon="10.626895">
        <ele>48.408446</ele>
        <time>2021-06-18T06:39:13.872Z</time>
      </trkpt>
      <trkpt lat="53.797217" lon="10.627000">
        <ele>48.153715</ele>
        <time>2021-06-18T06:39:19.882Z</time>
      </trkpt>
      <trkpt lat="53.797123" lon="10.627065">
        <ele>47.894159</ele>
        <time>2021-06-18T06:39:26.865Z</time>
      </trkpt>
      <trkpt lat="53.797031" lon="10.627144">
        <ele>47.630466</ele>
        <time>2021-06-18T06:39:31.873Z</time>
      </trkpt>
      <trkpt lat="53.796954" lon="10.627251">
        <ele>47.375825</ele>
        <time>2021-06-18T06:39:38.875Z</time>
      </trkpt>
      <trkpt lat="53.796874" lon="10.627337">
        <ele>47.133585</ele>
        <time>2021-06-18T06:39:45.879Z</time>
      </trkpt>
      <trkpt lat="53.796787" lon="10.627392">
        <ele>46.920404</ele>
        <time>2021-06-18T06:39:51.871Z</time>
      </trkpt>
      <trkpt lat="53.796694" lon="10.627455">
        <ele>46.717648</ele>
        <time>2021-06-18T06:39:59.871Z</time>
      </trkpt>
      <trkpt lat="53.796597" lon="10.627462">
        <ele>46.521126</ele>
        <time>2021-06-18T06:40:06.872Z</time>
      </trkpt>
      <trkpt lat="53.796492" lon="10.627486">
        <ele>46.306661</ele>
        <time>2021-06-18T06:40:12.874Z</time>
      </trkpt>
      <trkpt lat="53.796393" lon="10.627508">
        <ele>46.104550</ele>
        <time>2021-06-18T06:40:17.879Z</time>
      </trkpt>
      <trkpt lat="53.796300" lon="10.627524">
        <ele>45.915333</ele>
        <time>2021-06-18T06:40:24.874Z</time>
      </trkpt>
      <trkpt lat="53.796203" lon="10.627532">
        <ele>45.718756</ele>
        <time>2021-06-18T06:40:29.876Z</time>
      </trkpt>
      <trkpt lat="53.796101" lon="10.627534">
        <ele>45.512278</ele>
        <time>2021-06-18T06:40:34.886Z</time>
      </trkpt>
      <trkpt lat="53.796008" lon="10.627549">
        <ele>45.323179</ele>
        <time>2021-06-18T06:40:39.881Z</time>
      </trkpt>
      <trkpt lat="53.795911" lon="10.627548">
        <ele>45.126831</ele>
        <time>2021-06-18T06:40:46.874Z</time>
      </trkpt>
      <trkpt lat="53.795821" lon="10.627572">
        <ele>44.942411</ele>
        <time>2021-06-18T06:40:52.878Z</time>
      </trkpt>
      <trkpt lat="53.795730" lon="10.627596">
        <ele>44.755990</ele>
        <time>2021-06-18T06:40:58.883Z</time>
      </trkpt>
      <trkpt lat="53.795628" lon="10.627613">
        <ele>44.548528</ele>
        <time>2021-06-18T06:41:05.884Z</time>
      </trkpt>
      <trkpt lat="53.795524" lon="10.627631">
        <ele>44.336918</ele>
        <time>2021-06-18T06:41:11.872Z</time>
      </trkpt>
      <trkpt lat="53.795426" lon="10.627635">
        <ele>44.138492</ele>
        <time>2021-06-18T06:41:17.882Z</time>
      </trkpt>
      <trkpt lat="53.795321" lon="10.627661">
        <ele>43.923694</ele>
        <time>2021-06-18T06:41:23.872Z</time>
      </trkpt>
      <trkpt lat="53.795223" lon="10.627669">
        <ele>43.725095</ele>
        <time>2021-06-18T06:41:30.868Z</time>
      </trkpt>
      <trkpt lat="53.795128" lon="10.627665">
        <ele>43.532740</ele>
        <time>2021-06-18T06:41:38.873Z</time>
      </trkpt>
      <trkpt lat="53.795034" lon="10.627698">
        <ele>43.369489</ele>
        <time>2021-06-18T06:41:44.878Z</time>
      </trkpt>
      <trkpt lat="53.794932" lon="10.627722">
        <ele>43.355267</ele>
        <time>2021-06-18T06:41:52.881Z</time>
      </trkpt>
      <trkpt lat="53.794836" lon="10.627724">
        <ele>43.342008</ele>
        <time>2021-06-18T06:41:59.881Z</time>
      </trkpt>
      <trkpt lat="53.794736" lon="10.627733">
        <ele>43.328179</ele>
        <time>2021-06-18T06:42:06.881Z</time>
      </trkpt>
      <trkpt lat="53.794643" lon="10.627785">
        <ele>43.314653</ele>
        <time>2021-06-18T06:42:14.874Z</time>
      </trkpt>
      <trkpt lat="53.794550" lon="10.627801">
        <ele>43.301743</ele>
        <time>2021-06-18T06:42:22.872Z</time>
      </trkpt>
      <trkpt lat="53.794449" lon="10.627842">
        <ele>43.287399</ele>
        <time>2021-06-18T06:42:28.874Z</time>
      </trkpt>
      <trkpt lat="53.794360" lon="10.627954">
        <ele>43.272085</ele>
        <time>2021-06-18T06:42:37.882Z</time>
      </trkpt>
      <trkpt lat="53.794271" lon="10.628012">
        <ele>43.258914</ele>
        <time>2021-06-18T06:42:41.879Z</time>
      </trkpt>
      <trkpt lat="53.794176" lon="10.628069">
        <ele>43.244995</ele>
        <time>2021-06-18T06:42:47.862Z</time>
      </trkpt>
      <trkpt lat="53.794098" lon="10.628149">
        <ele>43.232400</ele>
        <time>2021-06-18T06:42:52.859Z</time>
      </trkpt>
      <trkpt lat="53.794021" lon="10.628233">
        <ele>43.219750</ele>
        <time>2021-06-18T06:42:59.861Z</time>
      </trkpt>
      <trkpt lat="53.793932" lon="10.628317">
        <ele>43.205678</ele>
        <time>2021-06-18T06:43:06.880Z</time>
      </trkpt>
      <trkpt lat="53.793852" lon="10.628411">
        <ele>43.192229</ele>
        <time>2021-06-18T06:43:12.881Z</time>
      </trkpt>
      <trkpt lat="53.793767" lon="10.628494">
        <ele>43.178678</ele>
        <time>2021-06-18T06:43:18.865Z</time>
      </trkpt>
      <trkpt lat="53.793694" lon="10.628582">
        <ele>43.166302</ele>
        <time>2021-06-18T06:43:24.880Z</time>
      </trkpt>
      <trkpt lat="53.793603" lon="10.628624">
        <ele>43.153276</ele>
        <time>2021-06-18T06:43:30.864Z</time>
      </trkpt>
      <trkpt lat="53.793515" lon="10.628679">
        <ele>43.140321</ele>
        <time>2021-06-18T06:43:38.872Z</time>
      </trkpt>
      <trkpt lat="53.793426" lon="10.628752">
        <ele>43.126663</ele>
        <time>2021-06-18T06:43:45.877Z</time>
      </trkpt>
      <trkpt lat="53.793334" lon="10.628819">
        <ele>43.430060</ele>
        <time>2021-06-18T06:43:52.881Z</time>
      </trkpt>
      <trkpt lat="53.793248" lon="10.628867">
        <ele>43.794114</ele>
        <time>2021-06-18T06:43:57.876Z</time>
      </trkpt>
      <trkpt lat="53.793145" lon="10.628928">
        <ele>44.232814</ele>
        <time>2021-06-18T06:44:04.868Z</time>
      </trkpt>
      <trkpt lat="53.793070" lon="10.628803">
        <ele>44.655942</ele>
        <time>2021-06-18T06:44:10.874Z</time>
      </trkpt>
      <trkpt lat="53.793053" lon="10.628643">
        <ele>45.042009</ele>
        <time>2021-06-18T06:44:16.869Z</time>
      </trkpt>
      <trkpt lat="53.793035" lon="10.628491">
        <ele>45.410163</ele>
        <time>2021-06-18T06:44:21.863Z</time>
      </trkpt>
      <trkpt lat="53.793034" lon="10.628335">
        <ele>45.780656</ele>
        <time>2021-06-18T06:44:26.880Z</time>
      </trkpt>
      <trkpt lat="53.793016" lon="10.628165">
        <ele>46.190809</ele>
        <time>2021-06-18T06:44:32.867Z</time>
      </trkpt>
      <trkpt lat="53.793015" lon="10.627996">
        <ele>46.592173</ele>
        <time>2021-06-18T06:44:39.863Z</time>
      </trkpt>
      <trkpt lat="53.793018" lon="10.627833">
        <ele>46.979456</ele>
        <time>2021-06-18T06:44:45.875Z</time>
      </trkpt>
      <trkpt lat="53.793009" lon="10.627667">
        <ele>47.375333</ele>
        <time>2021-06-18T06:44:52.882Z</time>
      </trkpt>
      <trkpt lat="53.792993" lon="10.627501">
        <ele>47.774766</ele>
        <time>2021-06-18T06:44:58.876Z</time>
      </trkpt>
      <trkpt lat="53.792992" lon="10.627336">
        <ele>48.166631</ele>
        <time>2021-06-18T06:45:04.872Z</time>
      </trkpt>
      <trkpt lat="53.793002" lon="10.627182">
        <ele>48.534556</ele>
        <time>2021-06-18T06:45:09.868Z</time>
      </trkpt>
      <trkpt lat="53.792998" lon="10.627008">
        <ele>48.948087</ele>
        <time>2021-06-18T06:45:16.864Z</time>
      </trkpt>
      <trkpt lat="53.793019" lon="10.626834">
        <ele>49.369842</ele>
        <time>2021-06-18T06:45:22.867Z</time>
      </trkpt>
      <trkpt lat="53.793084" lon="10.626718">
        <ele>49.749548</ele>
        <time>2021-06-18T06:45:36.870Z</time>
      </trkpt>
      <trkpt lat="53.793090" lon="10.626552">
        <ele>50.144504</ele>
        <time>2021-06-18T06:45:41.873Z</time>
      </trkpt>
      <trkpt lat="53.793059" lon="10.626383">
        <ele>50.476930</ele>
        <time>2021-06-18T06:45:50.869Z</time>
      </trkpt>
      <trkpt lat="53.793041" lon="10.626218">
        <ele>50.708975</ele>
        <time>2021-06-18T06:45:55.862Z</time>
      </trkpt>
      <trkpt lat="53.793043" lon="10.626045">
        <ele>50.948272</ele>
        <time>2021-06-18T06:46:00.871Z</time>
      </trkpt>
      <trkpt lat="53.793029" lon="10.625881">
        <ele>51.177432</ele>
        <time>2021-06-18T06:46:05.863Z</time>
      </trkpt>
      <trkpt lat="53.793026" lon="10.625706">
        <ele>51.419551</ele>
        <time>2021-06-18T06:46:12.860Z</time>
      </trkpt>
      <trkpt lat="53.793033" lon="10.625544">
        <ele>51.644188</ele>
        <time>2021-06-18T06:46:19.868Z</time>
      </trkpt>
      <trkpt lat="53.793026" lon="10.625376">
        <ele>51.877101</ele>
        <time>2021-06-18T06:46:26.863Z</time>
      </trkpt>
      <trkpt lat="53.793018" lon="10.625211">
        <ele>52.106056</ele>
        <time>2021-06-18T06:46:32.872Z</time>
      </trkpt>
      <trkpt lat="53.793028" lon="10.625053">
        <ele>52.325813</ele>
        <time>2021-06-18T06:46:38.864Z</time>
      </trkpt>
      <trkpt lat="53.793027" lon="10.624896">
        <ele>52.542949</ele>
        <time>2021-06-18T06:46:44.871Z</time>
      </trkpt>
      <trkpt lat="53.793036" lon="10.624745">
        <ele>52.752835</ele>
        <time>2021-06-18T06:46:50.878Z</time>
      </trkpt>
      <trkpt lat="53.793031" lon="10.624573">
        <ele>52.990991</ele>
        <time>2021-06-18T06:46:56.882Z</time>
      </trkpt>
      <trkpt lat="53.793027" lon="10.624420">
        <ele>53.202790</ele>
        <time>2021-06-18T06:47:03.876Z</time>
      </trkpt>
      <trkpt lat="53.793029" lon="10.624247">
        <ele>53.442086</ele>
        <time>2021-06-18T06:47:10.876Z</time>
      </trkpt>
      <trkpt lat="53.793028" lon="10.624086">
        <ele>53.664754</ele>
        <time>2021-06-18T06:47:16.870Z</time>
      </trkpt>
      <trkpt lat="53.793013" lon="10.623920">
        <ele>53.896994</ele>
        <time>2021-06-18T06:47:23.870Z</time>
      </trkpt>
      <trkpt lat="53.793029" lon="10.623756">
        <ele>54.126871</ele>
        <time>2021-06-18T06:47:30.882Z</time>
      </trkpt>
      <trkpt lat="53.793036" lon="10.623604">
        <ele>54.337718</ele>
        <time>2021-06-18T06:47:36.875Z</time>
      </trkpt>
      <trkpt lat="53.793048" lon="10.623445">
        <ele>54.559395</ele>
        <time>2021-06-18T06:47:42.879Z</time>
      </trkpt>
      <trkpt lat="53.793044" lon="10.623287">
        <ele>54.641410</ele>
        <time>2021-06-18T06:47:48.873Z</time>
      </trkpt>
      <trkpt lat="53.793012" lon="10.623119">
        <ele>54.728607</ele>
        <time>2021-06-18T06:47:55.877Z</time>
      </trkpt>
      <trkpt lat="53.793004" lon="10.622963">
        <ele>54.805959</ele>
        <time>2021-06-18T06:48:01.874Z</time>
      </trkpt>
      <trkpt lat="53.793005" lon="10.622793">
        <ele>54.889941</ele>
        <time>2021-06-18T06:48:07.878Z</time>
      </trkpt>
      <trkpt lat="53.793007" lon="10.622637">
        <ele>54.967021</ele>
        <time>2021-06-18T06:48:13.868Z</time>
      </trkpt>
      <trkpt lat="53.793012" lon="10.622482">
        <ele>55.043703</ele>
        <time>2021-06-18T06:48:19.879Z</time>
      </trkpt>
      <trkpt lat="53.793003" lon="10.622320">
        <ele>55.124082</ele>
        <time>2021-06-18T06:48:26.878Z</time>
      </trkpt>
      <trkpt lat="53.792998" lon="10.622167">
        <ele>55.199778</ele>
        <time>2021-06-18T06:48:32.871Z</time>
      </trkpt>
      <trkpt lat="53.793006" lon="10.621996">
        <ele>55.284514</ele>
        <time>2021-06-18T06:48:39.862Z</time>
      </trkpt>
      <trkpt lat="53.793019" lon="10.621846">
        <ele>55.359406</ele>
        <time>2021-06-18T06:48:45.878Z</time>
      </trkpt>
      <trkpt lat="53.793014" lon="10.621688">
        <ele>55.437567</ele>
        <time>2021-06-18T06:48:52.861Z</time>
      </trkpt>
      <trkpt lat="53.793001" lon="10.621531">
        <ele>55.515882</ele>
        <time>2021-06-18T06:48:59.868Z</time>
      </trkpt>
      <trkpt lat="53.793008" lon="10.621379">
        <ele>55.591196</ele>
        <time>2021-06-18T06:49:05.874Z</time>
      </trkpt>
      <trkpt lat="53.793024" lon="10.621206">
        <ele>55.677696</ele>
        <time>2021-06-18T06:49:15.879Z</time>
      </trkpt>
      <trkpt lat="53.793012" lon="10.621044">
        <ele>55.758349</ele>
        <time>2021-06-18T06:49:20.881Z</time>
      </trkpt>
      <trkpt lat="53.793015" lon="10.620874">
        <ele>55.842364</ele>
        <time>2021-06-18T06:49:31.874Z</time>
      </trkpt>
      <trkpt lat="53.793005" lon="10.620720">
        <ele>55.918897</ele>
        <time>2021-06-18T06:49:37.886Z</time>
      </trkpt>
      <trkpt lat="53.793007" lon="10.620550">
        <ele>56.002891</ele>
        <time>2021-06-18T06:49:44.879Z</time>
      </trkpt>
      <trkpt lat="53.793016" lon="10.620389">
        <ele>56.077998</ele>
        <time>2021-06-18T06:49:52.874Z</time>
      </trkpt>
      <trkpt lat="53.792944" lon="10.620278">
        <ele>56.129893</ele>
        <time>2021-06-18T06:50:02.865Z</time>
      </trkpt>
      <trkpt lat="53.792850" lon="10.620266">
        <ele>56.180128</ele>
        <time>2021-06-18T06:50:08.872Z</time>
      </trkpt>
      <trkpt lat="53.792759" lon="10.620247">
        <ele>56.228990</ele>
        <time>2021-06-18T06:50:14.881Z</time>
      </trkpt>
      <trkpt lat="53.792660" lon="10.620231">
        <ele>56.281987</ele>
        <time>2021-06-18T06:50:20.870Z</time>
      </trkpt>
      <trkpt lat="53.792566" lon="10.620213">
        <ele>56.332400</ele>
        <time>2021-06-18T06:50:26.872Z</time>
      </trkpt>
      <trkpt lat="53.792469" lon="10.620203">
        <ele>56.384187</ele>
        <time>2021-06-18T06:50:32.878Z</time>
      </trkpt>
      <trkpt lat="53.792381" lon="10.620174">
        <ele>56.431963</ele>
        <time>2021-06-18T06:50:37.870Z</time>
      </trkpt>
      <trkpt lat="53.792378" lon="10.619999">
        <ele>56.487075</ele>
        <time>2021-06-18T06:50:44.879Z</time>
      </trkpt>
      <trkpt lat="53.792408" lon="10.619835">
        <ele>56.541120</ele>
        <time>2021-06-18T06:50:51.876Z</time>
      </trkpt>
      <trkpt lat="53.792406" lon="10.619679">
        <ele>56.590239</ele>
        <time>2021-06-18T06:50:58.879Z</time>
      </trkpt>
      <trkpt lat="53.792373" lon="10.619524">
        <ele>56.642105</ele>
        <time>2021-06-18T06:51:06.869Z</time>
      </trkpt>
      <trkpt lat="53.792354" lon="10.619366">
        <ele>56.692862</ele>
        <time>2021-06-18T06:51:14.869Z</time>
      </trkpt>
      <trkpt lat="53.792338" lon="10.619201">
        <ele>56.745498</ele>
        <time>2021-06-18T06:51:21.876Z</time>
      </trkpt>
      <trkpt lat="53.792315" lon="10.619049">
        <ele>56.794892</ele>
        <time>2021-06-18T06:51:28.876Z</time>
      </trkpt>
      <trkpt lat="53.792297" lon="10.618900">
        <ele>56.842767</ele>
        <time>2021-06-18T06:51:34.865Z</time>
      </trkpt>
      <trkpt lat="53.792281" lon="10.618729">
        <ele>56.897268</ele>
        <time>2021-06-18T06:51:40.880Z</time>
      </trkpt>
      <trkpt lat="53.792252" lon="10.618574">
        <ele>56.948450</ele>
        <time>2021-06-18T06:51:46.862Z</time>
      </trkpt>
      <trkpt lat="53.792189" lon="10.618465">
        <ele>56.996455</ele>
        <time>2021-06-18T06:51:55.875Z</time>
      </trkpt>
      <trkpt lat="53.792185" lon="10.618304">
        <ele>57.063405</ele>
        <time>2021-06-18T06:52:02.877Z</time>
      </trkpt>
      <trkpt lat="53.792185" lon="10.618151">
        <ele>57.152527</ele>
        <time>2021-06-18T06:52:07.874Z</time>
      </trkpt>
      <trkpt lat="53.792162" lon="10.617979">
        <ele>57.255251</ele>
        <time>2021-06-18T06:52:13.878Z</time>
      </trkpt>
      <trkpt lat="53.792159" lon="10.617809">
        <ele>57.354319</ele>
        <time>2021-06-18T06:52:22.871Z</time>
      </trkpt>
      <trkpt lat="53.792131" lon="10.617638">
        <ele>57.457681</ele>
        <time>2021-06-18T06:52:29.865Z</time>
      </trkpt>
      <trkpt lat="53.792109" lon="10.617473">
        <ele>57.556210</ele>
        <time>2021-06-18T06:52:35.871Z</time>
      </trkpt>
      <trkpt lat="53.792083" lon="10.617327">
        <ele>57.645035</ele>
        <time>2021-06-18T06:52:41.852Z</time>
      </trkpt>
      <trkpt lat="53.792046" lon="10.617160">
        <ele>57.748929</ele>
        <time>2021-06-18T06:52:48.872Z</time>
      </trkpt>
      <trkpt lat="53.792023" lon="10.616992">
        <ele>57.849381</ele>
        <time>2021-06-18T06:52:53.868Z</time>
      </trkpt>
      <trkpt lat="53.792001" lon="10.616838">
        <ele>57.941672</ele>
        <time>2021-06-18T06:52:59.857Z</time>
      </trkpt>
      <trkpt lat="53.792005" lon="10.616686">
        <ele>58.030299</ele>
        <time>2021-06-18T06:53:06.873Z</time>
      </trkpt>
      <trkpt lat="53.791994" lon="10.616534">
        <ele>58.119500</ele>
        <time>2021-06-18T06:53:12.862Z</time>
      </trkpt>
      <trkpt lat="53.791973" lon="10.616369">
        <ele>58.217817</ele>
        <time>2021-06-18T06:53:19.870Z</time>
      </trkpt>
      <trkpt lat="53.791954" lon="10.616209">
        <ele>58.312881</ele>
        <time>2021-06-18T06:53:25.863Z</time>
      </trkpt>
      <trkpt lat="53.791932" lon="10.616049">
        <ele>58.408572</ele>
        <time>2021-06-18T06:53:31.867Z</time>
      </trkpt>
      <trkpt lat="53.791912" lon="10.615900">
        <ele>58.497577</ele>
        <time>2021-06-18T06:53:37.871Z</time>
      </trkpt>
      <trkpt lat="53.791889" lon="10.615748">
        <ele>58.588975</ele>
        <time>2021-06-18T06:53:44.872Z</time>
      </trkpt>
      <trkpt lat="53.791860" lon="10.615585">
        <ele>58.688135</ele>
        <time>2021-06-18T06:53:52.864Z</time>
      </trkpt>
      <trkpt lat="53.791836" lon="10.615430">
        <ele>58.781472</ele>
        <time>2021-06-18T06:53:58.868Z</time>
      </trkpt>
      <trkpt lat="53.791821" lon="10.615251">
        <ele>58.775061</ele>
        <time>2021-06-18T06:54:05.863Z</time>
      </trkpt>
      <trkpt lat="53.791795" lon="10.615096">
        <ele>58.745660</ele>
        <time>2021-06-18T06:54:10.866Z</time>
      </trkpt>
      <trkpt lat="53.791767" lon="10.614946">
        <ele>58.716956</ele>
        <time>2021-06-18T06:54:16.861Z</time>
      </trkpt>
      <trkpt lat="53.791755" lon="10.614789">
        <ele>58.688069</ele>
        <time>2021-06-18T06:54:22.871Z</time>
      </trkpt>
      <trkpt lat="53.791739" lon="10.614613">
        <ele>58.655576</ele>
        <time>2021-06-18T06:54:30.858Z</time>
      </trkpt>
      <trkpt lat="53.791718" lon="10.614441">
        <ele>58.623528</ele>
        <time>2021-06-18T06:54:36.871Z</time>
      </trkpt>
      <trkpt lat="53.791694" lon="10.614280">
        <ele>58.593229</ele>
        <time>2021-06-18T06:54:43.862Z</time>
      </trkpt>
      <trkpt lat="53.791656" lon="10.614138">
        <ele>58.564783</ele>
        <time>2021-06-18T06:54:50.862Z</time>
      </trkpt>
      <trkpt lat="53.791633" lon="10.613982">
        <ele>58.535444</ele>
        <time>2021-06-18T06:54:57.859Z</time>
      </trkpt>
      <trkpt lat="53.791618" lon="10.613823">
        <ele>58.506064</ele>
        <time>2021-06-18T06:55:04.873Z</time>
      </trkpt>
      <trkpt lat="53.791601" lon="10.613663">
        <ele>58.476400</ele>
        <time>2021-06-18T06:55:12.862Z</time>
      </trkpt>
      <trkpt lat="53.791582" lon="10.613511">
        <ele>58.448050</ele>
        <time>2021-06-18T06:55:18.871Z</time>
      </trkpt>
      <trkpt lat="53.791552" lon="10.613361">
        <ele>58.419153</ele>
        <time>2021-06-18T06:55:24.875Z</time>
      </trkpt>
      <trkpt lat="53.791535" lon="10.613204">
        <ele>58.390028</ele>
        <time>2021-06-18T06:55:30.869Z</time>
      </trkpt>
      <trkpt lat="53.791517" lon="10.613054">
        <ele>58.362098</ele>
        <time>2021-06-18T06:55:37.863Z</time>
      </trkpt>
      <trkpt lat="53.791489" lon="10.612888">
        <ele>58.330597</ele>
        <time>2021-06-18T06:55:46.859Z</time>
      </trkpt>
      <trkpt lat="53.791481" lon="10.612718">
        <ele>58.299479</ele>
        <time>2021-06-18T06:55:52.866Z</time>
      </trkpt>
      <trkpt lat="53.791484" lon="10.612553">
        <ele>58.269356</ele>
        <time>2021-06-18T06:55:59.869Z</time>
      </trkpt>
      <trkpt lat="53.791452" lon="10.612392">
        <ele>58.286267</ele>
        <time>2021-06-18T06:56:06.871Z</time>
      </trkpt>
      <trkpt lat="53.791418" lon="10.612222">
        <ele>58.455716</ele>
        <time>2021-06-18T06:56:12.867Z</time>
      </trkpt>
      <trkpt lat="53.791414" lon="10.612059">
        <ele>58.609740</ele>
        <time>2021-06-18T06:56:19.867Z</time>
      </trkpt>
      <trkpt lat="53.791387" lon="10.611898">
        <ele>58.767750</ele>
        <time>2021-06-18T06:56:26.863Z</time>
      </trkpt>
      <trkpt lat="53.791349" lon="10.611758">
        <ele>58.913212</ele>
        <time>2021-06-18T06:56:31.872Z</time>
      </trkpt>
      <trkpt lat="53.791313" lon="10.611607">
        <ele>59.066947</ele>
        <time>2021-06-18T06:56:38.869Z</time>
      </trkpt>
      <trkpt lat="53.791309" lon="10.611442">
        <ele>59.222859</ele>
        <time>2021-06-18T06:56:46.860Z</time>
      </trkpt>
      <trkpt lat="53.791296" lon="10.611285">
        <ele>59.372535</ele>
        <time>2021-06-18T06:56:53.864Z</time>
      </trkpt>
      <trkpt lat="53.791269" lon="10.611128">
        <ele>59.526916</ele>
        <time>2021-06-18T06:56:59.867Z</time>
      </trkpt>
      <trkpt lat="53.791245" lon="10.610960">
        <ele>59.690101</ele>
        <time>2021-06-18T06:57:07.864Z</time>
      </trkpt>
      <trkpt lat="53.791238" lon="10.610802">
        <ele>59.839691</ele>
        <time>2021-06-18T06:57:14.861Z</time>
      </trkpt>
      <trkpt lat="53.791226" lon="10.610624">
        <ele>60.008836</ele>
        <time>2021-06-18T06:57:21.864Z</time>
      </trkpt>
      <trkpt lat="53.791200" lon="10.610460">
        <ele>60.169151</ele>
        <time>2021-06-18T06:57:27.855Z</time>
      </trkpt>
      <trkpt lat="53.791192" lon="10.610307">
        <ele>60.314167</ele>
        <time>2021-06-18T06:57:33.858Z</time>
      </trkpt>
      <trkpt lat="53.791181" lon="10.610152">
        <ele>60.461559</ele>
        <time>2021-06-18T06:57:40.873Z</time>
      </trkpt>
      <trkpt lat="53.791162" lon="10.609999">
        <ele>60.609167</ele>
        <time>2021-06-18T06:57:45.866Z</time>
      </trkpt>
      <trkpt lat="53.791134" lon="10.609849">
        <ele>60.757688</ele>
        <time>2021-06-18T06:57:52.867Z</time>
      </trkpt>
      <trkpt lat="53.791098" lon="10.609700">
        <ele>60.909675</ele>
        <time>2021-06-18T06:57:59.853Z</time>
      </trkpt>
      <trkpt lat="53.791088" lon="10.609530">
        <ele>61.070970</ele>
        <time>2021-06-18T06:58:06.860Z</time>
      </trkpt>
      <trkpt lat="53.791073" lon="10.609366">
        <ele>61.115881</ele>
        <time>2021-06-18T06:58:13.864Z</time>
      </trkpt>
      <trkpt lat="53.791039" lon="10.609225">
        <ele>61.109301</ele>
        <time>2021-06-18T06:58:21.859Z</time>
      </trkpt>
      <trkpt lat="53.791032" lon="10.609056">
        <ele>61.101980</ele>
        <time>2021-06-18T06:58:28.861Z</time>
      </trkpt>
      <trkpt lat="53.791010" lon="10.608874">
        <ele>61.093953</ele>
        <time>2021-06-18T06:58:34.858Z</time>
      </trkpt>
      <trkpt lat="53.790973" lon="10.608733">
        <ele>61.087286</ele>
        <time>2021-06-18T06:58:40.870Z</time>
      </trkpt>
      <trkpt lat="53.790962" lon="10.608582">
        <ele>61.080712</ele>
        <time>2021-06-18T06:58:47.873Z</time>
      </trkpt>
      <trkpt lat="53.790948" lon="10.608424">
        <ele>61.073809</ele>
        <time>2021-06-18T06:58:53.863Z</time>
      </trkpt>
      <trkpt lat="53.790928" lon="10.608273">
        <ele>61.067122</ele>
        <time>2021-06-18T06:58:58.869Z</time>
      </trkpt>
      <trkpt lat="53.790914" lon="10.608105">
        <ele>61.059791</ele>
        <time>2021-06-18T06:59:05.875Z</time>
      </trkpt>
      <trkpt lat="53.790891" lon="10.607947">
        <ele>61.052759</ele>
        <time>2021-06-18T06:59:12.848Z</time>
      </trkpt>
      <trkpt lat="53.790876" lon="10.607791">
        <ele>61.045930</ele>
        <time>2021-06-18T06:59:21.858Z</time>
      </trkpt>
      <trkpt lat="53.790838" lon="10.607627">
        <ele>61.038317</ele>
        <time>2021-06-18T06:59:28.871Z</time>
      </trkpt>
      <trkpt lat="53.790805" lon="10.607449">
        <ele>61.030256</ele>
        <time>2021-06-18T06:59:34.859Z</time>
      </trkpt>
      <trkpt lat="53.790791" lon="10.607278">
        <ele>61.022796</ele>
        <time>2021-06-18T06:59:40.866Z</time>
      </trkpt>
      <trkpt lat="53.790772" lon="10.607129">
        <ele>61.016210</ele>
        <time>2021-06-18T06:59:46.867Z</time>
      </trkpt>
      <trkpt lat="53.790732" lon="10.606966">
        <ele>61.008583</ele>
        <time>2021-06-18T06:59:54.870Z</time>
      </trkpt>
      <trkpt lat="53.790724" lon="10.606797">
        <ele>61.001257</ele>
        <time>2021-06-18T07:00:01.849Z</time>
      </trkpt>
      <trkpt lat="53.790709" lon="10.606647">
        <ele>60.994683</ele>
        <time>2021-06-18T07:00:06.863Z</time>
      </trkpt>
      <trkpt lat="53.790685" lon="10.606481">
        <ele>61.016601</ele>
        <time>2021-06-18T07:00:12.860Z</time>
      </trkpt>
      <trkpt lat="53.790663" lon="10.606329">
        <ele>61.113626</ele>
        <time>2021-06-18T07:00:19.867Z</time>
      </trkpt>
      <trkpt lat="53.790634" lon="10.606177">
        <ele>61.212656</ele>
        <time>2021-06-18T07:00:26.872Z</time>
      </trkpt>
      <trkpt lat="53.790662" lon="10.606019">
        <ele>61.314926</ele>
        <time>2021-06-18T07:00:36.867Z</time>
      </trkpt>
      <trkpt lat="53.790670" lon="10.605864">
        <ele>61.411390</ele>
        <time>2021-06-18T07:00:49.867Z</time>
      </trkpt>
      <trkpt lat="53.790583" lon="10.605789">
        <ele>61.513855</ele>
        <time>2021-06-18T07:00:59.883Z</time>
      </trkpt>
      <trkpt lat="53.790527" lon="10.605647">
        <ele>61.619708</ele>
        <time>2021-06-18T07:01:09.875Z</time>
      </trkpt>
      <trkpt lat="53.790482" lon="10.605505">
        <ele>61.719614</ele>
        <time>2021-06-18T07:01:15.881Z</time>
      </trkpt>
      <trkpt lat="53.790410" lon="10.605377">
        <ele>61.829193</ele>
        <time>2021-06-18T07:01:22.866Z</time>
      </trkpt>
      <trkpt lat="53.790341" lon="10.605246">
        <ele>61.938008</ele>
        <time>2021-06-18T07:01:28.872Z</time>
      </trkpt>
      <trkpt lat="53.790277" lon="10.605106">
        <ele>62.047760</ele>
        <time>2021-06-18T07:01:34.853Z</time>
      </trkpt>
      <trkpt lat="53.790229" lon="10.604972">
        <ele>62.144919</ele>
        <time>2021-06-18T07:01:41.877Z</time>
      </trkpt>
      <trkpt lat="53.790156" lon="10.604848">
        <ele>62.253454</ele>
        <time>2021-06-18T07:01:48.866Z</time>
      </trkpt>
      <trkpt lat="53.790097" lon="10.604726">
        <ele>62.351206</ele>
        <time>2021-06-18T07:01:54.864Z</time>
      </trkpt>
      <trkpt lat="53.790034" lon="10.604603">
        <ele>62.452138</ele>
        <time>2021-06-18T07:02:01.875Z</time>
      </trkpt>
      <trkpt lat="53.789983" lon="10.604454">
        <ele>62.558903</ele>
        <time>2021-06-18T07:02:08.862Z</time>
      </trkpt>
      <trkpt lat="53.789935" lon="10.604322">
        <ele>62.655004</ele>
        <time>2021-06-18T07:02:14.866Z</time>
      </trkpt>
      <trkpt lat="53.789863" lon="10.604204">
        <ele>62.760181</ele>
        <time>2021-06-18T07:02:20.859Z</time>
      </trkpt>
      <trkpt lat="53.789782" lon="10.604083">
        <ele>62.873560</ele>
        <time>2021-06-18T07:02:26.876Z</time>
      </trkpt>
      <trkpt lat="53.789721" lon="10.603964">
        <ele>62.696579</ele>
        <time>2021-06-18T07:02:31.875Z</time>
      </trkpt>
      <trkpt lat="53.789658" lon="10.603854">
        <ele>62.515031</ele>
        <time>2021-06-18T07:02:37.865Z</time>
      </trkpt>
      <trkpt lat="53.789611" lon="10.603710">
        <ele>62.320084</ele>
        <time>2021-06-18T07:02:45.867Z</time>
      </trkpt>
      <trkpt lat="53.789546" lon="10.603577">
        <ele>62.115542</ele>
        <time>2021-06-18T07:02:52.876Z</time>
      </trkpt>
      <trkpt lat="53.789484" lon="10.603452">
        <ele>61.922135</ele>
        <time>2021-06-18T07:02:58.873Z</time>
      </trkpt>
      <trkpt lat="53.789420" lon="10.603326">
        <ele>61.725226</ele>
        <time>2021-06-18T07:03:04.869Z</time>
      </trkpt>
      <trkpt lat="53.789363" lon="10.603190">
        <ele>61.527631</ele>
        <time>2021-06-18T07:03:10.871Z</time>
      </trkpt>
      <trkpt lat="53.789309" lon="10.603048">
        <ele>61.327515</ele>
        <time>2021-06-18T07:03:17.861Z</time>
      </trkpt>
      <trkpt lat="53.789243" lon="10.602927">
        <ele>61.132362</ele>
        <time>2021-06-18T07:03:25.871Z</time>
      </trkpt>
      <trkpt lat="53.789176" lon="10.602804">
        <ele>60.934106</ele>
        <time>2021-06-18T07:03:32.876Z</time>
      </trkpt>
      <trkpt lat="53.789107" lon="10.602687">
        <ele>60.738203</ele>
        <time>2021-06-18T07:03:39.861Z</time>
      </trkpt>
      <trkpt lat="53.789043" lon="10.602576">
        <ele>60.554406</ele>
        <time>2021-06-18T07:03:45.873Z</time>
      </trkpt>
      <trkpt lat="53.788992" lon="10.602430">
        <ele>60.353416</ele>
        <time>2021-06-18T07:03:52.866Z</time>
      </trkpt>
      <trkpt lat="53.788933" lon="10.602282">
        <ele>60.141842</ele>
        <time>2021-06-18T07:04:00.857Z</time>
      </trkpt>
      <trkpt lat="53.788862" lon="10.602184">
        <ele>59.958080</ele>
        <time>2021-06-18T07:04:08.870Z</time>
      </trkpt>
      <trkpt lat="53.788797" lon="10.602049">
        <ele>59.751704</ele>
        <time>2021-06-18T07:04:15.871Z</time>
      </trkpt>
      <trkpt lat="53.788812" lon="10.601882">
        <ele>59.551536</ele>
        <time>2021-06-18T07:04:21.870Z</time>
      </trkpt>
      <trkpt lat="53.788878" lon="10.601735">
        <ele>59.332744</ele>
        <time>2021-06-18T07:04:27.864Z</time>
      </trkpt>
      <trkpt lat="53.788954" lon="10.601641">
        <ele>59.251665</ele>
        <time>2021-06-18T07:04:34.864Z</time>
      </trkpt>
      <trkpt lat="53.789034" lon="10.601536">
        <ele>59.223442</ele>
        <time>2021-06-18T07:04:41.868Z</time>
      </trkpt>
      <trkpt lat="53.789095" lon="10.601422">
        <ele>59.198109</ele>
        <time>2021-06-18T07:04:52.864Z</time>
      </trkpt>
      <trkpt lat="53.789148" lon="10.601261">
        <ele>59.167752</ele>
        <time>2021-06-18T07:04:56.862Z</time>
      </trkpt>
      <trkpt lat="53.789206" lon="10.601115">
        <ele>59.138774</ele>
        <time>2021-06-18T07:05:01.876Z</time>
      </trkpt>
      <trkpt lat="53.789272" lon="10.600983">
        <ele>59.110292</ele>
        <time>2021-06-18T07:05:07.857Z</time>
      </trkpt>
      <trkpt lat="53.789339" lon="10.600874">
        <ele>59.084384</ele>
        <time>2021-06-18T07:05:12.870Z</time>
      </trkpt>
      <trkpt lat="53.789411" lon="10.600781">
        <ele>59.059134</ele>
        <time>2021-06-18T07:05:17.878Z</time>
      </trkpt>
      <trkpt lat="53.789485" lon="10.600671">
        <ele>59.031677</ele>
        <time>2021-06-18T07:05:24.877Z</time>
      </trkpt>
      <trkpt lat="53.789495" lon="10.600509">
        <ele>59.004850</ele>
        <time>2021-06-18T07:05:32.857Z</time>
      </trkpt>
      <trkpt lat="53.789486" lon="10.600352">
        <ele>58.978870</ele>
        <time>2021-06-18T07:05:40.866Z</time>
      </trkpt>
      <trkpt lat="53.789533" lon="10.600215">
        <ele>58.952777</ele>
        <time>2021-06-18T07:05:50.859Z</time>
      </trkpt>
      <trkpt lat="53.789487" lon="10.600066">
        <ele>58.925088</ele>
        <time>2021-06-18T07:05:57.874Z</time>
      </trkpt>
      <trkpt lat="53.789441" lon="10.599931">
        <ele>58.899419</ele>
        <time>2021-06-18T07:06:04.864Z</time>
      </trkpt>
      <trkpt lat="53.789416" lon="10.599765">
        <ele>58.871204</ele>
        <time>2021-06-18T07:06:10.867Z</time>
      </trkpt>
      <trkpt lat="53.789377" lon="10.599623">
        <ele>58.845413</ele>
        <time>2021-06-18T07:06:15.879Z</time>
      </trkpt>
      <trkpt lat="53.789327" lon="10.599490">
        <ele>58.819448</ele>
        <time>2021-06-18T07:06:20.867Z</time>
      </trkpt>
      <trkpt lat="53.789286" lon="10.599349">
        <ele>58.793564</ele>
        <time>2021-06-18T07:06:25.872Z</time>
      </trkpt>
      <trkpt lat="53.789255" lon="10.599184">
        <ele>58.788731</ele>
        <time>2021-06-18T07:06:32.862Z</time>
      </trkpt>
      <trkpt lat="53.789261" lon="10.599029">
        <ele>59.001024</ele>
        <time>2021-06-18T07:06:42.863Z</time>
      </trkpt>
      <trkpt lat="53.789252" lon="10.598865">
        <ele>59.226128</ele>
        <time>2021-06-18T07:06:52.879Z</time>
      </trkpt>
      <trkpt lat="53.789250" lon="10.598711">
        <ele>59.436651</ele>
        <time>2021-06-18T07:06:56.861Z</time>
      </trkpt>
      <trkpt lat="53.789247" lon="10.598556">
        <ele>59.648604</ele>
        <time>2021-06-18T07:07:01.858Z</time>
      </trkpt>
      <trkpt lat="53.789213" lon="10.598396">
        <ele>59.880993</ele>
        <time>2021-06-18T07:07:08.862Z</time>
      </trkpt>
      <trkpt lat="53.789194" lon="10.598230">
        <ele>60.112085</ele>
        <time>2021-06-18T07:07:16.864Z</time>
      </trkpt>
      <trkpt lat="53.789206" lon="10.598056">
        <ele>60.351506</ele>
        <time>2021-06-18T07:07:23.866Z</time>
      </trkpt>
      <trkpt lat="53.789205" lon="10.597897">
        <ele>60.568824</ele>
        <time>2021-06-18T07:07:28.859Z</time>
      </trkpt>
      <trkpt lat="53.789190" lon="10.597730">
        <ele>60.799687</ele>
        <time>2021-06-18T07:07:35.866Z</time>
      </trkpt>
      <trkpt lat="53.789147" lon="10.597580">
        <ele>61.027554</ele>
        <time>2021-06-18T07:07:40.867Z</time>
      </trkpt>
      <trkpt lat="53.789114" lon="10.597430">
        <ele>61.246314</ele>
        <time>2021-06-18T07:07:45.864Z</time>
      </trkpt>
      <trkpt lat="53.789084" lon="10.597263">
        <ele>61.484873</ele>
        <time>2021-06-18T07:07:50.873Z</time>
      </trkpt>
      <trkpt lat="53.789073" lon="10.597101">
        <ele>61.707738</ele>
        <time>2021-06-18T07:07:56.866Z</time>
      </trkpt>
      <trkpt lat="53.789063" lon="10.596945">
        <ele>61.922196</ele>
        <time>2021-06-18T07:08:03.859Z</time>
      </trkpt>
      <trkpt lat="53.789073" lon="10.596492">
        <ele>62.541746</ele>
        <time>2021-06-18T07:08:35.906Z</time>
      </trkpt>
      <trkpt lat="53.789160" lon="10.596438">
        <ele>62.756123</ele>
        <time>2021-06-18T07:08:43.866Z</time>
      </trkpt>
      <trkpt lat="53.789245" lon="10.596378">
        <ele>62.940285</ele>
        <time>2021-06-18T07:08:50.862Z</time>
      </trkpt>
      <trkpt lat="53.789317" lon="10.596284">
        <ele>63.000443</ele>
        <time>2021-06-18T07:08:57.859Z</time>
      </trkpt>
      <trkpt lat="53.789417" lon="10.596142">
        <ele>63.086800</ele>
        <time>2021-06-18T07:09:03.870Z</time>
      </trkpt>
      <trkpt lat="53.789509" lon="10.596056">
        <ele>63.156332</ele>
        <time>2021-06-18T07:09:07.862Z</time>
      </trkpt>
      <trkpt lat="53.789579" lon="10.595942">
        <ele>63.220598</ele>
        <time>2021-06-18T07:09:13.872Z</time>
      </trkpt>
      <trkpt lat="53.789655" lon="10.595830">
        <ele>63.287265</ele>
        <time>2021-06-18T07:09:25.868Z</time>
      </trkpt>
      <trkpt lat="53.789727" lon="10.595734">
        <ele>63.347903</ele>
        <time>2021-06-18T07:09:33.867Z</time>
      </trkpt>
      <trkpt lat="53.789819" lon="10.595663">
        <ele>63.414798</ele>
        <time>2021-06-18T07:09:40.866Z</time>
      </trkpt>
      <trkpt lat="53.789888" lon="10.595543">
        <ele>63.480248</ele>
        <time>2021-06-18T07:09:46.879Z</time>
      </trkpt>
      <trkpt lat="53.789958" lon="10.595435">
        <ele>63.542911</ele>
        <time>2021-06-18T07:09:52.871Z</time>
      </trkpt>
      <trkpt lat="53.790041" lon="10.595373">
        <ele>63.602933</ele>
        <time>2021-06-18T07:09:57.856Z</time>
      </trkpt>
      <trkpt lat="53.790114" lon="10.595272">
        <ele>63.665310</ele>
        <time>2021-06-18T07:10:03.867Z</time>
      </trkpt>
      <trkpt lat="53.790187" lon="10.595166">
        <ele>63.728942</ele>
        <time>2021-06-18T07:10:10.866Z</time>
      </trkpt>
      <trkpt lat="53.790251" lon="10.595052">
        <ele>63.790409</ele>
        <time>2021-06-18T07:10:15.863Z</time>
      </trkpt>
      <trkpt lat="53.790319" lon="10.594921">
        <ele>63.858566</ele>
        <time>2021-06-18T07:10:21.868Z</time>
      </trkpt>
      <trkpt lat="53.790400" lon="10.594835">
        <ele>63.921825</ele>
        <time>2021-06-18T07:10:29.858Z</time>
      </trkpt>
      <trkpt lat="53.790485" lon="10.594775">
        <ele>63.982755</ele>
        <time>2021-06-18T07:10:36.871Z</time>
      </trkpt>
      <trkpt lat="53.790573" lon="10.594698">
        <ele>64.048295</ele>
        <time>2021-06-18T07:10:43.863Z</time>
      </trkpt>
      <trkpt lat="53.790652" lon="10.594598">
        <ele>64.113558</ele>
        <time>2021-06-18T07:10:50.871Z</time>
      </trkpt>
      <trkpt lat="53.790713" lon="10.594462">
        <ele>63.967631</ele>
        <time>2021-06-18T07:10:54.870Z</time>
      </trkpt>
      <trkpt lat="53.790780" lon="10.594341">
        <ele>63.808643</ele>
        <time>2021-06-18T07:11:01.861Z</time>
      </trkpt>
      <trkpt lat="53.790849" lon="10.594225">
        <ele>63.650831</ele>
        <time>2021-06-18T07:11:07.874Z</time>
      </trkpt>
      <trkpt lat="53.790926" lon="10.594115">
        <ele>63.487325</ele>
        <time>2021-06-18T07:11:15.878Z</time>
      </trkpt>
      <trkpt lat="53.791002" lon="10.594020">
        <ele>63.334010</ele>
        <time>2021-06-18T07:11:21.882Z</time>
      </trkpt>
      <trkpt lat="53.791084" lon="10.593944">
        <ele>63.182299</ele>
        <time>2021-06-18T07:11:27.868Z</time>
      </trkpt>
      <trkpt lat="53.791167" lon="10.593874">
        <ele>63.031815</ele>
        <time>2021-06-18T07:11:33.862Z</time>
      </trkpt>
      <trkpt lat="53.791246" lon="10.593783">
        <ele>62.876747</ele>
        <time>2021-06-18T07:11:39.863Z</time>
      </trkpt>
      <trkpt lat="53.791331" lon="10.593686">
        <ele>62.710391</ele>
        <time>2021-06-18T07:11:45.871Z</time>
      </trkpt>
      <trkpt lat="53.791417" lon="10.593591">
        <ele>62.543743</ele>
        <time>2021-06-18T07:11:53.872Z</time>
      </trkpt>
      <trkpt lat="53.791490" lon="10.593472">
        <ele>62.379280</ele>
        <time>2021-06-18T07:12:00.865Z</time>
      </trkpt>
      <trkpt lat="53.791562" lon="10.593342">
        <ele>62.208449</ele>
        <time>2021-06-18T07:12:06.865Z</time>
      </trkpt>
      <trkpt lat="53.791620" lon="10.593211">
        <ele>62.051510</ele>
        <time>2021-06-18T07:12:12.867Z</time>
      </trkpt>
      <trkpt lat="53.791669" lon="10.593056">
        <ele>61.882982</ele>
        <time>2021-06-18T07:12:18.863Z</time>
      </trkpt>
      <trkpt lat="53.791724" lon="10.592905">
        <ele>61.712923</ele>
        <time>2021-06-18T07:12:25.871Z</time>
      </trkpt>
      <trkpt lat="53.791793" lon="10.592782">
        <ele>61.550314</ele>
        <time>2021-06-18T07:12:31.863Z</time>
      </trkpt>
      <trkpt lat="53.791871" lon="10.592672">
        <ele>61.385566</ele>
        <time>2021-06-18T07:12:37.864Z</time>
      </trkpt>
      <trkpt lat="53.791934" lon="10.592558">
        <ele>61.235915</ele>
        <time>2021-06-18T07:12:44.873Z</time>
      </trkpt>
      <trkpt lat="53.792022" lon="10.592505">
        <ele>61.048476</ele>
        <time>2021-06-18T07:12:50.872Z</time>
      </trkpt>
      <trkpt lat="53.792116" lon="10.592505">
        <ele>60.848565</ele>
        <time>2021-06-18T07:12:55.876Z</time>
      </trkpt>
      <trkpt lat="53.792214" lon="10.592530">
        <ele>60.637794</ele>
        <time>2021-06-18T07:13:02.873Z</time>
      </trkpt>
      <trkpt lat="53.792305" lon="10.592526">
        <ele>60.444198</ele>
        <time>2021-06-18T07:13:09.859Z</time>
      </trkpt>
      <trkpt lat="53.792396" lon="10.592484">
        <ele>60.243604</ele>
        <time>2021-06-18T07:13:15.869Z</time>
      </trkpt>
      <trkpt lat="53.792487" lon="10.592432">
        <ele>60.039345</ele>
        <time>2021-06-18T07:13:21.874Z</time>
      </trkpt>
      <trkpt lat="53.792585" lon="10.592405">
        <ele>59.828185</ele>
        <time>2021-06-18T07:13:27.867Z</time>
      </trkpt>
      <trkpt lat="53.792688" lon="10.592358">
        <ele>59.601316</ele>
        <time>2021-06-18T07:13:33.874Z</time>
      </trkpt>
      <trkpt lat="53.792777" lon="10.592312">
        <ele>59.403414</ele>
        <time>2021-06-18T07:13:39.868Z</time>
      </trkpt>
      <trkpt lat="53.792876" lon="10.592273">
        <ele>59.187244</ele>
        <time>2021-06-18T07:13:46.877Z</time>
      </trkpt>
      <trkpt lat="53.792964" lon="10.592235">
        <ele>58.994101</ele>
        <time>2021-06-18T07:13:51.864Z</time>
      </trkpt>
      <trkpt lat="53.793054" lon="10.592198">
        <ele>58.797134</ele>
        <time>2021-06-18T07:13:56.865Z</time>
      </trkpt>
      <trkpt lat="53.793146" lon="10.592171">
        <ele>58.598559</ele>
        <time>2021-06-18T07:14:03.864Z</time>
      </trkpt>
      <trkpt lat="53.793234" lon="10.592126">
        <ele>58.403056</ele>
        <time>2021-06-18T07:14:09.862Z</time>
      </trkpt>
      <trkpt lat="53.793323" lon="10.592083">
        <ele>58.206222</ele>
        <time>2021-06-18T07:14:15.872Z</time>
      </trkpt>
      <trkpt lat="53.793418" lon="10.592045">
        <ele>57.998621</ele>
        <time>2021-06-18T07:14:21.871Z</time>
      </trkpt>
      <trkpt lat="53.793510" lon="10.591985">
        <ele>57.788947</ele>
        <time>2021-06-18T07:14:28.873Z</time>
      </trkpt>
      <trkpt lat="53.793597" lon="10.591914">
        <ele>57.583547</ele>
        <time>2021-06-18T07:14:34.870Z</time>
      </trkpt>
      <trkpt lat="53.793694" lon="10.591866">
        <ele>57.379330</ele>
        <time>2021-06-18T07:14:40.876Z</time>
      </trkpt>
      <trkpt lat="53.793792" lon="10.591817">
        <ele>57.548596</ele>
        <time>2021-06-18T07:14:47.867Z</time>
      </trkpt>
      <trkpt lat="53.793888" lon="10.591758">
        <ele>57.717771</ele>
        <time>2021-06-18T07:14:54.862Z</time>
      </trkpt>
      <trkpt lat="53.793982" lon="10.591708">
        <ele>57.880984</ele>
        <time>2021-06-18T07:15:00.873Z</time>
      </trkpt>
      <trkpt lat="53.794070" lon="10.591631">
        <ele>58.045072</ele>
        <time>2021-06-18T07:15:07.880Z</time>
      </trkpt>
      <trkpt lat="53.794160" lon="10.591546">
        <ele>58.215784</ele>
        <time>2021-06-18T07:15:13.863Z</time>
      </trkpt>
      <trkpt lat="53.794231" lon="10.591429">
        <ele>58.379910</ele>
        <time>2021-06-18T07:15:20.853Z</time>
      </trkpt>
      <trkpt lat="53.794310" lon="10.591351">
        <ele>58.531400</ele>
        <time>2021-06-18T07:15:27.876Z</time>
      </trkpt>
      <trkpt lat="53.794390" lon="10.591265">
        <ele>58.688376</ele>
        <time>2021-06-18T07:15:33.876Z</time>
      </trkpt>
      <trkpt lat="53.794463" lon="10.591169">
        <ele>58.841494</ele>
        <time>2021-06-18T07:15:40.846Z</time>
      </trkpt>
      <trkpt lat="53.794535" lon="10.591064">
        <ele>58.998908</ele>
        <time>2021-06-18T07:15:46.861Z</time>
      </trkpt>
      <trkpt lat="53.794618" lon="10.590991">
        <ele>59.153842</ele>
        <time>2021-06-18T07:15:51.871Z</time>
      </trkpt>
      <trkpt lat="53.794703" lon="10.590909">
        <ele>59.315896</ele>
        <time>2021-06-18T07:15:57.871Z</time>
      </trkpt>
      <trkpt lat="53.794785" lon="10.590811">
        <ele>59.482162</ele>
        <time>2021-06-18T07:16:08.865Z</time>
      </trkpt>
      <trkpt lat="53.794878" lon="10.590718">
        <ele>59.661081</ele>
        <time>2021-06-18T07:16:14.869Z</time>
      </trkpt>
      <trkpt lat="53.794964" lon="10.590628">
        <ele>59.828557</ele>
        <time>2021-06-18T07:16:21.865Z</time>
      </trkpt>
      <trkpt lat="53.795043" lon="10.590545">
        <ele>59.982568</ele>
        <time>2021-06-18T07:16:27.881Z</time>
      </trkpt>
      <trkpt lat="53.795129" lon="10.590458">
        <ele>60.148519</ele>
        <time>2021-06-18T07:16:34.876Z</time>
      </trkpt>
      <trkpt lat="53.795228" lon="10.590399">
        <ele>60.322374</ele>
        <time>2021-06-18T07:16:40.882Z</time>
      </trkpt>
      <trkpt lat="53.795322" lon="10.590356">
        <ele>60.460075</ele>
        <time>2021-06-18T07:16:45.874Z</time>
      </trkpt>
      <trkpt lat="53.795405" lon="10.590264">
        <ele>60.594503</ele>
        <time>2021-06-18T07:16:52.864Z</time>
      </trkpt>
      <trkpt lat="53.795481" lon="10.590177">
        <ele>60.718816</ele>
        <time>2021-06-18T07:16:58.868Z</time>
      </trkpt>
      <trkpt lat="53.795472" lon="10.590017">
        <ele>60.847455</ele>
        <time>2021-06-18T07:17:05.868Z</time>
      </trkpt>
      <trkpt lat="53.795434" lon="10.589870">
        <ele>60.975883</ele>
        <time>2021-06-18T07:17:10.884Z</time>
      </trkpt>
      <trkpt lat="53.795400" lon="10.589719">
        <ele>61.105222</ele>
        <time>2021-06-18T07:17:16.864Z</time>
      </trkpt>
      <trkpt lat="53.795369" lon="10.589572">
        <ele>61.230151</ele>
        <time>2021-06-18T07:17:22.866Z</time>
      </trkpt>
      <trkpt lat="53.795347" lon="10.589407">
        <ele>61.365535</ele>
        <time>2021-06-18T07:17:29.876Z</time>
      </trkpt>
      <trkpt lat="53.795311" lon="10.589266">
        <ele>61.488479</ele>
        <time>2021-06-18T07:17:35.882Z</time>
      </trkpt>
      <trkpt lat="53.795267" lon="10.589129">
        <ele>61.613291</ele>
        <time>2021-06-18T07:17:40.887Z</time>
      </trkpt>
      <trkpt lat="53.795227" lon="10.588977">
        <ele>61.746476</ele>
        <time>2021-06-18T07:17:46.860Z</time>
      </trkpt>
      <trkpt lat="53.795191" lon="10.588838">
        <ele>61.867952</ele>
        <time>2021-06-18T07:17:52.880Z</time>
      </trkpt>
      <trkpt lat="53.795160" lon="10.588676">
        <ele>62.004248</ele>
        <time>2021-06-18T07:17:58.872Z</time>
      </trkpt>
      <trkpt lat="53.795115" lon="10.588530">
        <ele>62.136055</ele>
        <time>2021-06-18T07:18:04.892Z</time>
      </trkpt>
      <trkpt lat="53.795080" lon="10.588373">
        <ele>62.270366</ele>
        <time>2021-06-18T07:18:11.869Z</time>
      </trkpt>
      <trkpt lat="53.795038" lon="10.588225">
        <ele>62.401784</ele>
        <time>2021-06-18T07:18:18.871Z</time>
      </trkpt>
      <trkpt lat="53.795004" lon="10.588066">
        <ele>62.537126</ele>
        <time>2021-06-18T07:18:24.875Z</time>
      </trkpt>
      <trkpt lat="53.794981" lon="10.587909">
        <ele>62.666593</ele>
        <time>2021-06-18T07:18:29.872Z</time>
      </trkpt>
      <trkpt lat="53.794949" lon="10.587753">
        <ele>62.792580</ele>
        <time>2021-06-18T07:18:36.867Z</time>
      </trkpt>
      <trkpt lat="53.794903" lon="10.587605">
        <ele>62.816483</ele>
        <time>2021-06-18T07:18:42.869Z</time>
      </trkpt>
      <trkpt lat="53.794867" lon="10.587456">
        <ele>62.839492</ele>
        <time>2021-06-18T07:18:48.877Z</time>
      </trkpt>
      <trkpt lat="53.794832" lon="10.587299">
        <ele>62.863477</ele>
        <time>2021-06-18T07:18:53.875Z</time>
      </trkpt>
      <trkpt lat="53.794787" lon="10.587149">
        <ele>62.887523</ele>
        <time>2021-06-18T07:18:59.868Z</time>
      </trkpt>
      <trkpt lat="53.794748" lon="10.586994">
        <ele>62.911603</ele>
        <time>2021-06-18T07:19:05.871Z</time>
      </trkpt>
      <trkpt lat="53.794707" lon="10.586841">
        <ele>62.935616</ele>
        <time>2021-06-18T07:19:12.870Z</time>
      </trkpt>
      <trkpt lat="53.794672" lon="10.586698">
        <ele>62.957740</ele>
        <time>2021-06-18T07:19:18.872Z</time>
      </trkpt>
      <trkpt lat="53.794639" lon="10.586549">
        <ele>62.980485</ele>
        <time>2021-06-18T07:19:23.885Z</time>
      </trkpt>
      <trkpt lat="53.794595" lon="10.586413">
        <ele>63.002648</ele>
        <time>2021-06-18T07:19:29.881Z</time>
      </trkpt>
      <trkpt lat="53.794544" lon="10.586272">
        <ele>63.026279</ele>
        <time>2021-06-18T07:19:37.870Z</time>
      </trkpt>
      <trkpt lat="53.794525" lon="10.586117">
        <ele>63.048905</ele>
        <time>2021-06-18T07:19:43.879Z</time>
      </trkpt>
      <trkpt lat="53.794519" lon="10.585959">
        <ele>63.071535</ele>
        <time>2021-06-18T07:19:51.864Z</time>
      </trkpt>
      <trkpt lat="53.794462" lon="10.585810">
        <ele>63.096908</ele>
        <time>2021-06-18T07:19:57.861Z</time>
      </trkpt>
      <trkpt lat="53.794415" lon="10.585669">
        <ele>63.120048</ele>
        <time>2021-06-18T07:20:03.864Z</time>
      </trkpt>
      <trkpt lat="53.794394" lon="10.585507">
        <ele>63.143754</ele>
        <time>2021-06-18T07:20:09.876Z</time>
      </trkpt>
      <trkpt lat="53.794348" lon="10.585370">
        <ele>63.166278</ele>
        <time>2021-06-18T07:20:14.871Z</time>
      </trkpt>
      <trkpt lat="53.794309" lon="10.585213">
        <ele>63.190621</ele>
        <time>2021-06-18T07:20:20.873Z</time>
      </trkpt>
      <trkpt lat="53.794295" lon="10.585051">
        <ele>63.214023</ele>
        <time>2021-06-18T07:20:27.884Z</time>
      </trkpt>
      <trkpt lat="53.794269" lon="10.584885">
        <ele>63.248776</ele>
        <time>2021-06-18T07:20:33.873Z</time>
      </trkpt>
      <trkpt lat="53.794218" lon="10.584742">
        <ele>63.292777</ele>
        <time>2021-06-18T07:20:40.871Z</time>
      </trkpt>
      <trkpt lat="53.794183" lon="10.584579">
        <ele>63.338461</ele>
        <time>2021-06-18T07:20:47.867Z</time>
      </trkpt>
      <trkpt lat="53.794155" lon="10.584429">
        <ele>63.379898</ele>
        <time>2021-06-18T07:20:52.874Z</time>
      </trkpt>
      <trkpt lat="53.794136" lon="10.584263">
        <ele>63.424437</ele>
        <time>2021-06-18T07:20:59.861Z</time>
      </trkpt>
      <trkpt lat="53.794102" lon="10.584113">
        <ele>63.466757</ele>
        <time>2021-06-18T07:21:05.871Z</time>
      </trkpt>
      <trkpt lat="53.794059" lon="10.583954">
        <ele>63.512820</ele>
        <time>2021-06-18T07:21:12.868Z</time>
      </trkpt>
      <trkpt lat="53.794008" lon="10.583809">
        <ele>63.557272</ele>
        <time>2021-06-18T07:21:18.877Z</time>
      </trkpt>
      <trkpt lat="53.793960" lon="10.583669">
        <ele>63.599911</ele>
        <time>2021-06-18T07:21:24.862Z</time>
      </trkpt>
      <trkpt lat="53.793930" lon="10.583522">
        <ele>63.640878</ele>
        <time>2021-06-18T07:21:29.871Z</time>
      </trkpt>
      <trkpt lat="53.793904" lon="10.583369">
        <ele>63.682815</ele>
        <time>2021-06-18T07:21:36.868Z</time>
      </trkpt>
      <trkpt lat="53.793880" lon="10.583197">
        <ele>63.729368</ele>
        <time>2021-06-18T07:21:43.867Z</time>
      </trkpt>
      <trkpt lat="53.793842" lon="10.583036">
        <ele>63.775037</ele>
        <time>2021-06-18T07:21:49.872Z</time>
      </trkpt>
      <trkpt lat="53.793806" lon="10.582883">
        <ele>63.818418</ele>
        <time>2021-06-18T07:21:56.876Z</time>
      </trkpt>
      <trkpt lat="53.793754" lon="10.582739">
        <ele>63.862876</ele>
        <time>2021-06-18T07:22:03.882Z</time>
      </trkpt>
      <trkpt lat="53.793721" lon="10.582593">
        <ele>63.904053</ele>
        <time>2021-06-18T07:22:10.876Z</time>
      </trkpt>
      <trkpt lat="53.793699" lon="10.582435">
        <ele>63.946812</ele>
        <time>2021-06-18T07:22:16.870Z</time>
      </trkpt>
      <trkpt lat="53.793674" lon="10.582285">
        <ele>63.987866</ele>
        <time>2021-06-18T07:22:22.878Z</time>
      </trkpt>
      <trkpt lat="53.793633" lon="10.582145">
        <ele>64.027787</ele>
        <time>2021-06-18T07:22:27.876Z</time>
      </trkpt>
      <trkpt lat="53.793601" lon="10.581985">
        <ele>63.960585</ele>
        <time>2021-06-18T07:22:33.870Z</time>
      </trkpt>
      <trkpt lat="53.793581" lon="10.581823">
        <ele>63.894743</ele>
        <time>2021-06-18T07:22:40.867Z</time>
      </trkpt>
      <trkpt lat="53.793547" lon="10.581678">
        <ele>63.832679</ele>
        <time>2021-06-18T07:22:47.860Z</time>
      </trkpt>
      <trkpt lat="53.793502" lon="10.581542">
        <ele>63.770664</ele>
        <time>2021-06-18T07:22:53.872Z</time>
      </trkpt>
      <trkpt lat="53.793475" lon="10.581373">
        <ele>63.701014</ele>
        <time>2021-06-18T07:22:59.869Z</time>
      </trkpt>
      <trkpt lat="53.793443" lon="10.581210">
        <ele>63.632680</ele>
        <time>2021-06-18T07:23:06.870Z</time>
      </trkpt>
      <trkpt lat="53.793399" lon="10.581057">
        <ele>63.564981</ele>
        <time>2021-06-18T07:23:13.862Z</time>
      </trkpt>
      <trkpt lat="53.793354" lon="10.580921">
        <ele>63.502965</ele>
        <time>2021-06-18T07:23:18.878Z</time>
      </trkpt>
      <trkpt lat="53.793322" lon="10.580777">
        <ele>63.441757</ele>
        <time>2021-06-18T07:23:23.871Z</time>
      </trkpt>
      <trkpt lat="53.793281" lon="10.580624">
        <ele>63.374918</ele>
        <time>2021-06-18T07:23:30.872Z</time>
      </trkpt>
      <trkpt lat="53.793247" lon="10.580476">
        <ele>63.311742</ele>
        <time>2021-06-18T07:23:36.880Z</time>
      </trkpt>
      <trkpt lat="53.793208" lon="10.580316">
        <ele>63.242882</ele>
        <time>2021-06-18T07:23:43.864Z</time>
      </trkpt>
      <trkpt lat="53.793155" lon="10.580173">
        <ele>63.175721</ele>
        <time>2021-06-18T07:23:50.875Z</time>
      </trkpt>
      <trkpt lat="53.793143" lon="10.579998">
        <ele>63.105632</ele>
        <time>2021-06-18T07:23:57.869Z</time>
      </trkpt>
      <trkpt lat="53.793130" lon="10.579828">
        <ele>63.037435</ele>
        <time>2021-06-18T07:24:04.877Z</time>
      </trkpt>
      <trkpt lat="53.793085" lon="10.579685">
        <ele>62.972975</ele>
        <time>2021-06-18T07:24:10.880Z</time>
      </trkpt>
      <trkpt lat="53.793044" lon="10.579549">
        <ele>62.912231</ele>
        <time>2021-06-18T07:24:16.871Z</time>
      </trkpt>
      <trkpt lat="53.793000" lon="10.579386">
        <ele>62.840933</ele>
        <time>2021-06-18T07:24:22.871Z</time>
      </trkpt>
      <trkpt lat="53.792973" lon="10.579238">
        <ele>62.709730</ele>
        <time>2021-06-18T07:24:29.867Z</time>
      </trkpt>
      <trkpt lat="53.792939" lon="10.579074">
        <ele>62.513451</ele>
        <time>2021-06-18T07:24:37.877Z</time>
      </trkpt>
      <trkpt lat="53.792881" lon="10.578934">
        <ele>62.320342</ele>
        <time>2021-06-18T07:24:43.860Z</time>
      </trkpt>
      <trkpt lat="53.792846" lon="10.578783">
        <ele>62.137161</ele>
        <time>2021-06-18T07:24:49.867Z</time>
      </trkpt>
      <trkpt lat="53.792812" lon="10.578637">
        <ele>61.959933</ele>
        <time>2021-06-18T07:24:55.867Z</time>
      </trkpt>
      <trkpt lat="53.792768" lon="10.578494">
        <ele>61.777849</ele>
        <time>2021-06-18T07:25:01.874Z</time>
      </trkpt>
      <trkpt lat="53.792731" lon="10.578335">
        <ele>61.584860</ele>
        <time>2021-06-18T07:25:07.871Z</time>
      </trkpt>
      <trkpt lat="53.792694" lon="10.578190">
        <ele>61.406487</ele>
        <time>2021-06-18T07:25:14.878Z</time>
      </trkpt>
      <trkpt lat="53.792653" lon="10.578041">
        <ele>61.220861</ele>
        <time>2021-06-18T07:25:21.873Z</time>
      </trkpt>
      <trkpt lat="53.792616" lon="10.577899">
        <ele>61.045592</ele>
        <time>2021-06-18T07:25:27.877Z</time>
      </trkpt>
      <trkpt lat="53.792573" lon="10.577758">
        <ele>60.866393</ele>
        <time>2021-06-18T07:25:34.862Z</time>
      </trkpt>
      <trkpt lat="53.792547" lon="10.577600">
        <ele>60.681169</ele>
        <time>2021-06-18T07:25:40.868Z</time>
      </trkpt>
      <trkpt lat="53.792519" lon="10.577437">
        <ele>60.489467</ele>
        <time>2021-06-18T07:25:46.889Z</time>
      </trkpt>
      <trkpt lat="53.792429" lon="10.577443">
        <ele>60.317275</ele>
        <time>2021-06-18T07:25:52.869Z</time>
      </trkpt>
      <trkpt lat="53.792341" lon="10.577502">
        <ele>60.136325</ele>
        <time>2021-06-18T07:25:59.870Z</time>
      </trkpt>
      <trkpt lat="53.792250" lon="10.577558">
        <ele>59.951216</ele>
        <time>2021-06-18T07:26:05.879Z</time>
      </trkpt>
      <trkpt lat="53.792150" lon="10.577591">
        <ele>59.756440</ele>
        <time>2021-06-18T07:26:11.868Z</time>
      </trkpt>
      <trkpt lat="53.792067" lon="10.577654">
        <ele>59.582543</ele>
        <time>2021-06-18T07:26:17.876Z</time>
      </trkpt>
      <trkpt lat="53.791992" lon="10.577748">
        <ele>59.404140</ele>
        <time>2021-06-18T07:26:23.873Z</time>
      </trkpt>
      <trkpt lat="53.791908" lon="10.577839">
        <ele>59.459645</ele>
        <time>2021-06-18T07:26:29.864Z</time>
      </trkpt>
      <trkpt lat="53.791837" lon="10.577938">
        <ele>59.546021</ele>
        <time>2021-06-18T07:26:35.882Z</time>
      </trkpt>
      <trkpt lat="53.791756" lon="10.578050">
        <ele>59.644230</ele>
        <time>2021-06-18T07:26:41.882Z</time>
      </trkpt>
      <trkpt lat="53.791685" lon="10.578154">
        <ele>59.732396</ele>
        <time>2021-06-18T07:26:48.879Z</time>
      </trkpt>
      <trkpt lat="53.791607" lon="10.578269">
        <ele>59.829525</ele>
        <time>2021-06-18T07:26:55.880Z</time>
      </trkpt>
      <trkpt lat="53.791548" lon="10.578401">
        <ele>59.921345</ele>
        <time>2021-06-18T07:27:01.879Z</time>
      </trkpt>
      <trkpt lat="53.791498" lon="10.578528">
        <ele>60.006005</ele>
        <time>2021-06-18T07:27:06.862Z</time>
      </trkpt>
      <trkpt lat="53.791437" lon="10.578669">
        <ele>60.102951</ele>
        <time>2021-06-18T07:27:13.881Z</time>
      </trkpt>
      <trkpt lat="53.791385" lon="10.578818">
        <ele>60.198950</ele>
        <time>2021-06-18T07:27:19.869Z</time>
      </trkpt>
      <trkpt lat="53.791326" lon="10.578951">
        <ele>60.291213</ele>
        <time>2021-06-18T07:27:25.872Z</time>
      </trkpt>
      <trkpt lat="53.791266" lon="10.579086">
        <ele>60.384927</ele>
        <time>2021-06-18T07:27:32.876Z</time>
      </trkpt>
      <trkpt lat="53.791198" lon="10.579218">
        <ele>60.482081</ele>
        <time>2021-06-18T07:27:41.889Z</time>
      </trkpt>
      <trkpt lat="53.791142" lon="10.579340">
        <ele>60.567785</ele>
        <time>2021-06-18T07:27:47.871Z</time>
      </trkpt>
      <trkpt lat="53.791089" lon="10.579486">
        <ele>60.662843</ele>
        <time>2021-06-18T07:27:53.883Z</time>
      </trkpt>
      <trkpt lat="53.791032" lon="10.579620">
        <ele>60.754441</ele>
        <time>2021-06-18T07:28:00.859Z</time>
      </trkpt>
      <trkpt lat="53.790968" lon="10.579733">
        <ele>60.841279</ele>
        <time>2021-06-18T07:28:07.882Z</time>
      </trkpt>
      <trkpt lat="53.790896" lon="10.579859">
        <ele>60.938523</ele>
        <time>2021-06-18T07:28:12.873Z</time>
      </trkpt>
      <trkpt lat="53.790840" lon="10.579986">
        <ele>61.026434</ele>
        <time>2021-06-18T07:28:17.872Z</time>
      </trkpt>
      <trkpt lat="53.790766" lon="10.580088">
        <ele>61.038422</ele>
        <time>2021-06-18T07:28:24.874Z</time>
      </trkpt>
      <trkpt lat="53.790693" lon="10.580181">
        <ele>60.986908</ele>
        <time>2021-06-18T07:28:30.863Z</time>
      </trkpt>
      <trkpt lat="53.790616" lon="10.580286">
        <ele>60.931158</ele>
        <time>2021-06-18T07:28:37.865Z</time>
      </trkpt>
      <trkpt lat="53.790530" lon="10.580346">
        <ele>60.878711</ele>
        <time>2021-06-18T07:28:44.870Z</time>
      </trkpt>
      <trkpt lat="53.790441" lon="10.580402">
        <ele>60.825175</ele>
        <time>2021-06-18T07:28:50.864Z</time>
      </trkpt>
      <trkpt lat="53.790354" lon="10.580480">
        <ele>60.769665</ele>
        <time>2021-06-18T07:28:57.877Z</time>
      </trkpt>
      <trkpt lat="53.790264" lon="10.580548">
        <ele>60.714094</ele>
        <time>2021-06-18T07:29:04.865Z</time>
      </trkpt>
      <trkpt lat="53.790192" lon="10.580641">
        <ele>60.663029</ele>
        <time>2021-06-18T07:29:11.886Z</time>
      </trkpt>
      <trkpt lat="53.790113" lon="10.580715">
        <ele>60.612121</ele>
        <time>2021-06-18T07:29:17.879Z</time>
      </trkpt>
      <trkpt lat="53.790020" lon="10.580757">
        <ele>60.557850</ele>
        <time>2021-06-18T07:29:23.887Z</time>
      </trkpt>
      <trkpt lat="53.789927" lon="10.580836">
        <ele>60.499181</ele>
        <time>2021-06-18T07:29:30.879Z</time>
      </trkpt>
      <trkpt lat="53.789844" lon="10.580903">
        <ele>60.447333</ele>
        <time>2021-06-18T07:29:36.873Z</time>
      </trkpt>
      <trkpt lat="53.789616" lon="10.580938">
        <ele>60.318250</ele>
        <time>2021-06-18T07:30:17.863Z</time>
      </trkpt>
      <trkpt lat="53.789494" lon="10.580929">
        <ele>60.249397</ele>
        <time>2021-06-18T07:30:26.870Z</time>
      </trkpt>
      <trkpt lat="53.789400" lon="10.580949">
        <ele>60.195979</ele>
        <time>2021-06-18T07:30:29.871Z</time>
      </trkpt>
      <trkpt lat="53.789303" lon="10.580962">
        <ele>60.141115</ele>
        <time>2021-06-18T07:30:33.857Z</time>
      </trkpt>
      <trkpt lat="53.789210" lon="10.580992">
        <ele>60.087734</ele>
        <time>2021-06-18T07:30:40.861Z</time>
      </trkpt>
      <trkpt lat="53.789116" lon="10.581016">
        <ele>60.102521</ele>
        <time>2021-06-18T07:30:50.873Z</time>
      </trkpt>
      <trkpt lat="53.789021" lon="10.581074">
        <ele>60.247725</ele>
        <time>2021-06-18T07:30:58.876Z</time>
      </trkpt>
      <trkpt lat="53.788935" lon="10.581150">
        <ele>60.387213</ele>
        <time>2021-06-18T07:31:03.870Z</time>
      </trkpt>
      <trkpt lat="53.788855" lon="10.581243">
        <ele>60.526751</ele>
        <time>2021-06-18T07:31:07.861Z</time>
      </trkpt>
      <trkpt lat="53.788777" lon="10.581320">
        <ele>60.656577</ele>
        <time>2021-06-18T07:31:12.869Z</time>
      </trkpt>
      <trkpt lat="53.788694" lon="10.581393">
        <ele>60.791063</ele>
        <time>2021-06-18T07:31:17.872Z</time>
      </trkpt>
      <trkpt lat="53.788600" lon="10.581457">
        <ele>60.936740</ele>
        <time>2021-06-18T07:31:24.862Z</time>
      </trkpt>
      <trkpt lat="53.788516" lon="10.581539">
        <ele>61.076160</ele>
        <time>2021-06-18T07:31:30.876Z</time>
      </trkpt>
      <trkpt lat="53.788429" lon="10.581628">
        <ele>61.222318</ele>
        <time>2021-06-18T07:31:36.880Z</time>
      </trkpt>
      <trkpt lat="53.788341" lon="10.581710">
        <ele>61.366750</ele>
        <time>2021-06-18T07:31:43.883Z</time>
      </trkpt>
      <trkpt lat="53.788263" lon="10.581810">
        <ele>61.507435</ele>
        <time>2021-06-18T07:31:50.861Z</time>
      </trkpt>
      <trkpt lat="53.788160" lon="10.581868">
        <ele>61.663509</ele>
        <time>2021-06-18T07:31:56.862Z</time>
      </trkpt>
      <trkpt lat="53.788059" lon="10.581917">
        <ele>61.814574</ele>
        <time>2021-06-18T07:32:02.868Z</time>
      </trkpt>
      <trkpt lat="53.787956" lon="10.581932">
        <ele>61.963215</ele>
        <time>2021-06-18T07:32:07.864Z</time>
      </trkpt>
      <trkpt lat="53.787862" lon="10.581978">
        <ele>62.103903</ele>
        <time>2021-06-18T07:32:13.870Z</time>
      </trkpt>
      <trkpt lat="53.787766" lon="10.581985">
        <ele>62.242060</ele>
        <time>2021-06-18T07:32:21.874Z</time>
      </trkpt>
      <trkpt lat="53.787669" lon="10.582026">
        <ele>62.385810</ele>
        <time>2021-06-18T07:32:27.864Z</time>
      </trkpt>
      <trkpt lat="53.787571" lon="10.582076">
        <ele>62.532977</ele>
        <time>2021-06-18T07:32:34.868Z</time>
      </trkpt>
      <trkpt lat="53.787476" lon="10.582139">
        <ele>62.767870</ele>
        <time>2021-06-18T07:32:40.882Z</time>
      </trkpt>
      <trkpt lat="53.787391" lon="10.582235">
        <ele>63.237264</ele>
        <time>2021-06-18T07:32:45.881Z</time>
      </trkpt>
      <trkpt lat="53.787321" lon="10.582359">
        <ele>63.702709</ele>
        <time>2021-06-18T07:32:55.879Z</time>
      </trkpt>
      <trkpt lat="53.787239" lon="10.582434">
        <ele>64.130859</ele>
        <time>2021-06-18T07:33:02.881Z</time>
      </trkpt>
      <trkpt lat="53.787160" lon="10.582509">
        <ele>64.546938</ele>
        <time>2021-06-18T07:33:09.871Z</time>
      </trkpt>
      <trkpt lat="53.787065" lon="10.582590">
        <ele>65.035569</ele>
        <time>2021-06-18T07:33:15.863Z</time>
      </trkpt>
      <trkpt lat="53.786971" lon="10.582667">
        <ele>65.515275</ele>
        <time>2021-06-18T07:33:21.864Z</time>
      </trkpt>
      <trkpt lat="53.786900" lon="10.582767">
        <ele>65.939565</ele>
        <time>2021-06-18T07:33:27.878Z</time>
      </trkpt>
      <trkpt lat="53.786817" lon="10.582843">
        <ele>66.373048</ele>
        <time>2021-06-18T07:33:33.862Z</time>
      </trkpt>
      <trkpt lat="53.786733" lon="10.582913">
        <ele>66.803141</ele>
        <time>2021-06-18T07:33:41.862Z</time>
      </trkpt>
      <trkpt lat="53.786653" lon="10.583000">
        <ele>67.239942</ele>
        <time>2021-06-18T07:33:47.864Z</time>
      </trkpt>
      <trkpt lat="53.786560" lon="10.583111">
        <ele>67.762676</ele>
        <time>2021-06-18T07:33:54.868Z</time>
      </trkpt>
      <trkpt lat="53.786471" lon="10.583189">
        <ele>68.223060</ele>
        <time>2021-06-18T07:33:58.858Z</time>
      </trkpt>
      <trkpt lat="53.786381" lon="10.583270">
        <ele>68.691294</ele>
        <time>2021-06-18T07:34:04.871Z</time>
      </trkpt>
      <trkpt lat="53.786304" lon="10.583355">
        <ele>69.113578</ele>
        <time>2021-06-18T07:34:10.863Z</time>
      </trkpt>
      <trkpt lat="53.786224" lon="10.583446">
        <ele>69.556342</ele>
        <time>2021-06-18T07:34:17.866Z</time>
      </trkpt>
      <trkpt lat="53.786137" lon="10.583502">
        <ele>69.983909</ele>
        <time>2021-06-18T07:34:23.861Z</time>
      </trkpt>
      <trkpt lat="53.786044" lon="10.583573">
        <ele>70.452560</ele>
        <time>2021-06-18T07:34:29.857Z</time>
      </trkpt>
      <trkpt lat="53.785953" lon="10.583639">
        <ele>70.900813</ele>
        <time>2021-06-18T07:34:35.863Z</time>
      </trkpt>
      <trkpt lat="53.785874" lon="10.583736">
        <ele>70.823849</ele>
        <time>2021-06-18T07:34:40.860Z</time>
      </trkpt>
      <trkpt lat="53.785800" lon="10.583855">
        <ele>70.743356</ele>
        <time>2021-06-18T07:34:47.854Z</time>
      </trkpt>
      <trkpt lat="53.785723" lon="10.583961">
        <ele>70.665087</ele>
        <time>2021-06-18T07:34:54.864Z</time>
      </trkpt>
      <trkpt lat="53.785643" lon="10.584049">
        <ele>70.589848</ele>
        <time>2021-06-18T07:35:01.874Z</time>
      </trkpt>
      <trkpt lat="53.785555" lon="10.584128">
        <ele>70.511296</ele>
        <time>2021-06-18T07:35:07.865Z</time>
      </trkpt>
      <trkpt lat="53.785477" lon="10.584220">
        <ele>70.436325</ele>
        <time>2021-06-18T07:35:13.862Z</time>
      </trkpt>
      <trkpt lat="53.785397" lon="10.584299">
        <ele>70.363286</ele>
        <time>2021-06-18T07:35:19.872Z</time>
      </trkpt>
      <trkpt lat="53.785325" lon="10.584399">
        <ele>70.289839</ele>
        <time>2021-06-18T07:35:24.863Z</time>
      </trkpt>
      <trkpt lat="53.785268" lon="10.584526">
        <ele>70.215532</ele>
        <time>2021-06-18T07:35:30.862Z</time>
      </trkpt>
      <trkpt lat="53.785190" lon="10.584602">
        <ele>70.144558</ele>
        <time>2021-06-18T07:35:36.867Z</time>
      </trkpt>
      <trkpt lat="53.785109" lon="10.584710">
        <ele>70.063244</ele>
        <time>2021-06-18T07:35:42.873Z</time>
      </trkpt>
      <trkpt lat="53.785035" lon="10.584823">
        <ele>69.984649</ele>
        <time>2021-06-18T07:35:48.872Z</time>
      </trkpt>
      <trkpt lat="53.784958" lon="10.584915">
        <ele>69.910323</ele>
        <time>2021-06-18T07:35:55.863Z</time>
      </trkpt>
      <trkpt lat="53.784869" lon="10.584980">
        <ele>69.833884</ele>
        <time>2021-06-18T07:36:02.870Z</time>
      </trkpt>
      <trkpt lat="53.784768" lon="10.585022">
        <ele>69.751868</ele>
        <time>2021-06-18T07:36:09.861Z</time>
      </trkpt>
      <trkpt lat="53.784686" lon="10.585093">
        <ele>69.679234</ele>
        <time>2021-06-18T07:36:14.860Z</time>
      </trkpt>
      <trkpt lat="53.784601" lon="10.585161">
        <ele>69.605094</ele>
        <time>2021-06-18T07:36:19.866Z</time>
      </trkpt>
      <trkpt lat="53.784534" lon="10.585273">
        <ele>69.530834</ele>
        <time>2021-06-18T07:36:24.859Z</time>
      </trkpt>
      <trkpt lat="53.784451" lon="10.585336">
        <ele>69.381020</ele>
        <time>2021-06-18T07:36:29.864Z</time>
      </trkpt>
      <trkpt lat="53.784377" lon="10.585430">
        <ele>69.073454</ele>
        <time>2021-06-18T07:36:35.871Z</time>
      </trkpt>
      <trkpt lat="53.784295" lon="10.585497">
        <ele>68.770767</ele>
        <time>2021-06-18T07:36:43.857Z</time>
      </trkpt>
      <trkpt lat="53.784200" lon="10.585580">
        <ele>68.415372</ele>
        <time>2021-06-18T07:36:51.869Z</time>
      </trkpt>
      <trkpt lat="53.784115" lon="10.585657">
        <ele>68.094887</ele>
        <time>2021-06-18T07:36:56.869Z</time>
      </trkpt>
      <trkpt lat="53.784021" lon="10.585689">
        <ele>67.776151</ele>
        <time>2021-06-18T07:37:03.865Z</time>
      </trkpt>
      <trkpt lat="53.783924" lon="10.585722">
        <ele>67.447252</ele>
        <time>2021-06-18T07:37:08.862Z</time>
      </trkpt>
      <trkpt lat="53.783826" lon="10.585750">
        <ele>67.116868</ele>
        <time>2021-06-18T07:37:15.865Z</time>
      </trkpt>
      <trkpt lat="53.783738" lon="10.585785">
        <ele>66.816368</ele>
        <time>2021-06-18T07:37:20.860Z</time>
      </trkpt>
      <trkpt lat="53.783648" lon="10.585872">
        <ele>66.471829</ele>
        <time>2021-06-18T07:37:25.860Z</time>
      </trkpt>
      <trkpt lat="53.783566" lon="10.585978">
        <ele>66.128831</ele>
        <time>2021-06-18T07:37:31.857Z</time>
      </trkpt>
      <trkpt lat="53.783482" lon="10.586054">
        <ele>65.812202</ele>
        <time>2021-06-18T07:37:37.874Z</time>
      </trkpt>
      <trkpt lat="53.783386" lon="10.586111">
        <ele>65.474008</ele>
        <time>2021-06-18T07:37:44.868Z</time>
      </trkpt>
      <trkpt lat="53.783288" lon="10.586132">
        <ele>65.145633</ele>
        <time>2021-06-18T07:37:50.868Z</time>
      </trkpt>
      <trkpt lat="53.783189" lon="10.586137">
        <ele>64.816388</ele>
        <time>2021-06-18T07:37:59.870Z</time>
      </trkpt>
      <trkpt lat="53.783093" lon="10.586153">
        <ele>64.495718</ele>
        <time>2021-06-18T07:38:05.860Z</time>
      </trkpt>
      <trkpt lat="53.782998" lon="10.586204">
        <ele>64.164411</ele>
        <time>2021-06-18T07:38:10.860Z</time>
      </trkpt>
      <trkpt lat="53.782907" lon="10.586268">
        <ele>63.836828</ele>
        <time>2021-06-18T07:38:15.858Z</time>
      </trkpt>
      <trkpt lat="53.782840" lon="10.586391">
        <ele>63.508241</ele>
        <time>2021-06-18T07:38:20.865Z</time>
      </trkpt>
      <trkpt lat="53.782769" lon="10.586509">
        <ele>63.456584</ele>
        <time>2021-06-18T07:38:26.857Z</time>
      </trkpt>
      <trkpt lat="53.782715" lon="10.586637">
        <ele>63.411501</ele>
        <time>2021-06-18T07:38:33.864Z</time>
      </trkpt>
      <trkpt lat="53.782670" lon="10.586810">
        <ele>63.357319</ele>
        <time>2021-06-18T07:38:39.870Z</time>
      </trkpt>
      <trkpt lat="53.782607" lon="10.586930">
        <ele>63.311305</ele>
        <time>2021-06-18T07:38:45.872Z</time>
      </trkpt>
      <trkpt lat="53.782531" lon="10.587036">
        <ele>63.263528</ele>
        <time>2021-06-18T07:38:52.865Z</time>
      </trkpt>
      <trkpt lat="53.782453" lon="10.587132">
        <ele>63.216739</ele>
        <time>2021-06-18T07:38:58.867Z</time>
      </trkpt>
      <trkpt lat="53.782382" lon="10.587231">
        <ele>63.172111</ele>
        <time>2021-06-18T07:39:03.875Z</time>
      </trkpt>
      <trkpt lat="53.782320" lon="10.587353">
        <ele>63.125984</ele>
        <time>2021-06-18T07:39:10.876Z</time>
      </trkpt>
      <trkpt lat="53.782252" lon="10.587485">
        <ele>63.075785</ele>
        <time>2021-06-18T07:39:17.869Z</time>
      </trkpt>
      <trkpt lat="53.782160" lon="10.587558">
        <ele>63.026490</ele>
        <time>2021-06-18T07:39:25.861Z</time>
      </trkpt>
      <trkpt lat="53.782085" lon="10.587684">
        <ele>62.975223</ele>
        <time>2021-06-18T07:39:31.874Z</time>
      </trkpt>
      <trkpt lat="53.782033" lon="10.587817">
        <ele>62.929508</ele>
        <time>2021-06-18T07:39:36.864Z</time>
      </trkpt>
      <trkpt lat="53.781969" lon="10.587945">
        <ele>62.881443</ele>
        <time>2021-06-18T07:39:42.873Z</time>
      </trkpt>
      <trkpt lat="53.781900" lon="10.588054">
        <ele>62.835652</ele>
        <time>2021-06-18T07:39:48.876Z</time>
      </trkpt>
      <trkpt lat="53.781825" lon="10.588160">
        <ele>62.788248</ele>
        <time>2021-06-18T07:39:53.869Z</time>
      </trkpt>
      <trkpt lat="53.781771" lon="10.588302">
        <ele>62.739842</ele>
        <time>2021-06-18T07:39:57.879Z</time>
      </trkpt>
      <trkpt lat="53.781723" lon="10.588445">
        <ele>62.692699</ele>
        <time>2021-06-18T07:40:02.872Z</time>
      </trkpt>
      <trkpt lat="53.781641" lon="10.588550">
        <ele>62.642814</ele>
        <time>2021-06-18T07:40:10.864Z</time>
      </trkpt>
      <trkpt lat="53.781573" lon="10.588687">
        <ele>62.720741</ele>
        <time>2021-06-18T07:40:17.870Z</time>
      </trkpt>
      <trkpt lat="53.781500" lon="10.588778">
        <ele>62.818256</ele>
        <time>2021-06-18T07:40:23.876Z</time>
      </trkpt>
      <trkpt lat="53.781422" lon="10.588864">
        <ele>62.918381</ele>
        <time>2021-06-18T07:40:29.869Z</time>
      </trkpt>
      <trkpt lat="53.781334" lon="10.588927">
        <ele>63.021149</ele>
        <time>2021-06-18T07:40:35.867Z</time>
      </trkpt>
      <trkpt lat="53.781249" lon="10.589033">
        <ele>63.134709</ele>
        <time>2021-06-18T07:40:41.877Z</time>
      </trkpt>
      <trkpt lat="53.781153" lon="10.589113">
        <ele>63.249800</ele>
        <time>2021-06-18T07:40:47.867Z</time>
      </trkpt>
      <trkpt lat="53.781063" lon="10.589181">
        <ele>63.355808</ele>
        <time>2021-06-18T07:40:53.870Z</time>
      </trkpt>
      <trkpt lat="53.780985" lon="10.589258">
        <ele>63.452930</ele>
        <time>2021-06-18T07:40:58.858Z</time>
      </trkpt>
      <trkpt lat="53.780895" lon="10.589355">
        <ele>63.567692</ele>
        <time>2021-06-18T07:41:04.880Z</time>
      </trkpt>
      <trkpt lat="53.780810" lon="10.589434">
        <ele>63.671993</ele>
        <time>2021-06-18T07:41:10.874Z</time>
      </trkpt>
      <trkpt lat="53.780733" lon="10.589528">
        <ele>63.774107</ele>
        <time>2021-06-18T07:41:17.866Z</time>
      </trkpt>
      <trkpt lat="53.780658" lon="10.589627">
        <ele>63.876409</ele>
        <time>2021-06-18T07:41:23.875Z</time>
      </trkpt>
      <trkpt lat="53.780556" lon="10.589663">
        <ele>63.988475</ele>
        <time>2021-06-18T07:41:30.864Z</time>
      </trkpt>
      <trkpt lat="53.780472" lon="10.589727">
        <ele>64.087555</ele>
        <time>2021-06-18T07:41:36.869Z</time>
      </trkpt>
      <trkpt lat="53.780385" lon="10.589775">
        <ele>64.185975</ele>
        <time>2021-06-18T07:41:42.864Z</time>
      </trkpt>
      <trkpt lat="53.780285" lon="10.589822">
        <ele>64.297601</ele>
        <time>2021-06-18T07:41:48.867Z</time>
      </trkpt>
      <trkpt lat="53.780200" lon="10.589902">
        <ele>64.402209</ele>
        <time>2021-06-18T07:41:54.879Z</time>
      </trkpt>
      <trkpt lat="53.780122" lon="10.590001">
        <ele>64.507074</ele>
        <time>2021-06-18T07:42:01.868Z</time>
      </trkpt>
      <trkpt lat="53.780035" lon="10.590053">
        <ele>64.551762</ele>
        <time>2021-06-18T07:42:06.881Z</time>
      </trkpt>
      <trkpt lat="53.779939" lon="10.590075">
        <ele>64.514163</ele>
        <time>2021-06-18T07:42:11.871Z</time>
      </trkpt>
      <trkpt lat="53.779838" lon="10.590100">
        <ele>64.474548</ele>
        <time>2021-06-18T07:42:18.877Z</time>
      </trkpt>
      <trkpt lat="53.779746" lon="10.590121">
        <ele>64.438518</ele>
        <time>2021-06-18T07:42:25.860Z</time>
      </trkpt>
      <trkpt lat="53.779659" lon="10.590161">
        <ele>64.403529</ele>
        <time>2021-06-18T07:42:30.873Z</time>
      </trkpt>
      <trkpt lat="53.779564" lon="10.590219">
        <ele>64.364333</ele>
        <time>2021-06-18T07:42:37.873Z</time>
      </trkpt>
      <trkpt lat="53.779465" lon="10.590244">
        <ele>64.325485</ele>
        <time>2021-06-18T07:42:44.880Z</time>
      </trkpt>
      <trkpt lat="53.779378" lon="10.590307">
        <ele>64.288759</ele>
        <time>2021-06-18T07:42:49.874Z</time>
      </trkpt>
      <trkpt lat="53.779279" lon="10.590357">
        <ele>64.248662</ele>
        <time>2021-06-18T07:42:55.870Z</time>
      </trkpt>
      <trkpt lat="53.779199" lon="10.590426">
        <ele>64.213814</ele>
        <time>2021-06-18T07:43:00.867Z</time>
      </trkpt>
      <trkpt lat="53.779094" lon="10.590459">
        <ele>64.172366</ele>
        <time>2021-06-18T07:43:06.864Z</time>
      </trkpt>
      <trkpt lat="53.779010" lon="10.590526">
        <ele>64.136325</ele>
        <time>2021-06-18T07:43:11.869Z</time>
      </trkpt>
      <trkpt lat="53.778916" lon="10.590570">
        <ele>64.098473</ele>
        <time>2021-06-18T07:43:18.872Z</time>
      </trkpt>
      <trkpt lat="53.778822" lon="10.590613">
        <ele>64.060682</ele>
        <time>2021-06-18T07:43:24.865Z</time>
      </trkpt>
      <trkpt lat="53.778749" lon="10.590705">
        <ele>64.025357</ele>
        <time>2021-06-18T07:43:30.877Z</time>
      </trkpt>
      <trkpt lat="53.778663" lon="10.590799">
        <ele>63.985624</ele>
        <time>2021-06-18T07:43:37.868Z</time>
      </trkpt>
      <trkpt lat="53.778590" lon="10.590916">
        <ele>63.946602</ele>
        <time>2021-06-18T07:43:45.874Z</time>
      </trkpt>
      <trkpt lat="53.778496" lon="10.591003">
        <ele>63.905021</ele>
        <time>2021-06-18T07:43:52.877Z</time>
      </trkpt>
      <trkpt lat="53.778423" lon="10.591094">
        <ele>63.869832</ele>
        <time>2021-06-18T07:43:58.866Z</time>
      </trkpt>
      <trkpt lat="53.778331" lon="10.591192">
        <ele>63.894063</ele>
        <time>2021-06-18T07:44:08.869Z</time>
      </trkpt>
      <trkpt lat="53.778245" lon="10.591282">
        <ele>63.919150</ele>
        <time>2021-06-18T07:44:12.864Z</time>
      </trkpt>
      <trkpt lat="53.778164" lon="10.591348">
        <ele>63.941455</ele>
        <time>2021-06-18T07:44:18.863Z</time>
      </trkpt>
      <trkpt lat="53.778074" lon="10.591421">
        <ele>63.966216</ele>
        <time>2021-06-18T07:44:24.868Z</time>
      </trkpt>
      <trkpt lat="53.777979" lon="10.591485">
        <ele>63.991585</ele>
        <time>2021-06-18T07:44:30.866Z</time>
      </trkpt>
      <trkpt lat="53.777886" lon="10.591529">
        <ele>64.015543</ele>
        <time>2021-06-18T07:44:36.864Z</time>
      </trkpt>
      <trkpt lat="53.777799" lon="10.591647">
        <ele>64.043205</ele>
        <time>2021-06-18T07:44:42.872Z</time>
      </trkpt>
      <trkpt lat="53.777716" lon="10.591719">
        <ele>64.066346</ele>
        <time>2021-06-18T07:44:50.873Z</time>
      </trkpt>
      <trkpt lat="53.777620" lon="10.591722">
        <ele>64.090168</ele>
        <time>2021-06-18T07:44:56.861Z</time>
      </trkpt>
      <trkpt lat="53.777519" lon="10.591794">
        <ele>64.117359</ele>
        <time>2021-06-18T07:45:02.880Z</time>
      </trkpt>
      <trkpt lat="53.777453" lon="10.591908">
        <ele>64.140757</ele>
        <time>2021-06-18T07:45:07.873Z</time>
      </trkpt>
      <trkpt lat="53.777369" lon="10.591987">
        <ele>64.164600</ele>
        <time>2021-06-18T07:45:13.878Z</time>
      </trkpt>
      <trkpt lat="53.777279" lon="10.592061">
        <ele>64.189425</ele>
        <time>2021-06-18T07:45:19.876Z</time>
      </trkpt>
      <trkpt lat="53.777194" lon="10.592120">
        <ele>64.212219</ele>
        <time>2021-06-18T07:45:25.874Z</time>
      </trkpt>
      <trkpt lat="53.777123" lon="10.592219">
        <ele>64.235044</ele>
        <time>2021-06-18T07:45:31.870Z</time>
      </trkpt>
      <trkpt lat="53.777029" lon="10.592276">
        <ele>64.259817</ele>
        <time>2021-06-18T07:45:37.866Z</time>
      </trkpt>
      <trkpt lat="53.776941" lon="10.592351">
        <ele>64.284263</ele>
        <time>2021-06-18T07:45:43.869Z</time>
      </trkpt>
      <trkpt lat="53.776839" lon="10.592418">
        <ele>64.311409</ele>
        <time>2021-06-18T07:45:48.872Z</time>
      </trkpt>
      <trkpt lat="53.776739" lon="10.592463">
        <ele>64.119184</ele>
        <time>2021-06-18T07:45:54.864Z</time>
      </trkpt>
      <trkpt lat="53.776644" lon="10.592520">
        <ele>63.903850</ele>
        <time>2021-06-18T07:46:01.864Z</time>
      </trkpt>
      <trkpt lat="53.776557" lon="10.592563">
        <ele>63.710222</ele>
        <time>2021-06-18T07:46:07.867Z</time>
      </trkpt>
      <trkpt lat="53.776465" lon="10.592602">
        <ele>63.507604</ele>
        <time>2021-06-18T07:46:13.873Z</time>
      </trkpt>
      <trkpt lat="53.776372" lon="10.592638">
        <ele>63.303790</ele>
        <time>2021-06-18T07:46:18.861Z</time>
      </trkpt>
      <trkpt lat="53.776279" lon="10.592708">
        <ele>63.086342</ele>
        <time>2021-06-18T07:46:24.861Z</time>
      </trkpt>
      <trkpt lat="53.776194" lon="10.592804">
        <ele>62.868022</ele>
        <time>2021-06-18T07:46:29.876Z</time>
      </trkpt>
      <trkpt lat="53.776110" lon="10.592885">
        <ele>62.661477</ele>
        <time>2021-06-18T07:46:36.862Z</time>
      </trkpt>
      <trkpt lat="53.776027" lon="10.592967">
        <ele>62.456151</ele>
        <time>2021-06-18T07:46:43.863Z</time>
      </trkpt>
      <trkpt lat="53.775944" lon="10.593058">
        <ele>62.244869</ele>
        <time>2021-06-18T07:46:50.873Z</time>
      </trkpt>
      <trkpt lat="53.775859" lon="10.593126">
        <ele>62.044009</ele>
        <time>2021-06-18T07:46:57.866Z</time>
      </trkpt>
      <trkpt lat="53.775779" lon="10.593217">
        <ele>61.838076</ele>
        <time>2021-06-18T07:47:03.873Z</time>
      </trkpt>
      <trkpt lat="53.775701" lon="10.593295">
        <ele>61.644518</ele>
        <time>2021-06-18T07:47:10.872Z</time>
      </trkpt>
      <trkpt lat="53.775618" lon="10.593363">
        <ele>61.447512</ele>
        <time>2021-06-18T07:47:16.872Z</time>
      </trkpt>
      <trkpt lat="53.775538" lon="10.593469">
        <ele>61.230444</ele>
        <time>2021-06-18T07:47:23.876Z</time>
      </trkpt>
      <trkpt lat="53.775476" lon="10.593592">
        <ele>61.026342</ele>
        <time>2021-06-18T07:47:27.884Z</time>
      </trkpt>
      <trkpt lat="53.775391" lon="10.593680">
        <ele>60.813462</ele>
        <time>2021-06-18T07:47:32.879Z</time>
      </trkpt>
      <trkpt lat="53.775321" lon="10.593786">
        <ele>60.612781</ele>
        <time>2021-06-18T07:47:38.873Z</time>
      </trkpt>
      <trkpt lat="53.775251" lon="10.593912">
        <ele>60.674393</ele>
        <time>2021-06-18T07:47:46.870Z</time>
      </trkpt>
      <trkpt lat="53.775186" lon="10.594027">
        <ele>61.200027</ele>
        <time>2021-06-18T07:47:53.863Z</time>
      </trkpt>
      <trkpt lat="53.775107" lon="10.594128">
        <ele>61.753455</ele>
        <time>2021-06-18T07:47:59.869Z</time>
      </trkpt>
      <trkpt lat="53.775032" lon="10.594226">
        <ele>62.283099</ele>
        <time>2021-06-18T07:48:04.866Z</time>
      </trkpt>
      <trkpt lat="53.774959" lon="10.594327">
        <ele>62.810157</ele>
        <time>2021-06-18T07:48:10.872Z</time>
      </trkpt>
      <trkpt lat="53.774878" lon="10.594430">
        <ele>63.376489</ele>
        <time>2021-06-18T07:48:17.879Z</time>
      </trkpt>
      <trkpt lat="53.774800" lon="10.594581">
        <ele>64.038950</ele>
        <time>2021-06-18T07:48:26.859Z</time>
      </trkpt>
      <trkpt lat="53.774733" lon="10.594726">
        <ele>64.646935</ele>
        <time>2021-06-18T07:48:33.884Z</time>
      </trkpt>
      <trkpt lat="53.774664" lon="10.594830">
        <ele>65.163420</ele>
        <time>2021-06-18T07:48:38.888Z</time>
      </trkpt>
      <trkpt lat="53.774600" lon="10.594939">
        <ele>65.670963</ele>
        <time>2021-06-18T07:48:44.871Z</time>
      </trkpt>
      <trkpt lat="53.774519" lon="10.595029">
        <ele>66.212589</ele>
        <time>2021-06-18T07:48:50.885Z</time>
      </trkpt>
      <trkpt lat="53.774436" lon="10.595135">
        <ele>66.793814</ele>
        <time>2021-06-18T07:49:00.878Z</time>
      </trkpt>
      <trkpt lat="53.774365" lon="10.595228">
        <ele>67.295672</ele>
        <time>2021-06-18T07:49:05.877Z</time>
      </trkpt>
      <trkpt lat="53.774285" lon="10.595342">
        <ele>67.880266</ele>
        <time>2021-06-18T07:49:09.870Z</time>
      </trkpt>
      <trkpt lat="53.774202" lon="10.595440">
        <ele>68.445967</ele>
        <time>2021-06-18T07:49:14.851Z</time>
      </trkpt>
      <trkpt lat="53.774123" lon="10.595531">
        <ele>68.980137</ele>
        <time>2021-06-18T07:49:20.866Z</time>
      </trkpt>
      <trkpt lat="53.774039" lon="10.595637">
        <ele>69.565836</ele>
        <time>2021-06-18T07:49:27.865Z</time>
      </trkpt>
      <trkpt lat="53.773965" lon="10.595740">
        <ele>70.101410</ele>
        <time>2021-06-18T07:49:32.872Z</time>
      </trkpt>
      <trkpt lat="53.773889" lon="10.595853">
        <ele>70.466764</ele>
        <time>2021-06-18T07:49:38.863Z</time>
      </trkpt>
      <trkpt lat="53.773805" lon="10.595931">
        <ele>70.245268</ele>
        <time>2021-06-18T07:49:45.867Z</time>
      </trkpt>
      <trkpt lat="53.773718" lon="10.596022">
        <ele>70.008833</ele>
        <time>2021-06-18T07:49:52.884Z</time>
      </trkpt>
      <trkpt lat="53.773619" lon="10.596036">
        <ele>69.779181</ele>
        <time>2021-06-18T07:49:58.864Z</time>
      </trkpt>
      <trkpt lat="53.773549" lon="10.595899">
        <ele>69.531767</ele>
        <time>2021-06-18T07:50:04.872Z</time>
      </trkpt>
      <trkpt lat="53.773545" lon="10.595730">
        <ele>69.300704</ele>
        <time>2021-06-18T07:50:08.871Z</time>
      </trkpt>
      <trkpt lat="53.773573" lon="10.595580">
        <ele>69.085804</ele>
        <time>2021-06-18T07:50:13.870Z</time>
      </trkpt>
      <trkpt lat="53.773552" lon="10.595409">
        <ele>68.847204</ele>
        <time>2021-06-18T07:50:18.866Z</time>
      </trkpt>
      <trkpt lat="53.773581" lon="10.595242">
        <ele>68.609413</ele>
        <time>2021-06-18T07:50:24.867Z</time>
      </trkpt>
      <trkpt lat="53.773587" lon="10.595054">
        <ele>68.352205</ele>
        <time>2021-06-18T07:50:32.875Z</time>
      </trkpt>
      <trkpt lat="53.773587" lon="10.594884">
        <ele>68.119962</ele>
        <time>2021-06-18T07:50:38.876Z</time>
      </trkpt>
      <trkpt lat="53.773579" lon="10.594726">
        <ele>67.903321</ele>
        <time>2021-06-18T07:50:43.862Z</time>
      </trkpt>
      <trkpt lat="53.773588" lon="10.594558">
        <ele>67.672869</ele>
        <time>2021-06-18T07:50:50.870Z</time>
      </trkpt>
      <trkpt lat="53.773605" lon="10.594397">
        <ele>67.449438</ele>
        <time>2021-06-18T07:51:03.873Z</time>
      </trkpt>
      <trkpt lat="53.773649" lon="10.594262">
        <ele>67.238821</ele>
        <time>2021-06-18T07:51:10.876Z</time>
      </trkpt>
      <trkpt lat="53.773679" lon="10.594116">
        <ele>67.027653</ele>
        <time>2021-06-18T07:51:17.869Z</time>
      </trkpt>
      <trkpt lat="53.773664" lon="10.593951">
        <ele>66.799589</ele>
        <time>2021-06-18T07:51:22.862Z</time>
      </trkpt>
      <trkpt lat="53.773636" lon="10.593789">
        <ele>66.569004</ele>
        <time>2021-06-18T07:51:27.870Z</time>
      </trkpt>
      <trkpt lat="53.773645" lon="10.593616">
        <ele>66.401827</ele>
        <time>2021-06-18T07:51:34.875Z</time>
      </trkpt>
      <trkpt lat="53.773657" lon="10.593448">
        <ele>66.624158</ele>
        <time>2021-06-18T07:51:41.878Z</time>
      </trkpt>
      <trkpt lat="53.773670" lon="10.593284">
        <ele>66.841558</ele>
        <time>2021-06-18T07:51:47.873Z</time>
      </trkpt>
      <trkpt lat="53.773677" lon="10.593132">
        <ele>67.041867</ele>
        <time>2021-06-18T07:51:53.871Z</time>
      </trkpt>
      <trkpt lat="53.773628" lon="10.592979">
        <ele>67.270504</ele>
        <time>2021-06-18T07:51:58.868Z</time>
      </trkpt>
      <trkpt lat="53.773595" lon="10.592819">
        <ele>67.493153</ele>
        <time>2021-06-18T07:52:03.865Z</time>
      </trkpt>
      <trkpt lat="53.773581" lon="10.592651">
        <ele>67.716063</ele>
        <time>2021-06-18T07:52:09.863Z</time>
      </trkpt>
      <trkpt lat="53.773573" lon="10.592491">
        <ele>67.927029</ele>
        <time>2021-06-18T07:52:15.868Z</time>
      </trkpt>
      <trkpt lat="53.773562" lon="10.592334">
        <ele>68.134747</ele>
        <time>2021-06-18T07:52:20.874Z</time>
      </trkpt>
      <trkpt lat="53.773561" lon="10.592172">
        <ele>68.347601</ele>
        <time>2021-06-18T07:52:27.870Z</time>
      </trkpt>
      <trkpt lat="53.773545" lon="10.592008">
        <ele>68.565988</ele>
        <time>2021-06-18T07:52:35.866Z</time>
      </trkpt>
      <trkpt lat="53.773548" lon="10.591839">
        <ele>68.788128</ele>
        <time>2021-06-18T07:52:41.879Z</time>
      </trkpt>
      <trkpt lat="53.773542" lon="10.591677">
        <ele>69.001388</ele>
        <time>2021-06-18T07:52:47.871Z</time>
      </trkpt>
      <trkpt lat="53.773520" lon="10.591525">
        <ele>69.206994</ele>
        <time>2021-06-18T07:52:53.859Z</time>
      </trkpt>
      <trkpt lat="53.773508" lon="10.591365">
        <ele>69.418896</ele>
        <time>2021-06-18T07:52:59.877Z</time>
      </trkpt>
      <trkpt lat="53.773528" lon="10.591213">
        <ele>69.623490</ele>
        <time>2021-06-18T07:53:07.873Z</time>
      </trkpt>
      <trkpt lat="53.773549" lon="10.591044">
        <ele>69.850385</ele>
        <time>2021-06-18T07:53:13.861Z</time>
      </trkpt>
      <trkpt lat="53.773552" lon="10.590889">
        <ele>70.054140</ele>
        <time>2021-06-18T07:53:20.870Z</time>
      </trkpt>
      <trkpt lat="53.773534" lon="10.590735">
        <ele>70.260391</ele>
        <time>2021-06-18T07:53:25.864Z</time>
      </trkpt>
      <trkpt lat="53.773541" lon="10.590577">
        <ele>70.430236</ele>
        <time>2021-06-18T07:53:31.873Z</time>
      </trkpt>
      <trkpt lat="53.773533" lon="10.590412">
        <ele>70.566342</ele>
        <time>2021-06-18T07:53:37.879Z</time>
      </trkpt>
      <trkpt lat="53.773517" lon="10.590242">
        <ele>70.707864</ele>
        <time>2021-06-18T07:53:42.873Z</time>
      </trkpt>
      <trkpt lat="53.773518" lon="10.590082">
        <ele>70.839410</ele>
        <time>2021-06-18T07:53:49.868Z</time>
      </trkpt>
      <trkpt lat="53.773547" lon="10.589921">
        <ele>70.977783</ele>
        <time>2021-06-18T07:53:57.857Z</time>
      </trkpt>
      <trkpt lat="53.773554" lon="10.589757">
        <ele>71.112962</ele>
        <time>2021-06-18T07:54:04.869Z</time>
      </trkpt>
      <trkpt lat="53.773553" lon="10.589591">
        <ele>71.249441</ele>
        <time>2021-06-18T07:54:10.869Z</time>
      </trkpt>
      <trkpt lat="53.773576" lon="10.589436">
        <ele>71.380825</ele>
        <time>2021-06-18T07:54:16.875Z</time>
      </trkpt>
      <trkpt lat="53.773621" lon="10.589299">
        <ele>71.509683</ele>
        <time>2021-06-18T07:54:23.864Z</time>
      </trkpt>
      <trkpt lat="53.773685" lon="10.589161">
        <ele>71.653899</ele>
        <time>2021-06-18T07:54:30.866Z</time>
      </trkpt>
      <trkpt lat="53.773727" lon="10.589021">
        <ele>71.782976</ele>
        <time>2021-06-18T07:54:38.871Z</time>
      </trkpt>
      <trkpt lat="53.773765" lon="10.588882">
        <ele>71.908885</ele>
        <time>2021-06-18T07:54:44.880Z</time>
      </trkpt>
      <trkpt lat="53.773803" lon="10.588743">
        <ele>72.034793</ele>
        <time>2021-06-18T07:54:51.874Z</time>
      </trkpt>
      <trkpt lat="53.773781" lon="10.588579">
        <ele>72.173050</ele>
        <time>2021-06-18T07:54:56.875Z</time>
      </trkpt>
      <trkpt lat="53.773752" lon="10.588424">
        <ele>72.306712</ele>
        <time>2021-06-18T07:55:03.861Z</time>
      </trkpt>
      <trkpt lat="53.773709" lon="10.588257">
        <ele>72.456471</ele>
        <time>2021-06-18T07:55:09.861Z</time>
      </trkpt>
      <trkpt lat="53.773668" lon="10.588115">
        <ele>72.586399</ele>
        <time>2021-06-18T07:55:13.861Z</time>
      </trkpt>
      <trkpt lat="53.773611" lon="10.587960">
        <ele>72.736484</ele>
        <time>2021-06-18T07:55:18.879Z</time>
      </trkpt>
      <trkpt lat="53.773535" lon="10.587842">
        <ele>72.865386</ele>
        <time>2021-06-18T07:55:21.870Z</time>
      </trkpt>
      <trkpt lat="53.773492" lon="10.587681">
        <ele>72.829359</ele>
        <time>2021-06-18T07:55:26.878Z</time>
      </trkpt>
      <trkpt lat="53.773449" lon="10.587544">
        <ele>72.797727</ele>
        <time>2021-06-18T07:55:31.874Z</time>
      </trkpt>
      <trkpt lat="53.773399" lon="10.587412">
        <ele>72.765756</ele>
        <time>2021-06-18T07:55:36.873Z</time>
      </trkpt>
      <trkpt lat="53.773350" lon="10.587267">
        <ele>72.731696</ele>
        <time>2021-06-18T07:55:42.876Z</time>
      </trkpt>
      <trkpt lat="53.773295" lon="10.587133">
        <ele>72.698427</ele>
        <time>2021-06-18T07:55:47.879Z</time>
      </trkpt>
      <trkpt lat="53.773244" lon="10.587006">
        <ele>72.667117</ele>
        <time>2021-06-18T07:55:51.877Z</time>
      </trkpt>
      <trkpt lat="53.773163" lon="10.586860">
        <ele>72.626282</ele>
        <time>2021-06-18T07:55:53.877Z</time>
      </trkpt>
      <trkpt lat="53.773120" lon="10.586704">
        <ele>72.591181</ele>
        <time>2021-06-18T07:55:57.871Z</time>
      </trkpt>
      <trkpt lat="53.773088" lon="10.586547">
        <ele>72.557316</ele>
        <time>2021-06-18T07:56:03.871Z</time>
      </trkpt>
      <trkpt lat="53.773067" lon="10.586379">
        <ele>72.522300</ele>
        <time>2021-06-18T07:56:10.861Z</time>
      </trkpt>
      <trkpt lat="53.773045" lon="10.586212">
        <ele>72.487410</ele>
        <time>2021-06-18T07:56:16.863Z</time>
      </trkpt>
      <trkpt lat="53.773025" lon="10.586040">
        <ele>72.451664</ele>
        <time>2021-06-18T07:56:22.885Z</time>
      </trkpt>
      <trkpt lat="53.772997" lon="10.585878">
        <ele>72.417246</ele>
        <time>2021-06-18T07:56:27.874Z</time>
      </trkpt>
      <trkpt lat="53.772969" lon="10.585734">
        <ele>72.386333</ele>
        <time>2021-06-18T07:56:32.864Z</time>
      </trkpt>
      <trkpt lat="53.772940" lon="10.585574">
        <ele>72.352207</ele>
        <time>2021-06-18T07:56:38.864Z</time>
      </trkpt>
      <trkpt lat="53.772933" lon="10.585418">
        <ele>72.320304</ele>
        <time>2021-06-18T07:56:44.859Z</time>
      </trkpt>
      <trkpt lat="53.772906" lon="10.585263">
        <ele>72.287353</ele>
        <time>2021-06-18T07:56:51.872Z</time>
      </trkpt>
      <trkpt lat="53.772877" lon="10.585110">
        <ele>72.254588</ele>
        <time>2021-06-18T07:56:58.877Z</time>
      </trkpt>
      <trkpt lat="53.772857" lon="10.584951">
        <ele>72.177854</ele>
        <time>2021-06-18T07:57:05.870Z</time>
      </trkpt>
      <trkpt lat="53.772807" lon="10.584810">
        <ele>72.088612</ele>
        <time>2021-06-18T07:57:12.872Z</time>
      </trkpt>
      <trkpt lat="53.772734" lon="10.584711">
        <ele>72.002701</ele>
        <time>2021-06-18T07:57:19.867Z</time>
      </trkpt>
      <trkpt lat="53.772652" lon="10.584606">
        <ele>71.908267</ele>
        <time>2021-06-18T07:57:25.871Z</time>
      </trkpt>
      <trkpt lat="53.772579" lon="10.584494">
        <ele>71.817776</ele>
        <time>2021-06-18T07:57:31.873Z</time>
      </trkpt>
      <trkpt lat="53.772507" lon="10.584395">
        <ele>71.732579</ele>
        <time>2021-06-18T07:57:36.874Z</time>
      </trkpt>
      <trkpt lat="53.772451" lon="10.584258">
        <ele>71.642174</ele>
        <time>2021-06-18T07:57:45.878Z</time>
      </trkpt>
      <trkpt lat="53.772394" lon="10.584115">
        <ele>71.548563</ele>
        <time>2021-06-18T07:57:52.872Z</time>
      </trkpt>
      <trkpt lat="53.772318" lon="10.584009">
        <ele>71.458117</ele>
        <time>2021-06-18T07:57:58.887Z</time>
      </trkpt>
      <trkpt lat="53.772240" lon="10.583891">
        <ele>71.362034</ele>
        <time>2021-06-18T07:58:04.882Z</time>
      </trkpt>
      <trkpt lat="53.772183" lon="10.583770">
        <ele>71.278055</ele>
        <time>2021-06-18T07:58:10.873Z</time>
      </trkpt>
      <trkpt lat="53.772158" lon="10.583612">
        <ele>71.189285</ele>
        <time>2021-06-18T07:58:16.883Z</time>
      </trkpt>
      <trkpt lat="53.772167" lon="10.583433">
        <ele>71.091786</ele>
        <time>2021-06-18T07:58:21.880Z</time>
      </trkpt>
      <trkpt lat="53.772183" lon="10.583274">
        <ele>71.004251</ele>
        <time>2021-06-18T07:58:26.868Z</time>
      </trkpt>
      <trkpt lat="53.772256" lon="10.583161">
        <ele>70.913394</ele>
        <time>2021-06-18T07:58:38.868Z</time>
      </trkpt>
      <trkpt lat="53.772330" lon="10.583039">
        <ele>70.818515</ele>
        <time>2021-06-18T07:58:41.871Z</time>
      </trkpt>
      <trkpt lat="53.772333" lon="10.582880">
        <ele>70.732178</ele>
        <time>2021-06-18T07:58:45.875Z</time>
      </trkpt>
      <trkpt lat="53.772343" lon="10.582716">
        <ele>70.642699</ele>
        <time>2021-06-18T07:58:51.876Z</time>
      </trkpt>
      <trkpt lat="53.772370" lon="10.582565">
        <ele>70.475461</ele>
        <time>2021-06-18T07:58:58.868Z</time>
      </trkpt>
      <trkpt lat="53.772359" lon="10.582412">
        <ele>70.216145</ele>
        <time>2021-06-18T07:59:04.865Z</time>
      </trkpt>
      <trkpt lat="53.772372" lon="10.582249">
        <ele>69.939418</ele>
        <time>2021-06-18T07:59:10.877Z</time>
      </trkpt>
      <trkpt lat="53.772392" lon="10.582088">
        <ele>69.662621</ele>
        <time>2021-06-18T07:59:16.881Z</time>
      </trkpt>
      <trkpt lat="53.772432" lon="10.581933">
        <ele>69.378061</ele>
        <time>2021-06-18T07:59:22.868Z</time>
      </trkpt>
      <trkpt lat="53.772466" lon="10.581791">
        <ele>69.120289</ele>
        <time>2021-06-18T07:59:28.875Z</time>
      </trkpt>
      <trkpt lat="53.772486" lon="10.581632">
        <ele>68.846786</ele>
        <time>2021-06-18T07:59:36.862Z</time>
      </trkpt>
      <trkpt lat="53.772502" lon="10.581479">
        <ele>68.585370</ele>
        <time>2021-06-18T07:59:42.862Z</time>
      </trkpt>
      <trkpt lat="53.772526" lon="10.581316">
        <ele>68.302746</ele>
        <time>2021-06-18T07:59:48.864Z</time>
      </trkpt>
      <trkpt lat="53.772559" lon="10.581164">
        <ele>68.030303</ele>
        <time>2021-06-18T07:59:53.868Z</time>
      </trkpt>
      <trkpt lat="53.772598" lon="10.581002">
        <ele>67.735999</ele>
        <time>2021-06-18T07:59:59.871Z</time>
      </trkpt>
      <trkpt lat="53.772631" lon="10.580835">
        <ele>67.439739</ele>
        <time>2021-06-18T08:00:05.868Z</time>
      </trkpt>
      <trkpt lat="53.772653" lon="10.580687">
        <ele>67.182980</ele>
        <time>2021-06-18T08:00:11.872Z</time>
      </trkpt>
      <trkpt lat="53.772648" lon="10.580523">
        <ele>66.906690</ele>
        <time>2021-06-18T08:00:19.859Z</time>
      </trkpt>
      <trkpt lat="53.772651" lon="10.580356">
        <ele>66.625590</ele>
        <time>2021-06-18T08:00:26.862Z</time>
      </trkpt>
      <trkpt lat="53.772600" lon="10.580205">
        <ele>66.332979</ele>
        <time>2021-06-18T08:00:35.873Z</time>
      </trkpt>
      <trkpt lat="53.772525" lon="10.580085">
        <ele>66.039126</ele>
        <time>2021-06-18T08:00:40.867Z</time>
      </trkpt>
      <trkpt lat="53.772459" lon="10.579962">
        <ele>65.759612</ele>
        <time>2021-06-18T08:00:46.869Z</time>
      </trkpt>
      <trkpt lat="53.772401" lon="10.579816">
        <ele>65.471678</ele>
        <time>2021-06-18T08:00:54.856Z</time>
      </trkpt>
      <trkpt lat="53.772353" lon="10.579675">
        <ele>65.383472</ele>
        <time>2021-06-18T08:01:00.874Z</time>
      </trkpt>
      <trkpt lat="53.772292" lon="10.579525">
        <ele>65.284771</ele>
        <time>2021-06-18T08:01:06.882Z</time>
      </trkpt>
      <trkpt lat="53.772243" lon="10.579378">
        <ele>65.193286</ele>
        <time>2021-06-18T08:01:11.876Z</time>
      </trkpt>
      <trkpt lat="53.772189" lon="10.579244">
        <ele>65.105368</ele>
        <time>2021-06-18T08:01:16.873Z</time>
      </trkpt>
      <trkpt lat="53.772150" lon="10.579100">
        <ele>65.019503</ele>
        <time>2021-06-18T08:01:22.865Z</time>
      </trkpt>
      <trkpt lat="53.772099" lon="10.578955">
        <ele>64.928036</ele>
        <time>2021-06-18T08:01:28.876Z</time>
      </trkpt>
      <trkpt lat="53.772058" lon="10.578802">
        <ele>64.836971</ele>
        <time>2021-06-18T08:01:35.871Z</time>
      </trkpt>
      <trkpt lat="53.772022" lon="10.578657">
        <ele>64.751716</ele>
        <time>2021-06-18T08:01:40.880Z</time>
      </trkpt>
      <trkpt lat="53.771974" lon="10.578520">
        <ele>64.665382</ele>
        <time>2021-06-18T08:01:49.872Z</time>
      </trkpt>
      <trkpt lat="53.771937" lon="10.578373">
        <ele>64.578770</ele>
        <time>2021-06-18T08:01:56.869Z</time>
      </trkpt>
      <trkpt lat="53.771876" lon="10.578226">
        <ele>64.481404</ele>
        <time>2021-06-18T08:02:02.868Z</time>
      </trkpt>
      <trkpt lat="53.771838" lon="10.578071">
        <ele>64.390439</ele>
        <time>2021-06-18T08:02:08.863Z</time>
      </trkpt>
      <trkpt lat="53.771777" lon="10.577921">
        <ele>64.291738</ele>
        <time>2021-06-18T08:02:14.864Z</time>
      </trkpt>
      <trkpt lat="53.771723" lon="10.577790">
        <ele>64.205158</ele>
        <time>2021-06-18T08:02:19.863Z</time>
      </trkpt>
      <trkpt lat="53.771670" lon="10.577648">
        <ele>64.114118</ele>
        <time>2021-06-18T08:02:26.860Z</time>
      </trkpt>
      <trkpt lat="53.771625" lon="10.577500">
        <ele>64.023895</ele>
        <time>2021-06-18T08:02:32.858Z</time>
      </trkpt>
      <trkpt lat="53.771566" lon="10.577374">
        <ele>63.936753</ele>
        <time>2021-06-18T08:02:38.853Z</time>
      </trkpt>
      <trkpt lat="53.771497" lon="10.577250">
        <ele>63.844429</ele>
        <time>2021-06-18T08:02:44.873Z</time>
      </trkpt>
      <trkpt lat="53.771443" lon="10.577108">
        <ele>63.770319</ele>
        <time>2021-06-18T08:02:50.872Z</time>
      </trkpt>
      <trkpt lat="53.771391" lon="10.576981">
        <ele>63.706597</ele>
        <time>2021-06-18T08:02:56.865Z</time>
      </trkpt>
      <trkpt lat="53.771317" lon="10.576886">
        <ele>63.641774</ele>
        <time>2021-06-18T08:03:02.870Z</time>
      </trkpt>
      <trkpt lat="53.771248" lon="10.576766">
        <ele>63.572723</ele>
        <time>2021-06-18T08:03:09.878Z</time>
      </trkpt>
      <trkpt lat="53.771181" lon="10.576653">
        <ele>63.506706</ele>
        <time>2021-06-18T08:03:15.878Z</time>
      </trkpt>
      <trkpt lat="53.771115" lon="10.576531">
        <ele>63.438491</ele>
        <time>2021-06-18T08:03:22.866Z</time>
      </trkpt>
      <trkpt lat="53.771046" lon="10.576424">
        <ele>63.373175</ele>
        <time>2021-06-18T08:03:29.858Z</time>
      </trkpt>
      <trkpt lat="53.770971" lon="10.576315">
        <ele>63.304179</ele>
        <time>2021-06-18T08:03:35.872Z</time>
      </trkpt>
      <trkpt lat="53.770905" lon="10.576208">
        <ele>63.240391</ele>
        <time>2021-06-18T08:03:40.874Z</time>
      </trkpt>
      <trkpt lat="53.770838" lon="10.576099">
        <ele>63.175528</ele>
        <time>2021-06-18T08:03:45.881Z</time>
      </trkpt>
      <trkpt lat="53.770768" lon="10.575971">
        <ele>63.103602</ele>
        <time>2021-06-18T08:03:51.868Z</time>
      </trkpt>
      <trkpt lat="53.770689" lon="10.575856">
        <ele>63.030876</ele>
        <time>2021-06-18T08:03:58.864Z</time>
      </trkpt>
      <trkpt lat="53.770624" lon="10.575735">
        <ele>62.963435</ele>
        <time>2021-06-18T08:04:05.865Z</time>
      </trkpt>
      <trkpt lat="53.770562" lon="10.575604">
        <ele>62.894216</ele>
        <time>2021-06-18T08:04:12.862Z</time>
      </trkpt>
      <trkpt lat="53.770490" lon="10.575485">
        <ele>62.823977</ele>
        <time>2021-06-18T08:04:18.878Z</time>
      </trkpt>
      <trkpt lat="53.770425" lon="10.575378">
        <ele>62.760690</ele>
        <time>2021-06-18T08:04:23.880Z</time>
      </trkpt>
      <trkpt lat="53.770367" lon="10.575248">
        <ele>62.693510</ele>
        <time>2021-06-18T08:04:29.885Z</time>
      </trkpt>
      <trkpt lat="53.770283" lon="10.575150">
        <ele>62.622306</ele>
        <time>2021-06-18T08:04:36.884Z</time>
      </trkpt>
      <trkpt lat="53.770224" lon="10.575021">
        <ele>62.551452</ele>
        <time>2021-06-18T08:04:43.885Z</time>
      </trkpt>
      <trkpt lat="53.770152" lon="10.574916">
        <ele>62.469839</ele>
        <time>2021-06-18T08:04:49.869Z</time>
      </trkpt>
      <trkpt lat="53.770082" lon="10.574818">
        <ele>62.391830</ele>
        <time>2021-06-18T08:04:57.876Z</time>
      </trkpt>
      <trkpt lat="53.770017" lon="10.574682">
        <ele>62.303075</ele>
        <time>2021-06-18T08:05:04.882Z</time>
      </trkpt>
      <trkpt lat="53.769948" lon="10.574572">
        <ele>62.221676</ele>
        <time>2021-06-18T08:05:09.871Z</time>
      </trkpt>
      <trkpt lat="53.769890" lon="10.574437">
        <ele>62.136982</ele>
        <time>2021-06-18T08:05:15.871Z</time>
      </trkpt>
      <trkpt lat="53.769826" lon="10.574320">
        <ele>62.056083</ele>
        <time>2021-06-18T08:05:22.871Z</time>
      </trkpt>
      <trkpt lat="53.769758" lon="10.574191">
        <ele>61.968367</ele>
        <time>2021-06-18T08:05:28.886Z</time>
      </trkpt>
      <trkpt lat="53.769700" lon="10.574075">
        <ele>61.891263</ele>
        <time>2021-06-18T08:05:33.874Z</time>
      </trkpt>
      <trkpt lat="53.769641" lon="10.574211">
        <ele>61.805653</ele>
        <time>2021-06-18T08:05:57.870Z</time>
      </trkpt>
      <trkpt lat="53.769565" lon="10.574304">
        <ele>61.725121</ele>
        <time>2021-06-18T08:06:02.887Z</time>
      </trkpt>
      <trkpt lat="53.769476" lon="10.574363">
        <ele>61.643050</ele>
        <time>2021-06-18T08:06:08.873Z</time>
      </trkpt>
      <trkpt lat="53.769380" lon="10.574419">
        <ele>61.555863</ele>
        <time>2021-06-18T08:06:15.878Z</time>
      </trkpt>
      <trkpt lat="53.769289" lon="10.574478">
        <ele>61.472190</ele>
        <time>2021-06-18T08:06:23.022Z</time>
      </trkpt>
      <trkpt lat="53.769198" lon="10.574511">
        <ele>61.392283</ele>
        <time>2021-06-18T08:06:28.879Z</time>
      </trkpt>
      <trkpt lat="53.769108" lon="10.574572">
        <ele>61.309039</ele>
        <time>2021-06-18T08:06:33.877Z</time>
      </trkpt>
      <trkpt lat="53.769014" lon="10.574628">
        <ele>61.223474</ele>
        <time>2021-06-18T08:06:39.866Z</time>
      </trkpt>
      <trkpt lat="53.768920" lon="10.574674">
        <ele>61.139457</ele>
        <time>2021-06-18T08:06:46.867Z</time>
      </trkpt>
      <trkpt lat="53.768828" lon="10.574729">
        <ele>61.055680</ele>
        <time>2021-06-18T08:06:53.867Z</time>
      </trkpt>
      <trkpt lat="53.768729" lon="10.574794">
        <ele>60.915515</ele>
        <time>2021-06-18T08:07:00.881Z</time>
      </trkpt>
      <trkpt lat="53.768633" lon="10.574850">
        <ele>60.759151</ele>
        <time>2021-06-18T08:07:07.859Z</time>
      </trkpt>
      <trkpt lat="53.768536" lon="10.574913">
        <ele>60.599160</ele>
        <time>2021-06-18T08:07:13.860Z</time>
      </trkpt>
      <trkpt lat="53.768448" lon="10.574988">
        <ele>60.447433</ele>
        <time>2021-06-18T08:07:18.860Z</time>
      </trkpt>
      <trkpt lat="53.768357" lon="10.575060">
        <ele>60.292742</ele>
        <time>2021-06-18T08:07:24.872Z</time>
      </trkpt>
      <trkpt lat="53.768267" lon="10.575102">
        <ele>60.148981</ele>
        <time>2021-06-18T08:07:31.864Z</time>
      </trkpt>
      <trkpt lat="53.768167" lon="10.575161">
        <ele>59.985903</ele>
        <time>2021-06-18T08:07:38.874Z</time>
      </trkpt>
      <trkpt lat="53.768077" lon="10.575212">
        <ele>59.839751</ele>
        <time>2021-06-18T08:07:44.877Z</time>
      </trkpt>
      <trkpt lat="53.767985" lon="10.575251">
        <ele>59.693707</ele>
        <time>2021-06-18T08:07:50.852Z</time>
      </trkpt>
      <trkpt lat="53.767890" lon="10.575310">
        <ele>59.537878</ele>
        <time>2021-06-18T08:07:56.865Z</time>
      </trkpt>
      <trkpt lat="53.767798" lon="10.575371">
        <ele>59.385722</ele>
        <time>2021-06-18T08:08:02.877Z</time>
      </trkpt>
      <trkpt lat="53.767710" lon="10.575421">
        <ele>59.242779</ele>
        <time>2021-06-18T08:08:09.867Z</time>
      </trkpt>
      <trkpt lat="53.767626" lon="10.575485">
        <ele>59.100922</ele>
        <time>2021-06-18T08:08:15.863Z</time>
      </trkpt>
      <trkpt lat="53.767532" lon="10.575534">
        <ele>58.949463</ele>
        <time>2021-06-18T08:08:22.871Z</time>
      </trkpt>
      <trkpt lat="53.767429" lon="10.575594">
        <ele>58.781721</ele>
        <time>2021-06-18T08:08:28.870Z</time>
      </trkpt>
      <trkpt lat="53.767342" lon="10.575683">
        <ele>58.625170</ele>
        <time>2021-06-18T08:08:34.867Z</time>
      </trkpt>
      <trkpt lat="53.767252" lon="10.575753">
        <ele>58.472641</ele>
        <time>2021-06-18T08:08:40.876Z</time>
      </trkpt>
      <trkpt lat="53.767150" lon="10.575806">
        <ele>58.308337</ele>
        <time>2021-06-18T08:08:47.871Z</time>
      </trkpt>
      <trkpt lat="53.767056" lon="10.575836">
        <ele>58.630662</ele>
        <time>2021-06-18T08:08:53.867Z</time>
      </trkpt>
      <trkpt lat="53.766971" lon="10.575892">
        <ele>59.180313</ele>
        <time>2021-06-18T08:08:59.875Z</time>
      </trkpt>
      <trkpt lat="53.766884" lon="10.575968">
        <ele>59.770309</ele>
        <time>2021-06-18T08:09:05.871Z</time>
      </trkpt>
      <trkpt lat="53.766792" lon="10.576043">
        <ele>60.385676</ele>
        <time>2021-06-18T08:09:11.877Z</time>
      </trkpt>
      <trkpt lat="53.766695" lon="10.576084">
        <ele>60.988137</ele>
        <time>2021-06-18T08:09:19.862Z</time>
      </trkpt>
      <trkpt lat="53.766606" lon="10.576127">
        <ele>61.545866</ele>
        <time>2021-06-18T08:09:26.870Z</time>
      </trkpt>
      <trkpt lat="53.766519" lon="10.576176">
        <ele>62.098390</ele>
        <time>2021-06-18T08:09:33.877Z</time>
      </trkpt>
      <trkpt lat="53.766431" lon="10.576212">
        <ele>62.643935</ele>
        <time>2021-06-18T08:09:38.878Z</time>
      </trkpt>
      <trkpt lat="53.766344" lon="10.576277">
        <ele>63.217017</ele>
        <time>2021-06-18T08:09:44.871Z</time>
      </trkpt>
      <trkpt lat="53.766260" lon="10.576354">
        <ele>63.792700</ele>
        <time>2021-06-18T08:09:50.875Z</time>
      </trkpt>
      <trkpt lat="53.766170" lon="10.576410">
        <ele>64.370531</ele>
        <time>2021-06-18T08:09:57.853Z</time>
      </trkpt>
      <trkpt lat="53.766077" lon="10.576390">
        <ele>64.935432</ele>
        <time>2021-06-18T08:10:04.872Z</time>
      </trkpt>
      <trkpt lat="53.765985" lon="10.576339">
        <ele>65.518800</ele>
        <time>2021-06-18T08:10:11.871Z</time>
      </trkpt>
      <trkpt lat="53.765896" lon="10.576290">
        <ele>66.082772</ele>
        <time>2021-06-18T08:10:17.884Z</time>
      </trkpt>
      <trkpt lat="53.765806" lon="10.576233">
        <ele>66.661843</ele>
        <time>2021-06-18T08:10:24.864Z</time>
      </trkpt>
      <trkpt lat="53.765710" lon="10.576155">
        <ele>67.303565</ele>
        <time>2021-06-18T08:10:30.870Z</time>
      </trkpt>
      <trkpt lat="53.765608" lon="10.576112">
        <ele>67.936984</ele>
        <time>2021-06-18T08:10:36.871Z</time>
      </trkpt>
      <trkpt lat="53.765509" lon="10.576120">
        <ele>68.534210</ele>
        <time>2021-06-18T08:10:43.867Z</time>
      </trkpt>
      <trkpt lat="53.765425" lon="10.576215">
        <ele>69.063325</ele>
        <time>2021-06-18T08:10:50.879Z</time>
      </trkpt>
      <trkpt lat="53.765364" lon="10.576367">
        <ele>68.637613</ele>
        <time>2021-06-18T08:10:56.883Z</time>
      </trkpt>
      <trkpt lat="53.765338" lon="10.576513">
        <ele>68.284289</ele>
        <time>2021-06-18T08:11:02.871Z</time>
      </trkpt>
      <trkpt lat="53.765277" lon="10.576641">
        <ele>67.903303</ele>
        <time>2021-06-18T08:11:09.884Z</time>
      </trkpt>
      <trkpt lat="53.765221" lon="10.576760">
        <ele>67.550847</ele>
        <time>2021-06-18T08:11:14.883Z</time>
      </trkpt>
      <trkpt lat="53.765163" lon="10.576908">
        <ele>67.139383</ele>
        <time>2021-06-18T08:11:20.891Z</time>
      </trkpt>
      <trkpt lat="53.765110" lon="10.577062">
        <ele>66.726463</ele>
        <time>2021-06-18T08:11:27.858Z</time>
      </trkpt>
      <trkpt lat="53.765081" lon="10.577229">
        <ele>66.323143</ele>
        <time>2021-06-18T08:11:33.879Z</time>
      </trkpt>
      <trkpt lat="53.765093" lon="10.577412">
        <ele>65.896501</ele>
        <time>2021-06-18T08:11:43.873Z</time>
      </trkpt>
      <trkpt lat="53.765145" lon="10.577543">
        <ele>65.530858</ele>
        <time>2021-06-18T08:11:47.864Z</time>
      </trkpt>
      <trkpt lat="53.765191" lon="10.577688">
        <ele>65.149538</ele>
        <time>2021-06-18T08:11:52.866Z</time>
      </trkpt>
      <trkpt lat="53.765240" lon="10.577823">
        <ele>64.782454</ele>
        <time>2021-06-18T08:11:57.866Z</time>
      </trkpt>
      <trkpt lat="53.765270" lon="10.577970">
        <ele>64.422102</ele>
        <time>2021-06-18T08:12:03.886Z</time>
      </trkpt>
      <trkpt lat="53.765300" lon="10.578134">
        <ele>64.024307</ele>
        <time>2021-06-18T08:12:10.873Z</time>
      </trkpt>
      <trkpt lat="53.765333" lon="10.578287">
        <ele>63.646918</ele>
        <time>2021-06-18T08:12:18.875Z</time>
      </trkpt>
      <trkpt lat="53.765373" lon="10.578430">
        <ele>63.280337</ele>
        <time>2021-06-18T08:12:24.879Z</time>
      </trkpt>
      <trkpt lat="53.765415" lon="10.578576">
        <ele>62.904096</ele>
        <time>2021-06-18T08:12:30.884Z</time>
      </trkpt>
      <trkpt lat="53.765460" lon="10.578735">
        <ele>62.495616</ele>
        <time>2021-06-18T08:12:36.870Z</time>
      </trkpt>
      <trkpt lat="53.765492" lon="10.578887">
        <ele>62.121737</ele>
        <time>2021-06-18T08:12:42.888Z</time>
      </trkpt>
      <trkpt lat="53.765514" lon="10.579038">
        <ele>62.216001</ele>
        <time>2021-06-18T08:12:49.880Z</time>
      </trkpt>
      <trkpt lat="53.765545" lon="10.579202">
        <ele>62.459088</ele>
        <time>2021-06-18T08:12:55.875Z</time>
      </trkpt>
      <trkpt lat="53.765578" lon="10.579361">
        <ele>62.697000</ele>
        <time>2021-06-18T08:13:02.867Z</time>
      </trkpt>
      <trkpt lat="53.765602" lon="10.579513">
        <ele>62.919118</ele>
        <time>2021-06-18T08:13:09.863Z</time>
      </trkpt>
      <trkpt lat="53.765652" lon="10.579655">
        <ele>63.152468</ele>
        <time>2021-06-18T08:13:15.882Z</time>
      </trkpt>
      <trkpt lat="53.765692" lon="10.579802">
        <ele>63.380937</ele>
        <time>2021-06-18T08:13:21.877Z</time>
      </trkpt>
      <trkpt lat="53.765719" lon="10.579953">
        <ele>63.603659</ele>
        <time>2021-06-18T08:13:27.869Z</time>
      </trkpt>
      <trkpt lat="53.765736" lon="10.580105">
        <ele>63.822059</ele>
        <time>2021-06-18T08:13:33.873Z</time>
      </trkpt>
      <trkpt lat="53.765776" lon="10.580251">
        <ele>64.049246</ele>
        <time>2021-06-18T08:13:39.875Z</time>
      </trkpt>
      <trkpt lat="53.765834" lon="10.580400">
        <ele>64.301121</ele>
        <time>2021-06-18T08:13:45.867Z</time>
      </trkpt>
      <trkpt lat="53.765877" lon="10.580534">
        <ele>64.516382</ele>
        <time>2021-06-18T08:13:50.870Z</time>
      </trkpt>
      <trkpt lat="53.765899" lon="10.580684">
        <ele>64.734572</ele>
        <time>2021-06-18T08:13:55.868Z</time>
      </trkpt>
      <trkpt lat="53.765911" lon="10.580836">
        <ele>64.951070</ele>
        <time>2021-06-18T08:14:01.871Z</time>
      </trkpt>
      <trkpt lat="53.765953" lon="10.580987">
        <ele>65.186673</ele>
        <time>2021-06-18T08:14:07.872Z</time>
      </trkpt>
      <trkpt lat="53.765990" lon="10.581129">
        <ele>65.405761</ele>
        <time>2021-06-18T08:14:13.865Z</time>
      </trkpt>
      <trkpt lat="53.766020" lon="10.581288">
        <ele>65.641394</ele>
        <time>2021-06-18T08:14:21.872Z</time>
      </trkpt>
      <trkpt lat="53.766032" lon="10.581449">
        <ele>65.870491</ele>
        <time>2021-06-18T08:14:27.866Z</time>
      </trkpt>
      <trkpt lat="53.766070" lon="10.581601">
        <ele>66.103487</ele>
        <time>2021-06-18T08:14:34.866Z</time>
      </trkpt>
      <trkpt lat="53.766112" lon="10.581749">
        <ele>66.335265</ele>
        <time>2021-06-18T08:14:41.892Z</time>
      </trkpt>
      <trkpt lat="53.766156" lon="10.581896">
        <ele>66.171698</ele>
        <time>2021-06-18T08:14:47.866Z</time>
      </trkpt>
      <trkpt lat="53.766201" lon="10.582056">
        <ele>65.987185</ele>
        <time>2021-06-18T08:14:53.863Z</time>
      </trkpt>
      <trkpt lat="53.766210" lon="10.582214">
        <ele>65.821893</ele>
        <time>2021-06-18T08:15:02.885Z</time>
      </trkpt>
      <trkpt lat="53.766262" lon="10.582372">
        <ele>65.633577</ele>
        <time>2021-06-18T08:15:08.873Z</time>
      </trkpt>
      <trkpt lat="53.766351" lon="10.582431">
        <ele>65.465175</ele>
        <time>2021-06-18T08:15:14.883Z</time>
      </trkpt>
      <trkpt lat="53.766439" lon="10.582385">
        <ele>65.302910</ele>
        <time>2021-06-18T08:15:20.878Z</time>
      </trkpt>
      <trkpt lat="53.766541" lon="10.582308">
        <ele>65.106135</ele>
        <time>2021-06-18T08:15:29.866Z</time>
      </trkpt>
      <trkpt lat="53.766629" lon="10.582230">
        <ele>64.931114</ele>
        <time>2021-06-18T08:15:35.868Z</time>
      </trkpt>
      <trkpt lat="53.766717" lon="10.582188">
        <ele>64.770030</ele>
        <time>2021-06-18T08:15:41.863Z</time>
      </trkpt>
      <trkpt lat="53.766810" lon="10.582176">
        <ele>64.605712</ele>
        <time>2021-06-18T08:15:48.864Z</time>
      </trkpt>
      <trkpt lat="53.766884" lon="10.582286">
        <ele>64.432171</ele>
        <time>2021-06-18T08:15:56.863Z</time>
      </trkpt>
      <trkpt lat="53.766919" lon="10.582458">
        <ele>64.242748</ele>
        <time>2021-06-18T08:16:01.871Z</time>
      </trkpt>
      <trkpt lat="53.766934" lon="10.582619">
        <ele>64.073027</ele>
        <time>2021-06-18T08:16:07.880Z</time>
      </trkpt>
      <trkpt lat="53.766968" lon="10.582766">
        <ele>63.908651</ele>
        <time>2021-06-18T08:16:14.865Z</time>
      </trkpt>
      <trkpt lat="53.767046" lon="10.582871">
        <ele>63.733044</ele>
        <time>2021-06-18T08:16:27.868Z</time>
      </trkpt>
      <trkpt lat="53.767059" lon="10.583041">
        <ele>63.554546</ele>
        <time>2021-06-18T08:16:32.876Z</time>
      </trkpt>
      <trkpt lat="53.767105" lon="10.583190">
        <ele>63.379501</ele>
        <time>2021-06-18T08:16:41.862Z</time>
      </trkpt>
      <trkpt lat="53.767127" lon="10.583360">
        <ele>63.198285</ele>
        <time>2021-06-18T08:16:46.861Z</time>
      </trkpt>
      <trkpt lat="53.767146" lon="10.583521">
        <ele>62.925707</ele>
        <time>2021-06-18T08:16:52.860Z</time>
      </trkpt>
      <trkpt lat="53.767155" lon="10.583690">
        <ele>62.624160</ele>
        <time>2021-06-18T08:16:59.880Z</time>
      </trkpt>
      <trkpt lat="53.767177" lon="10.583837">
        <ele>62.354681</ele>
        <time>2021-06-18T08:17:04.880Z</time>
      </trkpt>
      <trkpt lat="53.767209" lon="10.583986">
        <ele>62.072955</ele>
        <time>2021-06-18T08:17:09.868Z</time>
      </trkpt>
      <trkpt lat="53.767254" lon="10.584138">
        <ele>61.770845</ele>
        <time>2021-06-18T08:17:14.880Z</time>
      </trkpt>
      <trkpt lat="53.767302" lon="10.584289">
        <ele>61.466157</ele>
        <time>2021-06-18T08:17:21.880Z</time>
      </trkpt>
      <trkpt lat="53.767333" lon="10.584432">
        <ele>61.195479</ele>
        <time>2021-06-18T08:17:27.872Z</time>
      </trkpt>
      <trkpt lat="53.767364" lon="10.584603">
        <ele>60.877622</ele>
        <time>2021-06-18T08:17:33.870Z</time>
      </trkpt>
      <trkpt lat="53.767412" lon="10.584761">
        <ele>60.561924</ele>
        <time>2021-06-18T08:17:39.879Z</time>
      </trkpt>
      <trkpt lat="53.767460" lon="10.584893">
        <ele>60.286509</ele>
        <time>2021-06-18T08:17:46.880Z</time>
      </trkpt>
      <trkpt lat="53.767496" lon="10.585041">
        <ele>60.002098</ele>
        <time>2021-06-18T08:17:53.864Z</time>
      </trkpt>
      <trkpt lat="53.767511" lon="10.585201">
        <ele>59.714209</ele>
        <time>2021-06-18T08:17:59.872Z</time>
      </trkpt>
      <trkpt lat="53.767540" lon="10.585365">
        <ele>59.410002</ele>
        <time>2021-06-18T08:18:06.877Z</time>
      </trkpt>
      <trkpt lat="53.767575" lon="10.585530">
        <ele>59.098472</ele>
        <time>2021-06-18T08:18:13.878Z</time>
      </trkpt>
      <trkpt lat="53.767615" lon="10.585673">
        <ele>58.817327</ele>
        <time>2021-06-18T08:18:18.882Z</time>
      </trkpt>
      <trkpt lat="53.767652" lon="10.585822">
        <ele>58.530122</ele>
        <time>2021-06-18T08:18:24.870Z</time>
      </trkpt>
      <trkpt lat="53.767691" lon="10.585986">
        <ele>58.215976</ele>
        <time>2021-06-18T08:18:31.888Z</time>
      </trkpt>
      <trkpt lat="53.767726" lon="10.586136">
        <ele>57.929394</ele>
        <time>2021-06-18T08:18:37.887Z</time>
      </trkpt>
      <trkpt lat="53.767764" lon="10.586288">
        <ele>57.914861</ele>
        <time>2021-06-18T08:18:44.866Z</time>
      </trkpt>
      <trkpt lat="53.767801" lon="10.586448">
        <ele>58.278513</ele>
        <time>2021-06-18T08:18:51.882Z</time>
      </trkpt>
      <trkpt lat="53.767838" lon="10.586597">
        <ele>58.620589</ele>
        <time>2021-06-18T08:18:57.882Z</time>
      </trkpt>
      <trkpt lat="53.767879" lon="10.586760">
        <ele>58.995536</ele>
        <time>2021-06-18T08:19:04.867Z</time>
      </trkpt>
      <trkpt lat="53.767909" lon="10.586926">
        <ele>59.362947</ele>
        <time>2021-06-18T08:19:11.872Z</time>
      </trkpt>
      <trkpt lat="53.767931" lon="10.587091">
        <ele>59.720961</ele>
        <time>2021-06-18T08:19:18.873Z</time>
      </trkpt>
      <trkpt lat="53.767966" lon="10.587235">
        <ele>60.050514</ele>
        <time>2021-06-18T08:19:24.874Z</time>
      </trkpt>
      <trkpt lat="53.768019" lon="10.587384">
        <ele>60.418592</ele>
        <time>2021-06-18T08:19:30.872Z</time>
      </trkpt>
      <trkpt lat="53.768082" lon="10.587522">
        <ele>60.787662</ele>
        <time>2021-06-18T08:19:36.881Z</time>
      </trkpt>
      <trkpt lat="53.768112" lon="10.587686">
        <ele>61.151026</ele>
        <time>2021-06-18T08:19:43.861Z</time>
      </trkpt>
      <trkpt lat="53.768118" lon="10.587846">
        <ele>61.490360</ele>
        <time>2021-06-18T08:19:48.866Z</time>
      </trkpt>
      <trkpt lat="53.768148" lon="10.587999">
        <ele>61.831552</ele>
        <time>2021-06-18T08:19:56.877Z</time>
      </trkpt>
      <trkpt lat="53.768175" lon="10.588149">
        <ele>62.163435</ele>
        <time>2021-06-18T08:20:03.866Z</time>
      </trkpt>
      <trkpt lat="53.768209" lon="10.588301">
        <ele>62.507423</ele>
        <time>2021-06-18T08:20:09.866Z</time>
      </trkpt>
      <trkpt lat="53.768249" lon="10.588461">
        <ele>62.875123</ele>
        <time>2021-06-18T08:20:14.877Z</time>
      </trkpt>
      <trkpt lat="53.768294" lon="10.588596">
        <ele>63.203169</ele>
        <time>2021-06-18T08:20:19.875Z</time>
      </trkpt>
      <trkpt lat="53.768344" lon="10.588741">
        <ele>63.558484</ele>
        <time>2021-06-18T08:20:25.874Z</time>
      </trkpt>
      <trkpt lat="53.768372" lon="10.588893">
        <ele>63.895465</ele>
        <time>2021-06-18T08:20:31.880Z</time>
      </trkpt>
      <trkpt lat="53.768398" lon="10.589048">
        <ele>64.211840</ele>
        <time>2021-06-18T08:20:38.878Z</time>
      </trkpt>
      <trkpt lat="53.768434" lon="10.589195">
        <ele>64.290582</ele>
        <time>2021-06-18T08:20:44.881Z</time>
      </trkpt>
      <trkpt lat="53.768479" lon="10.589329">
        <ele>64.366849</ele>
        <time>2021-06-18T08:20:49.882Z</time>
      </trkpt>
      <trkpt lat="53.768515" lon="10.589471">
        <ele>64.443311</ele>
        <time>2021-06-18T08:20:54.880Z</time>
      </trkpt>
      <trkpt lat="53.768552" lon="10.589622">
        <ele>64.524202</ele>
        <time>2021-06-18T08:21:00.878Z</time>
      </trkpt>
      <trkpt lat="53.768584" lon="10.589764">
        <ele>64.599407</ele>
        <time>2021-06-18T08:21:08.878Z</time>
      </trkpt>
      <trkpt lat="53.768596" lon="10.589948">
        <ele>64.691014</ele>
        <time>2021-06-18T08:21:15.870Z</time>
      </trkpt>
      <trkpt lat="53.768622" lon="10.590097">
        <ele>64.767894</ele>
        <time>2021-06-18T08:21:20.873Z</time>
      </trkpt>
      <trkpt lat="53.768647" lon="10.590251">
        <ele>64.846925</ele>
        <time>2021-06-18T08:21:26.862Z</time>
      </trkpt>
      <trkpt lat="53.768699" lon="10.590389">
        <ele>64.927913</ele>
        <time>2021-06-18T08:21:34.880Z</time>
      </trkpt>
      <trkpt lat="53.768716" lon="10.590561">
        <ele>65.014211</ele>
        <time>2021-06-18T08:21:41.863Z</time>
      </trkpt>
      <trkpt lat="53.768739" lon="10.590712">
        <ele>65.091376</ele>
        <time>2021-06-18T08:21:47.864Z</time>
      </trkpt>
      <trkpt lat="53.768766" lon="10.590868">
        <ele>65.171816</ele>
        <time>2021-06-18T08:21:52.868Z</time>
      </trkpt>
      <trkpt lat="53.768802" lon="10.591017">
        <ele>65.251473</ele>
        <time>2021-06-18T08:21:58.874Z</time>
      </trkpt>
      <trkpt lat="53.768854" lon="10.591154">
        <ele>65.332044</ele>
        <time>2021-06-18T08:22:04.863Z</time>
      </trkpt>
      <trkpt lat="53.768895" lon="10.591309">
        <ele>65.416078</ele>
        <time>2021-06-18T08:22:11.879Z</time>
      </trkpt>
      <trkpt lat="53.768922" lon="10.591472">
        <ele>65.499848</ele>
        <time>2021-06-18T08:22:19.873Z</time>
      </trkpt>
      <trkpt lat="53.768946" lon="10.591626">
        <ele>65.578660</ele>
        <time>2021-06-18T08:22:26.877Z</time>
      </trkpt>
      <trkpt lat="53.768987" lon="10.591786">
        <ele>65.664959</ele>
        <time>2021-06-18T08:22:31.868Z</time>
      </trkpt>
      <trkpt lat="53.769035" lon="10.591931">
        <ele>65.510032</ele>
        <time>2021-06-18T08:22:36.882Z</time>
      </trkpt>
      <trkpt lat="53.769084" lon="10.592074">
        <ele>65.066825</ele>
        <time>2021-06-18T08:22:42.879Z</time>
      </trkpt>
      <trkpt lat="53.769115" lon="10.592234">
        <ele>64.615352</ele>
        <time>2021-06-18T08:22:49.876Z</time>
      </trkpt>
      <trkpt lat="53.769141" lon="10.592392">
        <ele>64.175591</ele>
        <time>2021-06-18T08:22:55.863Z</time>
      </trkpt>
      <trkpt lat="53.769168" lon="10.592558">
        <ele>63.713947</ele>
        <time>2021-06-18T08:23:01.880Z</time>
      </trkpt>
      <trkpt lat="53.769208" lon="10.592712">
        <ele>63.262911</ele>
        <time>2021-06-18T08:23:09.872Z</time>
      </trkpt>
      <trkpt lat="53.769243" lon="10.592864">
        <ele>62.825514</ele>
        <time>2021-06-18T08:23:15.869Z</time>
      </trkpt>
      <trkpt lat="53.769271" lon="10.593027">
        <ele>62.370377</ele>
        <time>2021-06-18T08:23:22.867Z</time>
      </trkpt>
      <trkpt lat="53.769295" lon="10.593178">
        <ele>61.951116</ele>
        <time>2021-06-18T08:23:28.868Z</time>
      </trkpt>
      <trkpt lat="53.769328" lon="10.593334">
        <ele>61.506849</ele>
        <time>2021-06-18T08:23:33.879Z</time>
      </trkpt>
      <trkpt lat="53.769350" lon="10.593494">
        <ele>61.066384</ele>
        <time>2021-06-18T08:23:39.874Z</time>
      </trkpt>
      <trkpt lat="53.769369" lon="10.593651">
        <ele>60.636686</ele>
        <time>2021-06-18T08:23:46.870Z</time>
      </trkpt>
      <trkpt lat="53.769389" lon="10.593813">
        <ele>60.192941</ele>
        <time>2021-06-18T08:23:53.873Z</time>
      </trkpt>
      <trkpt lat="53.769429" lon="10.593968">
        <ele>59.739451</ele>
        <time>2021-06-18T08:23:59.869Z</time>
      </trkpt>
      <trkpt lat="53.769466" lon="10.594112">
        <ele>59.318437</ele>
        <time>2021-06-18T08:24:04.867Z</time>
      </trkpt>
      <trkpt lat="53.769503" lon="10.594270">
        <ele>58.862751</ele>
        <time>2021-06-18T08:24:11.875Z</time>
      </trkpt>
      <trkpt lat="53.769539" lon="10.594415">
        <ele>58.441055</ele>
        <time>2021-06-18T08:24:18.875Z</time>
      </trkpt>
      <trkpt lat="53.769574" lon="10.594581">
        <ele>57.968488</ele>
        <time>2021-06-18T08:24:25.879Z</time>
      </trkpt>
      <trkpt lat="53.769620" lon="10.594725">
        <ele>57.569546</ele>
        <time>2021-06-18T08:24:31.874Z</time>
      </trkpt>
      <trkpt lat="53.769663" lon="10.594879">
        <ele>57.984599</ele>
        <time>2021-06-18T08:24:37.869Z</time>
      </trkpt>
      <trkpt lat="53.769699" lon="10.595019">
        <ele>58.356655</ele>
        <time>2021-06-18T08:24:43.877Z</time>
      </trkpt>
      <trkpt lat="53.769722" lon="10.595187">
        <ele>58.776892</ele>
        <time>2021-06-18T08:24:49.870Z</time>
      </trkpt>
      <trkpt lat="53.769752" lon="10.595348">
        <ele>59.188268</ele>
        <time>2021-06-18T08:24:55.873Z</time>
      </trkpt>
      <trkpt lat="53.769785" lon="10.595493">
        <ele>59.566908</ele>
        <time>2021-06-18T08:25:01.866Z</time>
      </trkpt>
      <trkpt lat="53.769826" lon="10.595629">
        <ele>59.938948</ele>
        <time>2021-06-18T08:25:07.864Z</time>
      </trkpt>
      <trkpt lat="53.769842" lon="10.595779">
        <ele>60.310385</ele>
        <time>2021-06-18T08:25:13.865Z</time>
      </trkpt>
      <trkpt lat="53.769877" lon="10.595925">
        <ele>60.694323</ele>
        <time>2021-06-18T08:25:19.877Z</time>
      </trkpt>
      <trkpt lat="53.769897" lon="10.596083">
        <ele>61.088081</ele>
        <time>2021-06-18T08:25:25.865Z</time>
      </trkpt>
      <trkpt lat="53.769935" lon="10.596234">
        <ele>61.488017</ele>
        <time>2021-06-18T08:25:35.887Z</time>
      </trkpt>
      <trkpt lat="53.769974" lon="10.596396">
        <ele>61.914284</ele>
        <time>2021-06-18T08:25:41.893Z</time>
      </trkpt>
      <trkpt lat="53.770010" lon="10.596550">
        <ele>62.317851</ele>
        <time>2021-06-18T08:25:47.870Z</time>
      </trkpt>
      <trkpt lat="53.770042" lon="10.596713">
        <ele>62.736400</ele>
        <time>2021-06-18T08:25:54.855Z</time>
      </trkpt>
      <trkpt lat="53.770083" lon="10.596874">
        <ele>63.163606</ele>
        <time>2021-06-18T08:26:03.871Z</time>
      </trkpt>
      <trkpt lat="53.770123" lon="10.597019">
        <ele>63.553546</ele>
        <time>2021-06-18T08:26:08.878Z</time>
      </trkpt>
      <trkpt lat="53.770145" lon="10.597191">
        <ele>63.982390</ele>
        <time>2021-06-18T08:26:15.882Z</time>
      </trkpt>
      <trkpt lat="53.770171" lon="10.597340">
        <ele>64.360977</ele>
        <time>2021-06-18T08:26:22.885Z</time>
      </trkpt>
      <trkpt lat="53.770209" lon="10.597498">
        <ele>64.776659</ele>
        <time>2021-06-18T08:26:31.867Z</time>
      </trkpt>
      <trkpt lat="53.770230" lon="10.597646">
        <ele>64.912226</ele>
        <time>2021-06-18T08:26:40.871Z</time>
      </trkpt>
      <trkpt lat="53.770269" lon="10.597784">
        <ele>64.800423</ele>
        <time>2021-06-18T08:26:45.879Z</time>
      </trkpt>
      <trkpt lat="53.770311" lon="10.597943">
        <ele>64.673131</ele>
        <time>2021-06-18T08:26:50.875Z</time>
      </trkpt>
      <trkpt lat="53.770354" lon="10.598078">
        <ele>64.561042</ele>
        <time>2021-06-18T08:26:55.878Z</time>
      </trkpt>
      <trkpt lat="53.770392" lon="10.598239">
        <ele>64.434331</ele>
        <time>2021-06-18T08:27:02.875Z</time>
      </trkpt>
      <trkpt lat="53.770427" lon="10.598382">
        <ele>64.321204</ele>
        <time>2021-06-18T08:27:13.875Z</time>
      </trkpt>
      <trkpt lat="53.770464" lon="10.598524">
        <ele>64.207777</ele>
        <time>2021-06-18T08:27:19.874Z</time>
      </trkpt>
      <trkpt lat="53.770500" lon="10.598686">
        <ele>64.081279</ele>
        <time>2021-06-18T08:27:24.882Z</time>
      </trkpt>
      <trkpt lat="53.770552" lon="10.598823">
        <ele>63.962274</ele>
        <time>2021-06-18T08:27:31.878Z</time>
      </trkpt>
      <trkpt lat="53.770579" lon="10.598995">
        <ele>63.832201</ele>
        <time>2021-06-18T08:27:38.866Z</time>
      </trkpt>
      <trkpt lat="53.770594" lon="10.599153">
        <ele>63.715239</ele>
        <time>2021-06-18T08:27:43.881Z</time>
      </trkpt>
      <trkpt lat="53.770626" lon="10.599297">
        <ele>63.602796</ele>
        <time>2021-06-18T08:27:50.866Z</time>
      </trkpt>
      <trkpt lat="53.770645" lon="10.599453">
        <ele>63.486380</ele>
        <time>2021-06-18T08:27:56.866Z</time>
      </trkpt>
      <trkpt lat="53.770680" lon="10.599608">
        <ele>63.365104</ele>
        <time>2021-06-18T08:28:05.869Z</time>
      </trkpt>
      <trkpt lat="53.770717" lon="10.599752">
        <ele>63.250339</ele>
        <time>2021-06-18T08:28:10.859Z</time>
      </trkpt>
      <trkpt lat="53.770749" lon="10.599908">
        <ele>63.129647</ele>
        <time>2021-06-18T08:28:17.876Z</time>
      </trkpt>
      <trkpt lat="53.770778" lon="10.600065">
        <ele>63.009423</ele>
        <time>2021-06-18T08:28:22.866Z</time>
      </trkpt>
      <trkpt lat="53.770808" lon="10.600226">
        <ele>62.886039</ele>
        <time>2021-06-18T08:28:29.872Z</time>
      </trkpt>
      <trkpt lat="53.770836" lon="10.600372">
        <ele>62.773852</ele>
        <time>2021-06-18T08:28:36.891Z</time>
      </trkpt>
      <trkpt lat="53.770863" lon="10.600539">
        <ele>62.681926</ele>
        <time>2021-06-18T08:28:42.881Z</time>
      </trkpt>
      <trkpt lat="53.770902" lon="10.600680">
        <ele>62.609654</ele>
        <time>2021-06-18T08:28:48.866Z</time>
      </trkpt>
      <trkpt lat="53.770949" lon="10.600834">
        <ele>62.529192</ele>
        <time>2021-06-18T08:28:54.882Z</time>
      </trkpt>
      <trkpt lat="53.770993" lon="10.600993">
        <ele>62.447687</ele>
        <time>2021-06-18T08:29:00.891Z</time>
      </trkpt>
      <trkpt lat="53.771020" lon="10.601146">
        <ele>62.373560</ele>
        <time>2021-06-18T08:29:07.874Z</time>
      </trkpt>
      <trkpt lat="53.771026" lon="10.601334">
        <ele>62.286156</ele>
        <time>2021-06-18T08:29:14.863Z</time>
      </trkpt>
      <trkpt lat="53.771005" lon="10.601507">
        <ele>62.204166</ele>
        <time>2021-06-18T08:29:20.869Z</time>
      </trkpt>
      <trkpt lat="53.770946" lon="10.601621">
        <ele>62.133820</ele>
        <time>2021-06-18T08:29:26.876Z</time>
      </trkpt>
      <trkpt lat="53.770861" lon="10.601679">
        <ele>62.061828</ele>
        <time>2021-06-18T08:29:32.875Z</time>
      </trkpt>
      <trkpt lat="53.770755" lon="10.601682">
        <ele>61.978554</ele>
        <time>2021-06-18T08:29:38.892Z</time>
      </trkpt>
      <trkpt lat="53.770664" lon="10.601690">
        <ele>61.906977</ele>
        <time>2021-06-18T08:29:43.868Z</time>
      </trkpt>
      <trkpt lat="53.770571" lon="10.601690">
        <ele>61.833926</ele>
        <time>2021-06-18T08:29:48.877Z</time>
      </trkpt>
      <trkpt lat="53.770496" lon="10.601801">
        <ele>61.755657</ele>
        <time>2021-06-18T08:29:54.875Z</time>
      </trkpt>
      <trkpt lat="53.770415" lon="10.601869">
        <ele>61.684631</ele>
        <time>2021-06-18T08:30:01.881Z</time>
      </trkpt>
      <trkpt lat="53.770315" lon="10.601930">
        <ele>61.601132</ele>
        <time>2021-06-18T08:30:08.883Z</time>
      </trkpt>
      <trkpt lat="53.770229" lon="10.601981">
        <ele>61.529551</ele>
        <time>2021-06-18T08:30:13.882Z</time>
      </trkpt>
      <trkpt lat="53.770138" lon="10.602009">
        <ele>61.456898</ele>
        <time>2021-06-18T08:30:18.876Z</time>
      </trkpt>
      <trkpt lat="53.770042" lon="10.602018">
        <ele>61.381375</ele>
        <time>2021-06-18T08:30:25.872Z</time>
      </trkpt>
      <trkpt lat="53.769940" lon="10.602034">
        <ele>61.253779</ele>
        <time>2021-06-18T08:30:32.883Z</time>
      </trkpt>
      <trkpt lat="53.769848" lon="10.602090">
        <ele>61.049787</ele>
        <time>2021-06-18T08:30:39.870Z</time>
      </trkpt>
      <trkpt lat="53.769753" lon="10.602142">
        <ele>60.841466</ele>
        <time>2021-06-18T08:30:47.880Z</time>
      </trkpt>
      <trkpt lat="53.769661" lon="10.602183">
        <ele>60.642971</ele>
        <time>2021-06-18T08:30:54.870Z</time>
      </trkpt>
      <trkpt lat="53.769561" lon="10.602215">
        <ele>60.430633</ele>
        <time>2021-06-18T08:31:00.867Z</time>
      </trkpt>
      <trkpt lat="53.769464" lon="10.602254">
        <ele>60.222617</ele>
        <time>2021-06-18T08:31:06.868Z</time>
      </trkpt>
      <trkpt lat="53.769362" lon="10.602298">
        <ele>60.002997</ele>
        <time>2021-06-18T08:31:13.882Z</time>
      </trkpt>
      <trkpt lat="53.769295" lon="10.602331">
        <ele>59.857406</ele>
        <time>2021-06-18T08:31:28.465Z</time>
      </trkpt>
      <trkpt lat="53.769216" lon="10.602584">
        <ele>59.504559</ele>
        <time>2021-06-18T08:34:52.713Z</time>
      </trkpt>
      <trkpt lat="53.769289" lon="10.602382">
        <ele>59.212591</ele>
        <time>2021-06-18T08:34:53.705Z</time>
      </trkpt>
      <trkpt lat="53.769222" lon="10.602273">
        <ele>59.018665</ele>
        <time>2021-06-18T08:34:57.263Z</time>
      </trkpt>
      <trkpt lat="53.769142" lon="10.602372">
        <ele>58.811873</ele>
        <time>2021-06-18T08:35:10.267Z</time>
      </trkpt>
      <trkpt lat="53.769049" lon="10.602438">
        <ele>58.601461</ele>
        <time>2021-06-18T08:35:17.272Z</time>
      </trkpt>
      <trkpt lat="53.768957" lon="10.602458">
        <ele>58.407935</ele>
        <time>2021-06-18T08:35:23.269Z</time>
      </trkpt>
      <trkpt lat="53.768869" lon="10.602515">
        <ele>58.211337</ele>
        <time>2021-06-18T08:35:29.279Z</time>
      </trkpt>
      <trkpt lat="53.768773" lon="10.602545">
        <ele>58.007656</ele>
        <time>2021-06-18T08:35:35.270Z</time>
      </trkpt>
      <trkpt lat="53.768678" lon="10.602585">
        <ele>57.803403</ele>
        <time>2021-06-18T08:35:42.274Z</time>
      </trkpt>
      <trkpt lat="53.768584" lon="10.602621">
        <ele>57.602321</ele>
        <time>2021-06-18T08:35:49.265Z</time>
      </trkpt>
      <trkpt lat="53.768494" lon="10.602665">
        <ele>57.833475</ele>
        <time>2021-06-18T08:35:58.267Z</time>
      </trkpt>
      <trkpt lat="53.768405" lon="10.602713">
        <ele>58.128148</ele>
        <time>2021-06-18T08:36:04.256Z</time>
      </trkpt>
      <trkpt lat="53.768310" lon="10.602734">
        <ele>58.430375</ele>
        <time>2021-06-18T08:36:10.272Z</time>
      </trkpt>
      <trkpt lat="53.768215" lon="10.602810">
        <ele>58.761869</ele>
        <time>2021-06-18T08:36:17.274Z</time>
      </trkpt>
      <trkpt lat="53.768121" lon="10.602821">
        <ele>59.059103</ele>
        <time>2021-06-18T08:36:23.259Z</time>
      </trkpt>
      <trkpt lat="53.768025" lon="10.602848">
        <ele>59.366094</ele>
        <time>2021-06-18T08:36:30.279Z</time>
      </trkpt>
      <trkpt lat="53.767931" lon="10.602909">
        <ele>59.683684</ele>
        <time>2021-06-18T08:36:37.271Z</time>
      </trkpt>
      <trkpt lat="53.767830" lon="10.602965">
        <ele>60.018964</ele>
        <time>2021-06-18T08:36:44.273Z</time>
      </trkpt>
      <trkpt lat="53.767743" lon="10.603033">
        <ele>60.321279</ele>
        <time>2021-06-18T08:36:50.274Z</time>
      </trkpt>
      <trkpt lat="53.767651" lon="10.603056">
        <ele>60.614648</ele>
        <time>2021-06-18T08:36:58.264Z</time>
      </trkpt>
      <trkpt lat="53.767547" lon="10.603086">
        <ele>60.947453</ele>
        <time>2021-06-18T08:37:05.261Z</time>
      </trkpt>
      <trkpt lat="53.767456" lon="10.603121">
        <ele>61.241840</ele>
        <time>2021-06-18T08:37:11.257Z</time>
      </trkpt>
      <trkpt lat="53.767363" lon="10.603126">
        <ele>61.535359</ele>
        <time>2021-06-18T08:37:18.273Z</time>
      </trkpt>
      <trkpt lat="53.767262" lon="10.603151">
        <ele>61.857359</ele>
        <time>2021-06-18T08:37:25.251Z</time>
      </trkpt>
      <trkpt lat="53.767172" lon="10.603190">
        <ele>62.150431</ele>
        <time>2021-06-18T08:37:31.271Z</time>
      </trkpt>
      <trkpt lat="53.767081" lon="10.603186">
        <ele>62.437591</ele>
        <time>2021-06-18T08:37:37.270Z</time>
      </trkpt>
      <trkpt lat="53.766988" lon="10.603183">
        <ele>62.731016</ele>
        <time>2021-06-18T08:37:46.266Z</time>
      </trkpt>
      <trkpt lat="53.766898" lon="10.603199">
        <ele>63.016487</ele>
        <time>2021-06-18T08:37:52.292Z</time>
      </trkpt>
      <trkpt lat="53.766800" lon="10.603203">
        <ele>63.212870</ele>
        <time>2021-06-18T08:37:58.273Z</time>
      </trkpt>
      <trkpt lat="53.766699" lon="10.603188">
        <ele>63.052400</ele>
        <time>2021-06-18T08:38:06.263Z</time>
      </trkpt>
      <trkpt lat="53.766600" lon="10.603158">
        <ele>62.893217</ele>
        <time>2021-06-18T08:38:13.268Z</time>
      </trkpt>
      <trkpt lat="53.766503" lon="10.603155">
        <ele>62.739667</ele>
        <time>2021-06-18T08:38:18.278Z</time>
      </trkpt>
      <trkpt lat="53.766416" lon="10.603203">
        <ele>62.594832</ele>
        <time>2021-06-18T08:38:24.269Z</time>
      </trkpt>
      <trkpt lat="53.766326" lon="10.603254">
        <ele>62.444609</ele>
        <time>2021-06-18T08:38:32.265Z</time>
      </trkpt>
      <trkpt lat="53.766325" lon="10.603429">
        <ele>62.280886</ele>
        <time>2021-06-18T08:38:40.261Z</time>
      </trkpt>
      <trkpt lat="53.766317" lon="10.603594">
        <ele>62.126007</ele>
        <time>2021-06-18T08:38:47.276Z</time>
      </trkpt>
      <trkpt lat="53.766316" lon="10.603778">
        <ele>61.953865</ele>
        <time>2021-06-18T08:38:53.274Z</time>
      </trkpt>
      <trkpt lat="53.766313" lon="10.603950">
        <ele>61.792886</ele>
        <time>2021-06-18T08:38:59.259Z</time>
      </trkpt>
      <trkpt lat="53.766312" lon="10.604121">
        <ele>61.632904</ele>
        <time>2021-06-18T08:39:06.275Z</time>
      </trkpt>
      <trkpt lat="53.766306" lon="10.604285">
        <ele>61.479186</ele>
        <time>2021-06-18T08:39:13.276Z</time>
      </trkpt>
      <trkpt lat="53.766323" lon="10.604438">
        <ele>61.333545</ele>
        <time>2021-06-18T08:39:20.277Z</time>
      </trkpt>
      <trkpt lat="53.766365" lon="10.604588">
        <ele>61.178269</ele>
        <time>2021-06-18T08:39:26.277Z</time>
      </trkpt>
      <trkpt lat="53.766391" lon="10.604745">
        <ele>61.025737</ele>
        <time>2021-06-18T08:39:33.271Z</time>
      </trkpt>
      <trkpt lat="53.766450" lon="10.604867">
        <ele>60.878270</ele>
        <time>2021-06-18T08:39:39.268Z</time>
      </trkpt>
      <trkpt lat="53.766483" lon="10.605012">
        <ele>60.732913</ele>
        <time>2021-06-18T08:39:45.261Z</time>
      </trkpt>
      <trkpt lat="53.766516" lon="10.605168">
        <ele>60.577908</ele>
        <time>2021-06-18T08:39:51.271Z</time>
      </trkpt>
      <trkpt lat="53.766569" lon="10.605292">
        <ele>60.434753</ele>
        <time>2021-06-18T08:39:57.274Z</time>
      </trkpt>
      <trkpt lat="53.766639" lon="10.605398">
        <ele>60.473982</ele>
        <time>2021-06-18T08:40:02.277Z</time>
      </trkpt>
      <trkpt lat="53.766695" lon="10.605546">
        <ele>60.571944</ele>
        <time>2021-06-18T08:40:09.275Z</time>
      </trkpt>
      <trkpt lat="53.766774" lon="10.605647">
        <ele>60.665334</ele>
        <time>2021-06-18T08:40:16.273Z</time>
      </trkpt>
      <trkpt lat="53.766865" lon="10.605728">
        <ele>60.762314</ele>
        <time>2021-06-18T08:40:24.265Z</time>
      </trkpt>
      <trkpt lat="53.766956" lon="10.605818">
        <ele>60.861729</ele>
        <time>2021-06-18T08:40:30.283Z</time>
      </trkpt>
      <trkpt lat="53.767037" lon="10.605891">
        <ele>60.948286</ele>
        <time>2021-06-18T08:40:39.272Z</time>
      </trkpt>
      <trkpt lat="53.767117" lon="10.605962">
        <ele>61.033489</ele>
        <time>2021-06-18T08:40:43.258Z</time>
      </trkpt>
      <trkpt lat="53.767194" lon="10.606041">
        <ele>61.118421</ele>
        <time>2021-06-18T08:40:48.277Z</time>
      </trkpt>
      <trkpt lat="53.767275" lon="10.606109">
        <ele>61.203704</ele>
        <time>2021-06-18T08:40:54.264Z</time>
      </trkpt>
      <trkpt lat="53.767363" lon="10.606196">
        <ele>61.299832</ele>
        <time>2021-06-18T08:41:01.278Z</time>
      </trkpt>
      <trkpt lat="53.767453" lon="10.606273">
        <ele>61.394951</ele>
        <time>2021-06-18T08:41:07.268Z</time>
      </trkpt>
      <trkpt lat="53.767547" lon="10.606357">
        <ele>61.495213</ele>
        <time>2021-06-18T08:41:13.254Z</time>
      </trkpt>
      <trkpt lat="53.767617" lon="10.606464">
        <ele>61.584188</ele>
        <time>2021-06-18T08:41:19.277Z</time>
      </trkpt>
      <trkpt lat="53.767670" lon="10.606604">
        <ele>61.676867</ele>
        <time>2021-06-18T08:41:25.255Z</time>
      </trkpt>
      <trkpt lat="53.767724" lon="10.606726">
        <ele>61.761833</ele>
        <time>2021-06-18T08:41:31.275Z</time>
      </trkpt>
      <trkpt lat="53.767783" lon="10.606857">
        <ele>61.853644</ele>
        <time>2021-06-18T08:41:38.279Z</time>
      </trkpt>
      <trkpt lat="53.767838" lon="10.606990">
        <ele>61.944130</ele>
        <time>2021-06-18T08:41:44.271Z</time>
      </trkpt>
      <trkpt lat="53.767908" lon="10.607124">
        <ele>62.043822</ele>
        <time>2021-06-18T08:41:50.260Z</time>
      </trkpt>
      <trkpt lat="53.767965" lon="10.607242">
        <ele>62.097631</ele>
        <time>2021-06-18T08:41:57.268Z</time>
      </trkpt>
      <trkpt lat="53.768018" lon="10.607375">
        <ele>62.089612</ele>
        <time>2021-06-18T08:42:03.272Z</time>
      </trkpt>
      <trkpt lat="53.768052" lon="10.607537">
        <ele>62.081018</ele>
        <time>2021-06-18T08:42:10.251Z</time>
      </trkpt>
      <trkpt lat="53.768054" lon="10.607693">
        <ele>62.073217</ele>
        <time>2021-06-18T08:42:16.270Z</time>
      </trkpt>
      <trkpt lat="53.768070" lon="10.607843">
        <ele>62.065597</ele>
        <time>2021-06-18T08:42:23.275Z</time>
      </trkpt>
      <trkpt lat="53.768090" lon="10.608015">
        <ele>62.056834</ele>
        <time>2021-06-18T08:42:30.281Z</time>
      </trkpt>
      <trkpt lat="53.768113" lon="10.608181">
        <ele>62.048310</ele>
        <time>2021-06-18T08:42:36.281Z</time>
      </trkpt>
      <trkpt lat="53.768139" lon="10.608345">
        <ele>62.039822</ele>
        <time>2021-06-18T08:42:43.271Z</time>
      </trkpt>
      <trkpt lat="53.768163" lon="10.608507">
        <ele>62.031473</ele>
        <time>2021-06-18T08:42:49.283Z</time>
      </trkpt>
      <trkpt lat="53.768185" lon="10.608670">
        <ele>62.023114</ele>
        <time>2021-06-18T08:42:55.282Z</time>
      </trkpt>
      <trkpt lat="53.768209" lon="10.608822">
        <ele>62.015249</ele>
        <time>2021-06-18T08:43:01.260Z</time>
      </trkpt>
      <trkpt lat="53.768244" lon="10.608968">
        <ele>62.007373</ele>
        <time>2021-06-18T08:43:07.279Z</time>
      </trkpt>
      <trkpt lat="53.768275" lon="10.609129">
        <ele>61.998908</ele>
        <time>2021-06-18T08:43:13.281Z</time>
      </trkpt>
      <trkpt lat="53.768306" lon="10.609282">
        <ele>61.990822</ele>
        <time>2021-06-18T08:43:18.276Z</time>
      </trkpt>
      <trkpt lat="53.768321" lon="10.609432">
        <ele>61.983217</ele>
        <time>2021-06-18T08:43:24.274Z</time>
      </trkpt>
      <trkpt lat="53.768342" lon="10.609604">
        <ele>61.974437</ele>
        <time>2021-06-18T08:43:31.280Z</time>
      </trkpt>
      <trkpt lat="53.768375" lon="10.609747">
        <ele>61.966762</ele>
        <time>2021-06-18T08:43:37.283Z</time>
      </trkpt>
      <trkpt lat="53.768384" lon="10.609898">
        <ele>61.959175</ele>
        <time>2021-06-18T08:43:43.269Z</time>
      </trkpt>
      <trkpt lat="53.768405" lon="10.610071">
        <ele>61.950346</ele>
        <time>2021-06-18T08:43:50.265Z</time>
      </trkpt>
      <trkpt lat="53.768443" lon="10.610235">
        <ele>62.067308</ele>
        <time>2021-06-18T08:43:57.257Z</time>
      </trkpt>
      <trkpt lat="53.768476" lon="10.610377">
        <ele>62.206743</ele>
        <time>2021-06-18T08:44:03.269Z</time>
      </trkpt>
      <trkpt lat="53.768521" lon="10.610515">
        <ele>62.350772</ele>
        <time>2021-06-18T08:44:09.278Z</time>
      </trkpt>
      <trkpt lat="53.768587" lon="10.610646">
        <ele>62.508075</ele>
        <time>2021-06-18T08:44:15.271Z</time>
      </trkpt>
      <trkpt lat="53.768648" lon="10.610773">
        <ele>62.657621</ele>
        <time>2021-06-18T08:44:21.276Z</time>
      </trkpt>
      <trkpt lat="53.768687" lon="10.610928">
        <ele>62.811566</ele>
        <time>2021-06-18T08:44:28.255Z</time>
      </trkpt>
      <trkpt lat="53.768734" lon="10.611068">
        <ele>62.958700</ele>
        <time>2021-06-18T08:44:34.275Z</time>
      </trkpt>
      <trkpt lat="53.768774" lon="10.611220">
        <ele>63.110748</ele>
        <time>2021-06-18T08:44:41.274Z</time>
      </trkpt>
      <trkpt lat="53.768816" lon="10.611358">
        <ele>63.252594</ele>
        <time>2021-06-18T08:44:47.273Z</time>
      </trkpt>
      <trkpt lat="53.768876" lon="10.611502">
        <ele>63.413597</ele>
        <time>2021-06-18T08:44:53.278Z</time>
      </trkpt>
      <trkpt lat="53.768931" lon="10.611635">
        <ele>63.561931</ele>
        <time>2021-06-18T08:45:00.287Z</time>
      </trkpt>
      <trkpt lat="53.768982" lon="10.611787">
        <ele>63.721654</ele>
        <time>2021-06-18T08:45:06.270Z</time>
      </trkpt>
      <trkpt lat="53.769031" lon="10.611939">
        <ele>63.879873</ele>
        <time>2021-06-18T08:45:12.263Z</time>
      </trkpt>
      <trkpt lat="53.769083" lon="10.612083">
        <ele>64.034081</ele>
        <time>2021-06-18T08:45:18.270Z</time>
      </trkpt>
      <trkpt lat="53.769145" lon="10.612200">
        <ele>64.177679</ele>
        <time>2021-06-18T08:45:24.268Z</time>
      </trkpt>
      <trkpt lat="53.769201" lon="10.612442">
        <ele>64.415169</ele>
        <time>2021-06-18T08:45:49.279Z</time>
      </trkpt>
      <trkpt lat="53.769259" lon="10.612583">
        <ele>64.572152</ele>
        <time>2021-06-18T08:45:55.274Z</time>
      </trkpt>
      <trkpt lat="53.769315" lon="10.612716">
        <ele>64.721377</ele>
        <time>2021-06-18T08:46:01.274Z</time>
      </trkpt>
      <trkpt lat="53.769370" lon="10.612869">
        <ele>64.664489</ele>
        <time>2021-06-18T08:46:09.262Z</time>
      </trkpt>
      <trkpt lat="53.769438" lon="10.612979">
        <ele>64.604356</ele>
        <time>2021-06-18T08:46:14.255Z</time>
      </trkpt>
      <trkpt lat="53.769485" lon="10.613117">
        <ele>64.544188</ele>
        <time>2021-06-18T08:46:20.257Z</time>
      </trkpt>
      <trkpt lat="53.769515" lon="10.613267">
        <ele>64.484366</ele>
        <time>2021-06-18T08:46:26.272Z</time>
      </trkpt>
      <trkpt lat="53.769562" lon="10.613418">
        <ele>64.419896</ele>
        <time>2021-06-18T08:46:32.284Z</time>
      </trkpt>
      <trkpt lat="53.769607" lon="10.613578">
        <ele>64.352958</ele>
        <time>2021-06-18T08:46:38.261Z</time>
      </trkpt>
      <trkpt lat="53.769661" lon="10.613723">
        <ele>64.288214</ele>
        <time>2021-06-18T08:46:44.255Z</time>
      </trkpt>
      <trkpt lat="53.769720" lon="10.613860">
        <ele>64.224178</ele>
        <time>2021-06-18T08:46:51.256Z</time>
      </trkpt>
      <trkpt lat="53.769785" lon="10.613997">
        <ele>64.157811</ele>
        <time>2021-06-18T08:46:57.283Z</time>
      </trkpt>
      <trkpt lat="53.769842" lon="10.614142">
        <ele>64.092025</ele>
        <time>2021-06-18T08:47:03.271Z</time>
      </trkpt>
      <trkpt lat="53.769907" lon="10.614274">
        <ele>64.027120</ele>
        <time>2021-06-18T08:47:09.267Z</time>
      </trkpt>
      <trkpt lat="53.769967" lon="10.614393">
        <ele>63.968030</ele>
        <time>2021-06-18T08:47:16.277Z</time>
      </trkpt>
      <trkpt lat="53.770029" lon="10.614529">
        <ele>63.903146</ele>
        <time>2021-06-18T08:47:22.274Z</time>
      </trkpt>
      <trkpt lat="53.770092" lon="10.614658">
        <ele>63.839930</ele>
        <time>2021-06-18T08:47:28.266Z</time>
      </trkpt>
      <trkpt lat="53.770165" lon="10.614784">
        <ele>63.773276</ele>
        <time>2021-06-18T08:47:34.276Z</time>
      </trkpt>
      <trkpt lat="53.770232" lon="10.614918">
        <ele>63.706971</ele>
        <time>2021-06-18T08:47:40.276Z</time>
      </trkpt>
      <trkpt lat="53.770305" lon="10.615029">
        <ele>63.644239</ele>
        <time>2021-06-18T08:47:47.264Z</time>
      </trkpt>
      <trkpt lat="53.770387" lon="10.615121">
        <ele>63.581351</ele>
        <time>2021-06-18T08:47:54.272Z</time>
      </trkpt>
      <trkpt lat="53.770461" lon="10.615214">
        <ele>63.500396</ele>
        <time>2021-06-18T08:48:00.278Z</time>
      </trkpt>
      <trkpt lat="53.770538" lon="10.615314">
        <ele>63.414336</ele>
        <time>2021-06-18T08:48:06.277Z</time>
      </trkpt>
      <trkpt lat="53.770619" lon="10.615400">
        <ele>63.329552</ele>
        <time>2021-06-18T08:48:12.274Z</time>
      </trkpt>
      <trkpt lat="53.770698" lon="10.615517">
        <ele>63.236469</ele>
        <time>2021-06-18T08:48:18.280Z</time>
      </trkpt>
      <trkpt lat="53.770775" lon="10.615598">
        <ele>63.156081</ele>
        <time>2021-06-18T08:48:24.264Z</time>
      </trkpt>
      <trkpt lat="53.770867" lon="10.615682">
        <ele>63.063395</ele>
        <time>2021-06-18T08:48:30.279Z</time>
      </trkpt>
      <trkpt lat="53.770946" lon="10.615786">
        <ele>62.974650</ele>
        <time>2021-06-18T08:48:36.277Z</time>
      </trkpt>
      <trkpt lat="53.771015" lon="10.615903">
        <ele>62.888041</ele>
        <time>2021-06-18T08:48:43.272Z</time>
      </trkpt>
      <trkpt lat="53.771078" lon="10.616020">
        <ele>62.805104</ele>
        <time>2021-06-18T08:48:50.270Z</time>
      </trkpt>
      <trkpt lat="53.771157" lon="10.616120">
        <ele>62.717630</ele>
        <time>2021-06-18T08:48:56.262Z</time>
      </trkpt>
      <trkpt lat="53.771229" lon="10.616240">
        <ele>62.628027</ele>
        <time>2021-06-18T08:49:02.272Z</time>
      </trkpt>
      <trkpt lat="53.771282" lon="10.616392">
        <ele>62.535551</ele>
        <time>2021-06-18T08:49:08.280Z</time>
      </trkpt>
      <trkpt lat="53.771315" lon="10.616550">
        <ele>62.447742</ele>
        <time>2021-06-18T08:49:14.257Z</time>
      </trkpt>
      <trkpt lat="53.771347" lon="10.616694">
        <ele>62.367130</ele>
        <time>2021-06-18T08:49:20.276Z</time>
      </trkpt>
      <trkpt lat="53.771366" lon="10.616854">
        <ele>62.281615</ele>
        <time>2021-06-18T08:49:27.270Z</time>
      </trkpt>
      <trkpt lat="53.771392" lon="10.617022">
        <ele>62.190616</ele>
        <time>2021-06-18T08:49:34.269Z</time>
      </trkpt>
      <trkpt lat="53.771412" lon="10.617186">
        <ele>62.102871</ele>
        <time>2021-06-18T08:49:40.269Z</time>
      </trkpt>
      <trkpt lat="53.771437" lon="10.617361">
        <ele>62.008531</ele>
        <time>2021-06-18T08:49:46.277Z</time>
      </trkpt>
      <trkpt lat="53.771465" lon="10.617531">
        <ele>61.968119</ele>
        <time>2021-06-18T08:49:52.271Z</time>
      </trkpt>
      <trkpt lat="53.771482" lon="10.617696">
        <ele>61.946953</ele>
        <time>2021-06-18T08:49:58.260Z</time>
      </trkpt>
      <trkpt lat="53.771501" lon="10.617871">
        <ele>61.924469</ele>
        <time>2021-06-18T08:50:04.274Z</time>
      </trkpt>
      <trkpt lat="53.771526" lon="10.618021">
        <ele>61.904775</ele>
        <time>2021-06-18T08:50:09.272Z</time>
      </trkpt>
      <trkpt lat="53.771547" lon="10.618188">
        <ele>61.883199</ele>
        <time>2021-06-18T08:50:16.270Z</time>
      </trkpt>
      <trkpt lat="53.771571" lon="10.618358">
        <ele>61.861112</ele>
        <time>2021-06-18T08:50:23.270Z</time>
      </trkpt>
      <trkpt lat="53.771572" lon="10.618514">
        <ele>61.841398</ele>
        <time>2021-06-18T08:50:29.268Z</time>
      </trkpt>
      <trkpt lat="53.771577" lon="10.618683">
        <ele>61.820015</ele>
        <time>2021-06-18T08:50:36.277Z</time>
      </trkpt>
      <trkpt lat="53.771591" lon="10.618843">
        <ele>61.799576</ele>
        <time>2021-06-18T08:50:42.253Z</time>
      </trkpt>
      <trkpt lat="53.771608" lon="10.618998">
        <ele>61.779654</ele>
        <time>2021-06-18T08:50:48.264Z</time>
      </trkpt>
      <trkpt lat="53.771613" lon="10.619166">
        <ele>61.758398</ele>
        <time>2021-06-18T08:50:54.277Z</time>
      </trkpt>
      <trkpt lat="53.771617" lon="10.619330">
        <ele>61.737656</ele>
        <time>2021-06-18T08:51:00.284Z</time>
      </trkpt>
      <trkpt lat="53.771626" lon="10.619488">
        <ele>61.717597</ele>
        <time>2021-06-18T08:51:06.262Z</time>
      </trkpt>
      <trkpt lat="53.771629" lon="10.619664">
        <ele>61.695347</ele>
        <time>2021-06-18T08:51:13.284Z</time>
      </trkpt>
      <trkpt lat="53.771635" lon="10.619826">
        <ele>61.674836</ele>
        <time>2021-06-18T08:51:19.267Z</time>
      </trkpt>
      <trkpt lat="53.771644" lon="10.619995">
        <ele>61.653393</ele>
        <time>2021-06-18T08:51:25.267Z</time>
      </trkpt>
      <trkpt lat="53.771656" lon="10.620154">
        <ele>61.633138</ele>
        <time>2021-06-18T08:51:31.279Z</time>
      </trkpt>
      <trkpt lat="53.771671" lon="10.620316">
        <ele>61.612417</ele>
        <time>2021-06-18T08:51:37.277Z</time>
      </trkpt>
      <trkpt lat="53.771693" lon="10.620471">
        <ele>61.483495</ele>
        <time>2021-06-18T08:51:43.271Z</time>
      </trkpt>
      <trkpt lat="53.771687" lon="10.620630">
        <ele>61.182944</ele>
        <time>2021-06-18T08:51:49.278Z</time>
      </trkpt>
      <trkpt lat="53.771691" lon="10.620800">
        <ele>60.861998</ele>
        <time>2021-06-18T08:51:55.265Z</time>
      </trkpt>
      <trkpt lat="53.771701" lon="10.620952">
        <ele>60.573491</ele>
        <time>2021-06-18T08:52:01.278Z</time>
      </trkpt>
      <trkpt lat="53.771722" lon="10.621129">
        <ele>60.232933</ele>
        <time>2021-06-18T08:52:08.272Z</time>
      </trkpt>
      <trkpt lat="53.771718" lon="10.621300">
        <ele>59.910103</ele>
        <time>2021-06-18T08:52:15.273Z</time>
      </trkpt>
      <trkpt lat="53.771730" lon="10.621455">
        <ele>59.615210</ele>
        <time>2021-06-18T08:52:21.278Z</time>
      </trkpt>
      <trkpt lat="53.771754" lon="10.621623">
        <ele>59.289165</ele>
        <time>2021-06-18T08:52:27.282Z</time>
      </trkpt>
      <trkpt lat="53.771757" lon="10.621782">
        <ele>58.989071</ele>
        <time>2021-06-18T08:52:32.280Z</time>
      </trkpt>
      <trkpt lat="53.771751" lon="10.621950">
        <ele>58.671575</ele>
        <time>2021-06-18T08:52:38.263Z</time>
      </trkpt>
      <trkpt lat="53.771735" lon="10.622101">
        <ele>58.382184</ele>
        <time>2021-06-18T08:52:44.273Z</time>
      </trkpt>
      <trkpt lat="53.771733" lon="10.622260">
        <ele>58.082176</ele>
        <time>2021-06-18T08:52:50.275Z</time>
      </trkpt>
      <trkpt lat="53.771737" lon="10.622432">
        <ele>57.757461</ele>
        <time>2021-06-18T08:52:56.275Z</time>
      </trkpt>
      <trkpt lat="53.771738" lon="10.622586">
        <ele>57.466935</ele>
        <time>2021-06-18T08:53:01.256Z</time>
      </trkpt>
      <trkpt lat="53.771706" lon="10.622750">
        <ele>57.141137</ele>
        <time>2021-06-18T08:53:07.264Z</time>
      </trkpt>
      <trkpt lat="53.771675" lon="10.622904">
        <ele>56.834239</ele>
        <time>2021-06-18T08:53:14.272Z</time>
      </trkpt>
      <trkpt lat="53.771612" lon="10.623111">
        <ele>56.395014</ele>
        <time>2021-06-18T08:53:42.293Z</time>
      </trkpt>
      <trkpt lat="53.771571" lon="10.623276">
        <ele>56.057362</ele>
        <time>2021-06-18T08:53:48.279Z</time>
      </trkpt>
      <trkpt lat="53.771547" lon="10.623438">
        <ele>55.863671</ele>
        <time>2021-06-18T08:53:55.266Z</time>
      </trkpt>
      <trkpt lat="53.771547" lon="10.623625">
        <ele>55.877752</ele>
        <time>2021-06-18T08:54:03.281Z</time>
      </trkpt>
      <trkpt lat="53.771579" lon="10.623791">
        <ele>55.890899</ele>
        <time>2021-06-18T08:54:09.260Z</time>
      </trkpt>
      <trkpt lat="53.771630" lon="10.623936">
        <ele>55.903604</ele>
        <time>2021-06-18T08:54:15.270Z</time>
      </trkpt>
      <trkpt lat="53.771676" lon="10.624086">
        <ele>55.916329</ele>
        <time>2021-06-18T08:54:22.272Z</time>
      </trkpt>
      <trkpt lat="53.771754" lon="10.624197">
        <ele>55.929314</ele>
        <time>2021-06-18T08:54:28.274Z</time>
      </trkpt>
      <trkpt lat="53.771833" lon="10.624304">
        <ele>55.942207</ele>
        <time>2021-06-18T08:54:34.277Z</time>
      </trkpt>
      <trkpt lat="53.771911" lon="10.624416">
        <ele>55.955240</ele>
        <time>2021-06-18T08:54:40.268Z</time>
      </trkpt>
      <trkpt lat="53.771996" lon="10.624515">
        <ele>55.968387</ele>
        <time>2021-06-18T08:54:48.276Z</time>
      </trkpt>
      <trkpt lat="53.772092" lon="10.624565">
        <ele>55.981185</ele>
        <time>2021-06-18T08:54:55.263Z</time>
      </trkpt>
      <trkpt lat="53.772164" lon="10.624658">
        <ele>55.992725</ele>
        <time>2021-06-18T08:55:02.280Z</time>
      </trkpt>
      <trkpt lat="53.772237" lon="10.624769">
        <ele>56.005229</ele>
        <time>2021-06-18T08:55:07.291Z</time>
      </trkpt>
      <trkpt lat="53.772277" lon="10.624928">
        <ele>56.018241</ele>
        <time>2021-06-18T08:55:13.269Z</time>
      </trkpt>
      <trkpt lat="53.772316" lon="10.625072">
        <ele>56.030168</ele>
        <time>2021-06-18T08:55:19.275Z</time>
      </trkpt>
      <trkpt lat="53.772364" lon="10.625213">
        <ele>56.042420</ele>
        <time>2021-06-18T08:55:25.277Z</time>
      </trkpt>
      <trkpt lat="53.772403" lon="10.625368">
        <ele>56.055105</ele>
        <time>2021-06-18T08:55:32.284Z</time>
      </trkpt>
      <trkpt lat="53.772416" lon="10.625538">
        <ele>56.068012</ele>
        <time>2021-06-18T08:55:39.272Z</time>
      </trkpt>
      <trkpt lat="53.772452" lon="10.625691">
        <ele>56.080412</ele>
        <time>2021-06-18T08:55:47.274Z</time>
      </trkpt>
      <trkpt lat="53.772489" lon="10.625832">
        <ele>56.141864</ele>
        <time>2021-06-18T08:55:53.279Z</time>
      </trkpt>
      <trkpt lat="53.772542" lon="10.625965">
        <ele>56.309972</ele>
        <time>2021-06-18T08:55:59.272Z</time>
      </trkpt>
      <trkpt lat="53.772574" lon="10.626124">
        <ele>56.485998</ele>
        <time>2021-06-18T08:56:05.281Z</time>
      </trkpt>
      <trkpt lat="53.772619" lon="10.626257">
        <ele>56.646605</ele>
        <time>2021-06-18T08:56:11.266Z</time>
      </trkpt>
      <trkpt lat="53.772682" lon="10.626392">
        <ele>56.826872</ele>
        <time>2021-06-18T08:56:19.282Z</time>
      </trkpt>
      <trkpt lat="53.772711" lon="10.626540">
        <ele>56.990276</ele>
        <time>2021-06-18T08:56:27.262Z</time>
      </trkpt>
      <trkpt lat="53.772708" lon="10.626703">
        <ele>57.161179</ele>
        <time>2021-06-18T08:56:33.271Z</time>
      </trkpt>
      <trkpt lat="53.772697" lon="10.626868">
        <ele>57.335193</ele>
        <time>2021-06-18T08:56:40.277Z</time>
      </trkpt>
      <trkpt lat="53.772680" lon="10.627019">
        <ele>57.496283</ele>
        <time>2021-06-18T08:56:48.276Z</time>
      </trkpt>
      <trkpt lat="53.772648" lon="10.627166">
        <ele>57.660455</ele>
        <time>2021-06-18T08:56:57.279Z</time>
      </trkpt>
      <trkpt lat="53.772627" lon="10.627336">
        <ele>57.842462</ele>
        <time>2021-06-18T08:57:11.278Z</time>
      </trkpt>
      <trkpt lat="53.772619" lon="10.627506">
        <ele>58.021182</ele>
        <time>2021-06-18T08:57:18.277Z</time>
      </trkpt>
      <trkpt lat="53.772599" lon="10.627673">
        <ele>58.199752</ele>
        <time>2021-06-18T08:57:24.274Z</time>
      </trkpt>
      <trkpt lat="53.772596" lon="10.627828">
        <ele>58.362277</ele>
        <time>2021-06-18T08:57:30.272Z</time>
      </trkpt>
      <trkpt lat="53.772576" lon="10.628006">
        <ele>58.552159</ele>
        <time>2021-06-18T08:57:38.282Z</time>
      </trkpt>
      <trkpt lat="53.772548" lon="10.628151">
        <ele>58.712022</ele>
        <time>2021-06-18T08:57:45.278Z</time>
      </trkpt>
      <trkpt lat="53.772533" lon="10.628320">
        <ele>58.891118</ele>
        <time>2021-06-18T08:57:58.280Z</time>
      </trkpt>
      <trkpt lat="53.772520" lon="10.628477">
        <ele>59.057258</ele>
        <time>2021-06-18T08:58:04.283Z</time>
      </trkpt>
      <trkpt lat="53.772518" lon="10.628631">
        <ele>59.218686</ele>
        <time>2021-06-18T08:58:12.272Z</time>
      </trkpt>
      <trkpt lat="53.772499" lon="10.628873">
        <ele>59.254413</ele>
        <time>2021-06-18T08:58:40.277Z</time>
      </trkpt>
      <trkpt lat="53.772486" lon="10.629033">
        <ele>59.234453</ele>
        <time>2021-06-18T08:58:49.283Z</time>
      </trkpt>
      <trkpt lat="53.772470" lon="10.629198">
        <ele>59.213788</ele>
        <time>2021-06-18T08:58:55.264Z</time>
      </trkpt>
      <trkpt lat="53.772450" lon="10.629353">
        <ele>59.194181</ele>
        <time>2021-06-18T08:59:01.280Z</time>
      </trkpt>
      <trkpt lat="53.772444" lon="10.629518">
        <ele>59.173751</ele>
        <time>2021-06-18T08:59:08.281Z</time>
      </trkpt>
      <trkpt lat="53.772418" lon="10.629686">
        <ele>59.152289</ele>
        <time>2021-06-18T08:59:15.266Z</time>
      </trkpt>
      <trkpt lat="53.772409" lon="10.629849">
        <ele>59.132056</ele>
        <time>2021-06-18T08:59:22.292Z</time>
      </trkpt>
      <trkpt lat="53.772385" lon="10.630005">
        <ele>59.112134</ele>
        <time>2021-06-18T08:59:30.274Z</time>
      </trkpt>
      <trkpt lat="53.772355" lon="10.630162">
        <ele>59.091742</ele>
        <time>2021-06-18T08:59:37.268Z</time>
      </trkpt>
      <trkpt lat="53.772338" lon="10.630334">
        <ele>59.070190</ele>
        <time>2021-06-18T08:59:43.266Z</time>
      </trkpt>
      <trkpt lat="53.772342" lon="10.630509">
        <ele>59.048546</ele>
        <time>2021-06-18T08:59:49.277Z</time>
      </trkpt>
      <trkpt lat="53.772330" lon="10.630672">
        <ele>59.028246</ele>
        <time>2021-06-18T08:59:55.278Z</time>
      </trkpt>
      <trkpt lat="53.772315" lon="10.630838">
        <ele>59.007492</ele>
        <time>2021-06-18T09:00:01.268Z</time>
      </trkpt>
      <trkpt lat="53.772301" lon="10.630988">
        <ele>58.988725</ele>
        <time>2021-06-18T09:00:07.274Z</time>
      </trkpt>
      <trkpt lat="53.772302" lon="10.631161">
        <ele>58.967343</ele>
        <time>2021-06-18T09:00:14.284Z</time>
      </trkpt>
      <trkpt lat="53.772308" lon="10.631326">
        <ele>58.946913</ele>
        <time>2021-06-18T09:00:21.277Z</time>
      </trkpt>
      <trkpt lat="53.772296" lon="10.631479">
        <ele>58.927838</ele>
        <time>2021-06-18T09:00:27.281Z</time>
      </trkpt>
      <trkpt lat="53.772283" lon="10.631648">
        <ele>58.906776</ele>
        <time>2021-06-18T09:00:33.283Z</time>
      </trkpt>
      <trkpt lat="53.772270" lon="10.631811">
        <ele>58.878034</ele>
        <time>2021-06-18T09:00:38.270Z</time>
      </trkpt>
      <trkpt lat="53.772272" lon="10.631981">
        <ele>58.845278</ele>
        <time>2021-06-18T09:00:45.278Z</time>
      </trkpt>
      <trkpt lat="53.772274" lon="10.632146">
        <ele>58.813484</ele>
        <time>2021-06-18T09:00:52.281Z</time>
      </trkpt>
      <trkpt lat="53.772272" lon="10.632320">
        <ele>58.779958</ele>
        <time>2021-06-18T09:00:58.279Z</time>
      </trkpt>
      <trkpt lat="53.772271" lon="10.632477">
        <ele>58.749710</ele>
        <time>2021-06-18T09:01:04.278Z</time>
      </trkpt>
      <trkpt lat="53.772261" lon="10.632652">
        <ele>58.715840</ele>
        <time>2021-06-18T09:01:11.274Z</time>
      </trkpt>
      <trkpt lat="53.772292" lon="10.632800">
        <ele>58.685591</ele>
        <time>2021-06-18T09:01:18.264Z</time>
      </trkpt>
      <trkpt lat="53.772306" lon="10.632966">
        <ele>58.653287</ele>
        <time>2021-06-18T09:01:25.278Z</time>
      </trkpt>
      <trkpt lat="53.772372" lon="10.633071">
        <ele>58.623758</ele>
        <time>2021-06-18T09:01:30.271Z</time>
      </trkpt>
      <trkpt lat="53.772469" lon="10.633099">
        <ele>58.591682</ele>
        <time>2021-06-18T09:01:36.282Z</time>
      </trkpt>
      <trkpt lat="53.772563" lon="10.633074">
        <ele>58.560664</ele>
        <time>2021-06-18T09:01:44.275Z</time>
      </trkpt>
      <trkpt lat="53.772654" lon="10.633053">
        <ele>58.530727</ele>
        <time>2021-06-18T09:01:49.272Z</time>
      </trkpt>
      <trkpt lat="53.772754" lon="10.633039">
        <ele>58.498018</ele>
        <time>2021-06-18T09:01:54.278Z</time>
      </trkpt>
      <trkpt lat="53.772848" lon="10.633063">
        <ele>58.467030</ele>
        <time>2021-06-18T09:01:59.273Z</time>
      </trkpt>
      <trkpt lat="53.772932" lon="10.633116">
        <ele>58.437807</ele>
        <time>2021-06-18T09:02:05.275Z</time>
      </trkpt>
      <trkpt lat="53.773023" lon="10.633146">
        <ele>58.407586</ele>
        <time>2021-06-18T09:02:11.283Z</time>
      </trkpt>
      <trkpt lat="53.773119" lon="10.633141">
        <ele>58.376279</ele>
        <time>2021-06-18T09:02:18.257Z</time>
      </trkpt>
      <trkpt lat="53.773225" lon="10.633148">
        <ele>58.341700</ele>
        <time>2021-06-18T09:02:25.258Z</time>
      </trkpt>
      <trkpt lat="53.773318" lon="10.633169">
        <ele>58.333358</ele>
        <time>2021-06-18T09:02:31.279Z</time>
      </trkpt>
      <trkpt lat="53.773413" lon="10.633195">
        <ele>58.472599</ele>
        <time>2021-06-18T09:02:38.255Z</time>
      </trkpt>
      <trkpt lat="53.773513" lon="10.633208">
        <ele>58.617714</ele>
        <time>2021-06-18T09:02:44.265Z</time>
      </trkpt>
      <trkpt lat="53.773617" lon="10.633225">
        <ele>58.768892</ele>
        <time>2021-06-18T09:02:50.272Z</time>
      </trkpt>
      <trkpt lat="53.773713" lon="10.633242">
        <ele>58.908552</ele>
        <time>2021-06-18T09:02:56.268Z</time>
      </trkpt>
      <trkpt lat="53.773808" lon="10.633279">
        <ele>59.049600</ele>
        <time>2021-06-18T09:03:02.276Z</time>
      </trkpt>
      <trkpt lat="53.773896" lon="10.633315">
        <ele>59.180595</ele>
        <time>2021-06-18T09:03:08.277Z</time>
      </trkpt>
      <trkpt lat="53.774001" lon="10.633338">
        <ele>59.333786</ele>
        <time>2021-06-18T09:03:14.279Z</time>
      </trkpt>
      <trkpt lat="53.774103" lon="10.633354">
        <ele>59.482001</ele>
        <time>2021-06-18T09:03:20.284Z</time>
      </trkpt>
      <trkpt lat="53.774206" lon="10.633372">
        <ele>59.631824</ele>
        <time>2021-06-18T09:03:26.283Z</time>
      </trkpt>
      <trkpt lat="53.774301" lon="10.633412">
        <ele>59.773470</ele>
        <time>2021-06-18T09:03:32.279Z</time>
      </trkpt>
      <trkpt lat="53.774398" lon="10.633467">
        <ele>59.921488</ele>
        <time>2021-06-18T09:03:39.276Z</time>
      </trkpt>
      <trkpt lat="53.774491" lon="10.633510">
        <ele>60.060981</ele>
        <time>2021-06-18T09:03:45.263Z</time>
      </trkpt>
      <trkpt lat="53.774595" lon="10.633545">
        <ele>60.214405</ele>
        <time>2021-06-18T09:03:51.278Z</time>
      </trkpt>
      <trkpt lat="53.774696" lon="10.633567">
        <ele>60.361747</ele>
        <time>2021-06-18T09:03:57.264Z</time>
      </trkpt>
      <trkpt lat="53.774791" lon="10.633570">
        <ele>60.499225</ele>
        <time>2021-06-18T09:04:03.276Z</time>
      </trkpt>
      <trkpt lat="53.774892" lon="10.633570">
        <ele>60.645361</ele>
        <time>2021-06-18T09:04:10.283Z</time>
      </trkpt>
      <trkpt lat="53.774987" lon="10.633533">
        <ele>60.786410</ele>
        <time>2021-06-18T09:04:16.276Z</time>
      </trkpt>
      <trkpt lat="53.775089" lon="10.633547">
        <ele>60.910848</ele>
        <time>2021-06-18T09:04:25.271Z</time>
      </trkpt>
      <trkpt lat="53.775182" lon="10.633592">
        <ele>60.854333</ele>
        <time>2021-06-18T09:04:31.267Z</time>
      </trkpt>
      <trkpt lat="53.775286" lon="10.633585">
        <ele>60.793521</ele>
        <time>2021-06-18T09:04:50.261Z</time>
      </trkpt>
      <trkpt lat="53.775391" lon="10.633577">
        <ele>60.732111</ele>
        <time>2021-06-18T09:04:56.275Z</time>
      </trkpt>
      <trkpt lat="53.775497" lon="10.633597">
        <ele>60.669794</ele>
        <time>2021-06-18T09:05:04.262Z</time>
      </trkpt>
      <trkpt lat="53.775597" lon="10.633559">
        <ele>60.609913</ele>
        <time>2021-06-18T09:05:09.275Z</time>
      </trkpt>
      <trkpt lat="53.775698" lon="10.633542">
        <ele>60.550610</ele>
        <time>2021-06-18T09:05:15.273Z</time>
      </trkpt>
      <trkpt lat="53.775791" lon="10.633558">
        <ele>60.495993</ele>
        <time>2021-06-18T09:05:21.269Z</time>
      </trkpt>
      <trkpt lat="53.775887" lon="10.633567">
        <ele>60.439817</ele>
        <time>2021-06-18T09:05:27.281Z</time>
      </trkpt>
      <trkpt lat="53.775989" lon="10.633572">
        <ele>60.380197</ele>
        <time>2021-06-18T09:05:33.269Z</time>
      </trkpt>
      <trkpt lat="53.776081" lon="10.633567">
        <ele>60.326417</ele>
        <time>2021-06-18T09:05:38.282Z</time>
      </trkpt>
      <trkpt lat="53.776184" lon="10.633568">
        <ele>60.266236</ele>
        <time>2021-06-18T09:05:45.284Z</time>
      </trkpt>
      <trkpt lat="53.776280" lon="10.633565">
        <ele>60.210137</ele>
        <time>2021-06-18T09:05:52.277Z</time>
      </trkpt>
      <trkpt lat="53.776373" lon="10.633576">
        <ele>60.155667</ele>
        <time>2021-06-18T09:05:59.266Z</time>
      </trkpt>
      <trkpt lat="53.776469" lon="10.633590">
        <ele>60.099369</ele>
        <time>2021-06-18T09:06:05.278Z</time>
      </trkpt>
      <trkpt lat="53.776564" lon="10.633575">
        <ele>60.043623</ele>
        <time>2021-06-18T09:06:10.272Z</time>
      </trkpt>
      <trkpt lat="53.776657" lon="10.633590">
        <ele>59.989040</ele>
        <time>2021-06-18T09:06:16.272Z</time>
      </trkpt>
      <trkpt lat="53.776745" lon="10.633628">
        <ele>59.935976</ele>
        <time>2021-06-18T09:06:21.276Z</time>
      </trkpt>
      <trkpt lat="53.776845" lon="10.633635">
        <ele>59.877500</ele>
        <time>2021-06-18T09:06:27.274Z</time>
      </trkpt>
      <trkpt lat="53.776946" lon="10.633645">
        <ele>59.812665</ele>
        <time>2021-06-18T09:06:33.276Z</time>
      </trkpt>
      <trkpt lat="53.777044" lon="10.633648">
        <ele>59.748621</ele>
        <time>2021-06-18T09:06:39.272Z</time>
      </trkpt>
      <trkpt lat="53.777146" lon="10.633632">
        <ele>59.681688</ele>
        <time>2021-06-18T09:06:46.275Z</time>
      </trkpt>
      <trkpt lat="53.777241" lon="10.633658">
        <ele>59.618808</ele>
        <time>2021-06-18T09:06:52.276Z</time>
      </trkpt>
      <trkpt lat="53.777343" lon="10.633678">
        <ele>59.551715</ele>
        <time>2021-06-18T09:06:59.271Z</time>
      </trkpt>
      <trkpt lat="53.777435" lon="10.633691">
        <ele>59.491393</ele>
        <time>2021-06-18T09:07:05.261Z</time>
      </trkpt>
      <trkpt lat="53.777525" lon="10.633730">
        <ele>59.430690</ele>
        <time>2021-06-18T09:07:11.276Z</time>
      </trkpt>
      <trkpt lat="53.777626" lon="10.633728">
        <ele>59.364691</ele>
        <time>2021-06-18T09:07:17.261Z</time>
      </trkpt>
      <trkpt lat="53.777728" lon="10.633736">
        <ele>59.297973</ele>
        <time>2021-06-18T09:07:23.281Z</time>
      </trkpt>
      <trkpt lat="53.777829" lon="10.633725">
        <ele>59.231843</ele>
        <time>2021-06-18T09:07:29.255Z</time>
      </trkpt>
      <trkpt lat="53.777934" lon="10.633738">
        <ele>59.163052</ele>
        <time>2021-06-18T09:07:35.273Z</time>
      </trkpt>
      <trkpt lat="53.778027" lon="10.633749">
        <ele>59.102138</ele>
        <time>2021-06-18T09:07:41.265Z</time>
      </trkpt>
      <trkpt lat="53.778124" lon="10.633731">
        <ele>59.038378</ele>
        <time>2021-06-18T09:07:47.272Z</time>
      </trkpt>
      <trkpt lat="53.778227" lon="10.633732">
        <ele>58.971076</ele>
        <time>2021-06-18T09:07:54.269Z</time>
      </trkpt>
      <trkpt lat="53.778319" lon="10.633722">
        <ele>58.910839</ele>
        <time>2021-06-18T09:08:00.273Z</time>
      </trkpt>
      <trkpt lat="53.778410" lon="10.633674">
        <ele>58.848558</ele>
        <time>2021-06-18T09:08:06.258Z</time>
      </trkpt>
      <trkpt lat="53.778510" lon="10.633616">
        <ele>58.779487</ele>
        <time>2021-06-18T09:08:13.266Z</time>
      </trkpt>
      <trkpt lat="53.778594" lon="10.633555">
        <ele>58.719762</ele>
        <time>2021-06-18T09:08:19.265Z</time>
      </trkpt>
      <trkpt lat="53.778696" lon="10.633507">
        <ele>58.573230</ele>
        <time>2021-06-18T09:08:26.265Z</time>
      </trkpt>
      <trkpt lat="53.778795" lon="10.633503">
        <ele>58.386238</ele>
        <time>2021-06-18T09:08:31.265Z</time>
      </trkpt>
      <trkpt lat="53.778893" lon="10.633545">
        <ele>58.195347</ele>
        <time>2021-06-18T09:08:36.262Z</time>
      </trkpt>
      <trkpt lat="53.778976" lon="10.633610">
        <ele>58.022653</ele>
        <time>2021-06-18T09:08:41.261Z</time>
      </trkpt>
      <trkpt lat="53.779043" lon="10.633720">
        <ele>57.846387</ele>
        <time>2021-06-18T09:08:47.275Z</time>
      </trkpt>
      <trkpt lat="53.779105" lon="10.633849">
        <ele>57.660852</ele>
        <time>2021-06-18T09:08:54.267Z</time>
      </trkpt>
      <trkpt lat="53.779162" lon="10.633979">
        <ele>57.480231</ele>
        <time>2021-06-18T09:09:00.263Z</time>
      </trkpt>
      <trkpt lat="53.779203" lon="10.634114">
        <ele>57.310870</ele>
        <time>2021-06-18T09:09:05.278Z</time>
      </trkpt>
      <trkpt lat="53.779244" lon="10.634255">
        <ele>57.135529</ele>
        <time>2021-06-18T09:09:10.283Z</time>
      </trkpt>
      <trkpt lat="53.779301" lon="10.634396">
        <ele>56.944911</ele>
        <time>2021-06-18T09:09:17.262Z</time>
      </trkpt>
      <trkpt lat="53.779337" lon="10.634551">
        <ele>56.759087</ele>
        <time>2021-06-18T09:09:25.267Z</time>
      </trkpt>
      <trkpt lat="53.779383" lon="10.634697">
        <ele>56.574474</ele>
        <time>2021-06-18T09:09:30.268Z</time>
      </trkpt>
      <trkpt lat="53.779410" lon="10.634845">
        <ele>56.401650</ele>
        <time>2021-06-18T09:09:35.275Z</time>
      </trkpt>
      <trkpt lat="53.779425" lon="10.635003">
        <ele>56.223098</ele>
        <time>2021-06-18T09:09:41.274Z</time>
      </trkpt>
      <trkpt lat="53.779478" lon="10.635141">
        <ele>56.039456</ele>
        <time>2021-06-18T09:09:47.266Z</time>
      </trkpt>
      <trkpt lat="53.779539" lon="10.635271">
        <ele>55.854235</ele>
        <time>2021-06-18T09:09:53.280Z</time>
      </trkpt>
      <trkpt lat="53.779629" lon="10.635347">
        <ele>55.664310</ele>
        <time>2021-06-18T09:09:59.282Z</time>
      </trkpt>
      <trkpt lat="53.779720" lon="10.635422">
        <ele>55.473185</ele>
        <time>2021-06-18T09:10:05.270Z</time>
      </trkpt>
      <trkpt lat="53.779812" lon="10.635496">
        <ele>55.286573</ele>
        <time>2021-06-18T09:10:11.278Z</time>
      </trkpt>
      <trkpt lat="53.779902" lon="10.635566">
        <ele>55.174182</ele>
        <time>2021-06-18T09:10:17.280Z</time>
      </trkpt>
      <trkpt lat="53.779992" lon="10.635593">
        <ele>55.070468</ele>
        <time>2021-06-18T09:10:22.267Z</time>
      </trkpt>
      <trkpt lat="53.780086" lon="10.635635">
        <ele>54.960153</ele>
        <time>2021-06-18T09:10:29.271Z</time>
      </trkpt>
      <trkpt lat="53.780182" lon="10.635677">
        <ele>54.847642</ele>
        <time>2021-06-18T09:10:36.275Z</time>
      </trkpt>
      <trkpt lat="53.780259" lon="10.635758">
        <ele>54.744768</ele>
        <time>2021-06-18T09:10:42.249Z</time>
      </trkpt>
      <trkpt lat="53.780350" lon="10.635807">
        <ele>54.636410</ele>
        <time>2021-06-18T09:10:48.322Z</time>
      </trkpt>
      <trkpt lat="53.780451" lon="10.635841">
        <ele>54.519562</ele>
        <time>2021-06-18T09:10:55.273Z</time>
      </trkpt>
      <trkpt lat="53.780506" lon="10.635981">
        <ele>54.406843</ele>
        <time>2021-06-18T09:11:01.279Z</time>
      </trkpt>
      <trkpt lat="53.780542" lon="10.636140">
        <ele>54.292681</ele>
        <time>2021-06-18T09:11:08.280Z</time>
      </trkpt>
      <trkpt lat="53.780583" lon="10.636300">
        <ele>54.175753</ele>
        <time>2021-06-18T09:11:14.279Z</time>
      </trkpt>
      <trkpt lat="53.780602" lon="10.636459">
        <ele>54.066991</ele>
        <time>2021-06-18T09:11:20.275Z</time>
      </trkpt>
      <trkpt lat="53.780581" lon="10.636623">
        <ele>53.954483</ele>
        <time>2021-06-18T09:11:26.269Z</time>
      </trkpt>
      <trkpt lat="53.780579" lon="10.636788">
        <ele>53.843833</ele>
        <time>2021-06-18T09:11:32.274Z</time>
      </trkpt>
      <trkpt lat="53.780595" lon="10.636949">
        <ele>53.734372</ele>
        <time>2021-06-18T09:11:39.276Z</time>
      </trkpt>
      <trkpt lat="53.780615" lon="10.637111">
        <ele>53.623412</ele>
        <time>2021-06-18T09:11:46.286Z</time>
      </trkpt>
      <trkpt lat="53.780658" lon="10.637421">
        <ele>53.409918</ele>
        <time>2021-06-18T09:12:10.271Z</time>
      </trkpt>
      <trkpt lat="53.780642" lon="10.637583">
        <ele>53.299796</ele>
        <time>2021-06-18T09:12:18.272Z</time>
      </trkpt>
      <trkpt lat="53.780650" lon="10.637751">
        <ele>53.399711</ele>
        <time>2021-06-18T09:12:25.282Z</time>
      </trkpt>
      <trkpt lat="53.780672" lon="10.637905">
        <ele>53.628514</ele>
        <time>2021-06-18T09:12:32.279Z</time>
      </trkpt>
      <trkpt lat="53.780692" lon="10.638061">
        <ele>53.859040</ele>
        <time>2021-06-18T09:12:39.272Z</time>
      </trkpt>
      <trkpt lat="53.780714" lon="10.638218">
        <ele>54.092056</ele>
        <time>2021-06-18T09:12:44.272Z</time>
      </trkpt>
      <trkpt lat="53.780742" lon="10.638383">
        <ele>54.339968</ele>
        <time>2021-06-18T09:12:50.284Z</time>
      </trkpt>
      <trkpt lat="53.780772" lon="10.638538">
        <ele>54.575510</ele>
        <time>2021-06-18T09:12:55.268Z</time>
      </trkpt>
      <trkpt lat="53.780804" lon="10.638684">
        <ele>54.800390</ele>
        <time>2021-06-18T09:13:01.283Z</time>
      </trkpt>
      <trkpt lat="53.780797" lon="10.638839">
        <ele>55.024882</ele>
        <time>2021-06-18T09:13:08.283Z</time>
      </trkpt>
      <trkpt lat="53.780791" lon="10.639013">
        <ele>55.276587</ele>
        <time>2021-06-18T09:13:15.283Z</time>
      </trkpt>
      <trkpt lat="53.780796" lon="10.639177">
        <ele>55.513738</ele>
        <time>2021-06-18T09:13:20.278Z</time>
      </trkpt>
      <trkpt lat="53.780801" lon="10.639330">
        <ele>55.735026</ele>
        <time>2021-06-18T09:13:27.282Z</time>
      </trkpt>
      <trkpt lat="53.780800" lon="10.639490">
        <ele>55.966099</ele>
        <time>2021-06-18T09:13:35.276Z</time>
      </trkpt>
      <trkpt lat="53.780792" lon="10.639643">
        <ele>56.187913</ele>
        <time>2021-06-18T09:13:42.276Z</time>
      </trkpt>
      <trkpt lat="53.780761" lon="10.639798">
        <ele>56.424227</ele>
        <time>2021-06-18T09:13:48.273Z</time>
      </trkpt>
      <trkpt lat="53.780737" lon="10.639956">
        <ele>56.659817</ele>
        <time>2021-06-18T09:13:54.275Z</time>
      </trkpt>
      <trkpt lat="53.780684" lon="10.640092">
        <ele>56.895088</ele>
        <time>2021-06-18T09:14:01.283Z</time>
      </trkpt>
      <trkpt lat="53.780597" lon="10.640168">
        <ele>57.134374</ele>
        <time>2021-06-18T09:14:09.287Z</time>
      </trkpt>
      <trkpt lat="53.780529" lon="10.640291">
        <ele>57.377628</ele>
        <time>2021-06-18T09:14:16.273Z</time>
      </trkpt>
      <trkpt lat="53.780483" lon="10.640429">
        <ele>57.606443</ele>
        <time>2021-06-18T09:14:22.276Z</time>
      </trkpt>
      <trkpt lat="53.780410" lon="10.640548">
        <ele>57.650250</ele>
        <time>2021-06-18T09:14:28.275Z</time>
      </trkpt>
      <trkpt lat="53.780348" lon="10.640683">
        <ele>57.650250</ele>
        <time>2021-06-18T09:14:35.280Z</time>
      </trkpt>
      <trkpt lat="53.780283" lon="10.640789">
        <ele>57.650250</ele>
        <time>2021-06-18T09:14:42.271Z</time>
      </trkpt>
      <trkpt lat="53.780240" lon="10.640922">
        <ele>57.650250</ele>
        <time>2021-06-18T09:14:47.273Z</time>
      </trkpt>
      <trkpt lat="53.780205" lon="10.641086">
        <ele>57.650250</ele>
        <time>2021-06-18T09:14:53.279Z</time>
      </trkpt>
      <trkpt lat="53.780180" lon="10.641236">
        <ele>57.650250</ele>
        <time>2021-06-18T09:14:59.284Z</time>
      </trkpt>
      <trkpt lat="53.780205" lon="10.641384">
        <ele>57.650250</ele>
        <time>2021-06-18T09:15:03.280Z</time>
      </trkpt>
      <trkpt lat="53.780252" lon="10.641533">
        <ele>57.650250</ele>
        <time>2021-06-18T09:15:07.276Z</time>
      </trkpt>
      <trkpt lat="53.780323" lon="10.641666">
        <ele>57.650250</ele>
        <time>2021-06-18T09:15:12.276Z</time>
      </trkpt>
      <trkpt lat="53.780401" lon="10.641775">
        <ele>57.650250</ele>
        <time>2021-06-18T09:15:18.278Z</time>
      </trkpt>
      <trkpt lat="53.780471" lon="10.641877">
        <ele>57.650250</ele>
        <time>2021-06-18T09:15:24.277Z</time>
      </trkpt>
      <trkpt lat="53.780569" lon="10.641857">
        <ele>57.650250</ele>
        <time>2021-06-18T09:15:35.251Z</time>
      </trkpt>
      <trkpt lat="53.780668" lon="10.641883">
        <ele>57.650250</ele>
        <time>2021-06-18T09:15:41.267Z</time>
      </trkpt>
      <trkpt lat="53.780755" lon="10.641804">
        <ele>57.650250</ele>
        <time>2021-06-18T09:15:48.264Z</time>
      </trkpt>
      <trkpt lat="53.780853" lon="10.641758">
        <ele>57.650250</ele>
        <time>2021-06-18T09:15:55.250Z</time>
      </trkpt>
      <trkpt lat="53.780942" lon="10.641663">
        <ele>57.650250</ele>
        <time>2021-06-18T09:16:09.271Z</time>
      </trkpt>
      <trkpt lat="53.781037" lon="10.641609">
        <ele>57.650250</ele>
        <time>2021-06-18T09:16:15.275Z</time>
      </trkpt>
      <trkpt lat="53.781124" lon="10.641564">
        <ele>57.650250</ele>
        <time>2021-06-18T09:16:20.276Z</time>
      </trkpt>
      <trkpt lat="53.781211" lon="10.641505">
        <ele>57.650250</ele>
        <time>2021-06-18T09:16:26.271Z</time>
      </trkpt>
      <trkpt lat="53.781308" lon="10.641467">
        <ele>57.650250</ele>
        <time>2021-06-18T09:16:32.271Z</time>
      </trkpt>
      <trkpt lat="53.781403" lon="10.641398">
        <ele>57.650250</ele>
        <time>2021-06-18T09:16:39.278Z</time>
      </trkpt>
      <trkpt lat="53.781498" lon="10.641328">
        <ele>57.650250</ele>
        <time>2021-06-18T09:16:45.278Z</time>
      </trkpt>
      <trkpt lat="53.781598" lon="10.641293">
        <ele>57.650250</ele>
        <time>2021-06-18T09:16:53.278Z</time>
      </trkpt>
      <trkpt lat="53.781688" lon="10.641242">
        <ele>57.650250</ele>
        <time>2021-06-18T09:16:59.280Z</time>
      </trkpt>
      <trkpt lat="53.781776" lon="10.641156">
        <ele>57.650250</ele>
        <time>2021-06-18T09:17:06.261Z</time>
      </trkpt>
      <trkpt lat="53.781851" lon="10.641067">
        <ele>57.650250</ele>
        <time>2021-06-18T09:17:14.262Z</time>
      </trkpt>
      <trkpt lat="53.781930" lon="10.640963">
        <ele>57.650250</ele>
        <time>2021-06-18T09:17:25.278Z</time>
      </trkpt>
      <trkpt lat="53.781935" lon="10.640963">
        <ele>57.650250</ele>
        <time>2021-06-18T09:17:27.057Z</time>
      </trkpt>
    </trkseg>
  </trk>
</gpx>